GFSSGP_925_thetae_000.txt.gz
Theta_e
348 349 356 355 351 345 354 354 349 353 354 351 351 353 354 352 353 353 345 346 346 348 348 346 350 349 346 346 346 346 346 349 348 347 344 340 339 338 336 340 342 340 339 341 341 340 342 345 345
346 354 356 353 343 351 350 349 352 351 353 352 352 353 355 355 350 349 347 345 347 348 348 348 348 349 347 347 347 346 348 346 339 340 340 340 339 338 340 343 341 340 340 340 341 344 344 343 343
353 352 356 357 339 348 352 350 352 354 354 354 354 352 353 354 350 349 346 346 347 348 349 348 349 351 351 352 350 350 346 341 341 341 345 345 344 347 344 341 338 339 339 339 342 344 345 343 344
350 346 345 337 338 341 348 348 354 356 354 352 353 358 353 350 350 349 345 347 348 347 347 347 349 352 354 353 351 351 350 342 342 347 350 348 348 346 344 341 341 342 341 342 344 344 345 345 345
346 338 337 340 343 352 348 347 350 353 357 355 354 358 355 351 349 344 348 349 348 348 350 348 349 352 352 352 352 351 351 343 341 342 347 346 347 346 343 341 342 341 342 344 345 347 349 350 347
338 334 339 343 346 352 348 345 351 358 357 355 355 355 356 351 347 348 348 348 349 350 349 350 352 353 353 353 348 341 340 339 338 340 341 341 343 342 341 340 340 342 342 348 349 351 352 350 348
347 339 343 343 352 353 350 352 356 357 356 356 352 356 355 350 350 349 348 348 350 350 350 350 352 354 353 345 342 342 342 342 342 341 342 341 340 342 341 339 341 343 344 350 353 352 347 345 344
338 335 345 342 351 352 350 354 353 352 357 351 349 356 357 351 352 349 347 348 350 350 351 352 353 353 350 347 345 345 344 342 342 342 341 339 339 339 340 342 342 344 349 354 351 342 344 344 342
338 338 341 342 343 344 347 357 353 352 354 352 351 350 350 353 352 352 351 350 350 351 351 352 351 350 347 350 346 345 343 343 344 342 340 339 341 342 344 343 344 344 344 345 345 344 344 344 344
338 341 341 338 338 347 347 354 355 354 353 355 353 352 353 354 353 353 352 352 352 350 351 352 352 352 352 350 350 347 346 344 342 341 339 340 343 344 345 345 345 344 341 344 345 344 344 345 346
338 340 339 339 338 346 346 353 348 351 355 354 354 355 354 354 353 353 352 351 351 350 352 351 351 351 349 346 346 346 344 342 340 340 341 342 343 346 347 346 345 340 344 346 345 345 346 345 345
337 338 339 338 341 344 347 346 353 350 350 350 350 352 354 354 353 353 352 353 353 353 352 352 353 352 350 348 345 346 344 343 341 340 342 342 347 348 347 345 346 347 347 347 345 345 345 345 343
328 328 337 340 337 340 343 349 353 349 349 350 350 352 353 352 353 353 353 354 353 353 351 351 352 352 351 350 349 347 346 345 345 343 341 342 347 346 347 347 346 344 345 346 346 345 345 343 340
326 337 339 339 339 341 348 350 350 351 351 354 352 353 352 352 353 353 355 355 354 352 348 347 348 349 351 349 348 347 344 344 345 344 345 345 348 348 347 347 347 346 345 343 344 344 343 341 341
337 339 339 340 341 349 346 351 352 350 352 356 355 354 353 353 354 354 355 355 355 353 350 351 351 352 350 350 349 348 348 349 349 348 350 350 350 349 348 347 347 346 345 344 343 343 343 342 339
337 338 343 341 342 347 344 351 353 349 351 356 357 356 355 354 354 355 355 355 354 354 354 352 352 353 351 352 352 351 351 352 350 349 349 350 350 350 349 347 345 345 345 344 344 344 342 341 340
334 343 342 344 341 346 347 351 353 348 350 355 356 355 355 354 352 354 354 354 354 354 353 353 353 353 353 351 352 353 354 353 353 352 351 350 350 349 348 347 347 346 345 345 344 343 343 340 339
340 343 340 346 341 345 347 349 353 349 349 352 352 351 353 352 351 350 351 353 353 354 353 353 353 354 354 352 352 353 354 352 352 351 350 349 350 349 347 346 346 347 344 344 343 343 342 341 341
334 340 343 342 340 343 346 349 355 350 348 349 349 349 350 349 347 348 348 350 352 353 353 354 354 355 355 354 354 355 353 352 353 352 350 350 349 349 349 346 346 343 343 342 343 341 341 340 340
334 334 339 336 338 343 347 350 353 352 350 348 348 348 348 347 345 344 347 349 349 351 352 353 355 356 355 355 354 354 353 353 353 352 352 351 349 349 348 344 342 342 341 340 339 340 340 340 340
326 327 327 338 341 344 348 351 350 351 349 348 347 347 346 347 346 344 344 347 348 348 351 352 354 355 355 354 354 355 354 354 353 354 350 350 350 348 346 343 337 337 338 337 338 338 340 340 340
326 324 327 335 341 343 342 346 348 348 350 348 347 346 346 346 345 344 343 345 347 348 349 349 351 353 354 353 355 355 354 353 352 351 351 352 348 347 343 332 336 337 338 339 336 339 340 340 338
327 325 327 334 336 340 348 341 340 347 349 348 346 345 345 344 344 344 343 344 345 347 348 349 349 351 353 353 354 356 354 353 351 348 348 350 349 348 335 335 336 338 340 336 336 335 337 337 337
324 321 322 324 329 337 339 343 338 349 350 348 346 346 346 345 345 344 344 344 345 346 347 347 348 349 351 351 353 354 354 353 353 348 343 349 351 338 334 335 337 338 339 333 334 334 334 335 336
320 322 324 328 336 336 333 344 341 338 346 346 346 347 347 346 346 345 344 345 346 347 347 347 347 349 350 351 353 354 354 353 354 345 343 349 343 335 333 333 336 336 330 332 333 333 333 333 335
322 322 323 327 330 338 335 346 343 338 337 341 342 345 345 347 347 346 345 345 346 347 348 348 349 349 350 352 354 354 355 355 358 349 342 345 337 335 332 334 334 328 326 331 333 332 332 333 333
322 322 320 321 322 326 330 328 329 331 333 339 341 343 343 346 347 348 346 346 346 347 348 349 350 351 351 352 354 354 356 356 360 343 340 339 336 334 332 332 330 330 328 330 332 330 331 332 334
322 320 324 319 326 331 327 328 332 331 334 333 339 342 342 343 347 347 348 347 347 347 349 350 350 351 351 352 353 353 356 358 354 332 336 336 334 331 331 330 331 332 330 330 331 330 327 331 332
322 322 319 319 320 324 326 327 324 328 332 334 337 339 340 340 345 345 348 349 348 348 349 350 351 352 353 352 353 353 355 356 334 330 328 330 333 332 328 331 332 332 332 332 331 328 329 331 332
321 321 321 325 322 320 322 324 324 327 328 334 335 338 334 338 343 343 347 349 349 348 349 350 351 352 353 352 351 351 353 350 333 332 331 334 335 335 331 332 332 332 334 333 329 328 329 330 330

GFSSGP_925_thetae_003.txt.gz
Theta_e
354 357 356 357 354 351 358 357 353 356 355 354 351 353 355 354 353 357 346 348 348 349 350 350 346 345 345 344 345 346 346 344 344 343 341 340 338 339 342 342 342 343 345 343 342 343 343 342 344
349 355 357 354 350 352 356 352 356 354 355 353 354 354 354 355 349 348 348 349 348 348 350 349 346 345 345 344 345 346 350 349 346 347 342 342 341 341 344 343 341 342 345 344 345 346 345 342 343
354 353 361 351 349 349 353 351 356 355 353 352 355 352 352 353 348 347 348 349 349 349 349 351 346 345 345 345 346 348 352 352 350 352 343 343 344 344 346 342 341 343 343 346 347 346 343 343 343
352 350 348 343 348 348 350 352 355 357 354 352 351 354 351 349 347 348 348 349 350 350 350 350 349 349 347 348 347 352 350 344 347 348 349 352 350 347 342 341 343 344 346 348 348 345 346 346 346
345 343 342 347 351 351 348 353 356 357 356 354 352 354 353 351 349 348 350 351 351 351 351 354 351 350 351 351 351 350 349 347 346 348 350 350 349 346 346 346 346 345 345 346 348 347 351 350 350
344 340 343 348 354 351 349 351 354 358 356 354 353 352 354 351 347 349 351 351 350 351 353 353 351 351 349 350 351 351 346 345 341 340 343 344 345 347 345 345 343 344 348 351 352 352 348 348 345
346 343 346 348 355 353 350 350 355 356 356 354 350 356 354 349 346 349 350 352 352 353 353 355 355 355 353 352 351 351 344 339 336 340 341 341 344 342 343 341 341 343 346 347 350 345 344 343 341
343 342 345 347 354 352 351 352 354 353 355 350 350 356 355 348 347 349 350 352 352 353 353 355 355 356 355 353 348 343 339 338 341 342 342 342 342 341 341 341 344 343 345 346 347 344 344 344 344
340 345 345 344 352 351 352 352 353 351 355 352 351 351 347 348 347 348 350 352 353 354 354 355 355 356 355 354 353 348 344 344 343 344 341 342 351 351 351 347 344 345 343 345 345 345 344 344 346
342 346 345 342 346 350 352 352 355 357 354 353 354 351 350 350 348 348 349 351 352 352 354 355 355 354 354 353 352 353 351 350 349 351 351 351 347 346 345 347 346 344 344 345 344 344 345 347 348
342 345 342 342 342 348 352 353 353 355 355 352 356 356 352 351 349 349 348 349 350 352 352 354 355 354 354 355 353 351 352 352 351 351 350 350 343 343 348 350 347 342 346 350 348 348 348 347 346
339 340 341 340 344 348 352 352 353 352 347 348 352 353 353 353 351 350 349 349 350 351 352 353 354 355 355 354 352 351 351 351 350 350 347 345 347 346 347 348 348 346 349 348 348 348 345 345 342
332 332 337 340 345 347 349 353 352 353 347 349 352 353 354 353 351 351 350 350 351 351 353 354 355 355 355 353 351 350 349 350 350 350 346 346 347 347 347 346 348 347 346 348 348 345 345 343 343
329 332 335 342 345 346 349 352 350 350 352 353 354 355 354 353 352 353 352 352 352 352 353 355 356 357 356 355 354 354 353 353 351 351 349 340 344 347 346 347 346 349 346 348 345 347 345 344 344
340 344 344 344 345 348 349 355 353 350 354 355 354 354 354 354 353 354 352 352 354 354 352 352 354 355 356 355 353 352 352 352 350 349 346 347 348 348 345 346 345 347 345 344 345 346 344 343 342
341 344 346 346 348 349 347 348 352 352 355 355 354 354 354 354 353 353 354 353 355 355 354 352 352 353 355 355 351 352 352 353 352 352 351 348 348 346 345 346 344 344 345 345 346 346 344 344 343
342 344 347 348 347 351 349 349 351 353 355 356 355 354 355 355 354 354 355 355 356 356 356 355 356 356 357 355 349 352 353 351 351 354 350 348 350 348 348 346 345 346 347 345 346 345 345 344 342
342 346 346 348 347 351 351 351 355 353 354 355 356 356 356 356 357 355 356 356 356 356 357 357 356 357 355 349 349 350 351 349 352 353 353 351 349 348 349 346 346 346 347 347 345 345 345 343 343
339 344 345 347 345 348 351 350 354 354 353 354 357 358 357 356 353 354 355 356 356 357 357 357 357 357 352 354 354 354 351 355 355 354 349 350 348 348 346 346 346 345 346 346 345 345 344 342 343
341 344 346 344 344 346 349 349 351 355 354 353 354 355 356 355 355 354 355 354 355 356 357 357 358 358 352 356 356 356 355 355 354 355 353 351 350 350 349 348 345 344 344 344 344 343 342 342 342
333 340 344 345 342 346 349 349 352 354 353 352 351 351 351 352 354 353 353 353 354 355 356 357 358 357 357 359 358 356 355 355 355 355 355 354 352 349 348 344 343 340 338 339 342 341 342 340 342
332 335 340 345 345 349 346 348 350 352 356 354 352 351 350 350 350 351 351 351 353 353 354 356 357 357 359 359 358 358 355 355 355 356 355 355 350 349 346 342 331 337 340 339 340 338 342 342 339
333 331 335 341 344 343 349 347 343 351 355 356 354 352 350 349 349 350 350 349 350 352 353 354 356 356 358 359 358 357 357 356 356 355 352 354 353 349 346 338 332 335 339 339 336 340 340 340 338
328 330 332 336 339 340 338 345 339 352 352 351 351 351 350 349 349 348 348 348 349 350 351 353 354 353 355 357 359 358 357 357 357 355 350 349 350 348 348 335 335 336 338 339 335 336 334 337 338
329 331 334 336 338 337 337 346 342 342 346 347 348 350 349 349 348 349 350 348 349 349 351 352 353 353 355 356 357 358 357 358 358 356 351 348 347 346 345 334 334 338 337 335 331 331 335 335 336
329 330 335 337 337 335 338 342 340 342 340 343 346 347 347 348 348 348 349 350 349 349 350 351 351 352 354 354 354 356 356 356 357 355 351 348 346 346 340 334 332 335 334 328 330 334 334 334 334
329 331 331 334 330 334 336 341 336 338 340 340 343 346 349 348 349 349 349 348 349 349 350 351 351 351 353 354 354 356 356 357 356 355 355 349 343 343 336 332 332 334 327 327 332 331 329 330 334
327 328 330 331 339 337 334 336 334 340 341 343 344 346 348 349 350 350 351 350 349 350 350 351 351 352 352 354 355 355 357 357 356 356 357 348 342 339 335 331 332 330 330 327 329 332 331 330 330
325 327 329 331 332 336 336 334 337 344 347 343 344 345 347 350 351 352 352 349 350 350 350 351 352 352 353 354 354 355 356 356 355 356 358 351 340 338 334 331 330 332 332 331 330 331 331 331 333
325 327 330 332 336 331 333 332 333 336 338 341 341 342 344 349 352 351 351 350 349 350 350 351 352 352 353 353 354 355 355 352 348 352 353 335 335 335 332 331 331 331 335 335 335 334 331 333 334

GFSSGP_925_thetae_006.txt.gz
Theta_e
354 358 360 362 367 353 361 359 353 357 358 354 351 353 356 355 355 361 349 351 350 351 350 348 346 345 345 346 346 345 342 342 341 342 343 341 343 345 347 351 349 345 346 347 351 347 345 349 344
358 359 359 361 349 353 358 354 356 356 354 353 353 354 354 356 350 350 350 350 350 348 348 348 345 345 344 345 346 346 345 346 343 342 341 340 342 342 347 349 346 348 346 353 351 343 346 350 351
354 356 361 346 342 352 356 355 356 355 351 352 355 352 352 354 350 349 349 349 349 349 348 349 345 345 344 345 347 350 350 346 346 343 341 342 342 346 348 348 351 347 348 346 344 343 344 349 352
355 355 354 341 340 345 352 355 356 356 353 351 351 356 351 348 349 349 349 349 349 350 350 347 344 344 345 345 348 349 350 350 350 344 343 342 345 347 345 346 346 345 343 343 344 347 352 351 352
351 348 341 341 343 344 348 353 354 355 354 352 350 354 354 351 349 350 351 351 351 350 352 349 346 346 346 346 348 350 351 350 346 345 343 348 347 346 342 346 348 349 346 346 347 349 352 352 346
350 345 342 342 343 345 347 352 354 355 355 353 352 355 355 350 350 351 352 352 351 351 351 352 349 348 349 349 350 348 351 348 347 347 347 345 345 345 347 343 344 350 351 349 351 347 345 345 343
347 344 344 344 345 345 347 348 352 355 356 353 350 357 355 350 351 353 353 352 351 352 353 353 352 353 353 353 353 351 351 347 344 343 342 340 345 345 341 344 343 347 348 351 347 344 344 344 342
346 344 344 345 347 345 345 348 349 349 354 349 349 356 358 349 351 352 352 352 352 352 353 354 354 355 353 353 354 354 350 346 343 343 343 345 343 340 339 342 351 344 344 346 345 344 344 343 344
345 347 344 345 347 347 347 348 350 349 353 351 350 349 348 347 350 351 352 352 353 352 352 353 354 354 354 351 350 351 350 347 344 343 342 341 349 351 350 349 343 345 342 345 345 344 343 345 348
343 347 344 341 344 348 347 347 352 353 352 352 353 348 347 347 350 351 352 353 353 353 353 351 353 354 353 351 352 352 350 348 348 348 349 348 350 351 348 350 345 344 343 345 345 344 347 348 347
338 345 343 343 342 346 348 348 350 348 352 350 354 352 349 348 350 351 351 352 352 352 352 354 352 354 353 352 351 351 350 349 350 352 351 349 350 350 351 351 350 348 347 350 350 349 348 349 347
336 337 337 341 343 345 348 348 350 347 346 346 349 350 350 351 350 350 350 351 351 351 351 352 352 353 353 353 352 351 349 349 349 349 352 351 350 351 352 351 352 351 350 350 350 348 349 349 347
333 333 334 336 341 342 347 349 349 349 347 347 349 351 351 351 349 348 348 349 350 351 351 351 352 354 354 355 351 351 350 349 348 349 350 349 349 351 352 351 350 350 351 350 349 349 349 348 347
333 333 334 335 340 344 349 350 350 349 346 351 352 353 351 351 350 349 349 349 349 350 351 351 352 354 354 354 353 351 351 350 349 348 348 351 349 350 350 351 350 350 351 349 349 350 349 348 346
333 336 341 341 343 347 348 353 353 350 350 355 354 353 352 351 350 351 350 350 350 351 350 352 353 354 356 356 354 353 351 350 350 349 351 352 352 351 351 350 350 349 350 351 350 350 349 346 343
334 337 342 344 346 348 349 348 351 351 352 356 354 354 353 352 351 351 351 351 351 352 352 352 352 353 355 355 354 353 351 351 351 350 351 353 353 352 352 351 349 349 349 349 349 348 346 343 341
337 340 340 349 347 351 351 347 350 352 352 354 354 353 353 353 352 352 352 351 351 353 354 354 353 352 353 355 354 354 353 354 353 353 353 351 353 351 352 350 350 350 349 349 348 347 344 340 338
339 339 340 342 350 351 351 348 352 353 352 352 355 353 353 353 353 352 352 352 353 354 355 355 354 354 355 355 355 353 353 353 352 352 353 355 353 352 352 351 350 350 349 348 347 346 342 341 338
336 339 341 341 348 351 349 348 350 354 353 353 355 355 354 352 350 351 353 353 353 354 356 357 356 357 357 354 353 352 351 352 352 351 355 354 353 353 353 350 350 350 349 347 344 341 339 336 338
335 337 339 341 347 348 347 349 348 350 355 352 352 355 356 354 352 353 353 353 353 355 357 358 358 358 358 355 353 352 352 351 353 353 354 354 354 354 352 352 351 350 343 344 341 340 338 337 337
335 337 339 343 347 347 346 349 348 347 352 352 351 351 354 354 353 353 353 353 353 354 357 358 359 360 359 354 354 356 355 355 354 354 355 356 356 355 354 353 348 347 339 335 340 340 338 336 340
335 334 337 340 345 349 347 349 344 346 352 353 354 352 350 354 353 353 353 353 353 353 356 358 360 361 360 358 355 355 355 351 349 350 349 353 355 354 353 350 347 340 336 339 339 338 338 339 336
333 334 335 337 343 345 348 349 344 346 348 351 354 353 350 348 351 353 353 351 352 353 355 357 360 361 361 360 359 358 357 350 349 350 353 354 352 353 348 349 343 339 337 340 340 339 339 337 335
331 334 336 337 338 345 345 346 342 342 346 343 348 351 352 348 348 350 349 349 351 352 353 355 358 361 362 361 361 360 356 354 349 352 350 347 346 348 349 349 344 338 337 340 339 338 338 337 336
330 335 340 341 341 342 342 345 342 338 338 340 338 345 351 349 348 348 350 350 350 351 352 354 356 360 361 361 360 360 360 358 355 354 350 344 344 344 346 350 344 339 340 340 337 337 336 336 336
329 333 337 342 339 339 340 342 340 338 337 337 337 341 348 350 347 348 349 349 350 351 352 354 355 359 360 360 360 360 360 359 357 355 349 345 343 341 342 349 343 340 339 339 335 334 334 334 334
330 334 334 336 336 337 335 338 337 337 339 339 339 343 346 350 349 347 349 348 349 351 352 354 356 358 359 359 360 361 361 360 355 353 354 348 346 341 345 346 343 337 339 336 334 333 334 333 333
328 331 334 336 344 341 337 338 339 339 336 336 338 343 346 349 350 348 348 348 349 350 351 354 355 357 358 358 359 359 359 360 358 356 355 350 349 347 344 344 339 337 337 335 335 333 333 333 329
327 329 333 335 335 338 340 338 336 337 337 336 335 343 344 348 351 350 349 347 349 349 350 353 355 356 358 358 357 357 357 357 359 358 358 356 354 348 345 343 338 337 336 336 336 334 332 332 331
327 329 332 336 341 337 337 335 334 335 335 335 335 335 336 345 349 351 351 349 349 350 349 350 352 355 356 356 358 357 357 356 357 359 358 355 355 346 345 342 339 337 336 336 337 335 332 331 331

GFSSGP_925_thetae_012.txt.gz
Theta_e
348 355 356 358 367 359 367 362 358 360 356 353 353 354 359 359 361 364 351 350 349 349 349 349 346 345 343 343 344 345 347 347 344 346 350 351 352 351 352 352 353 353 353 352 352 352 353 353 351
354 358 359 357 365 369 364 359 362 352 351 353 353 354 356 360 353 352 351 349 348 348 348 349 343 343 342 343 342 343 346 347 346 347 348 352 352 350 351 353 349 349 352 351 352 352 352 353 353
356 359 364 369 358 367 363 358 357 355 352 355 356 353 354 358 354 352 350 349 347 348 350 349 346 345 344 344 343 345 350 349 347 345 350 353 352 350 351 350 348 351 351 352 352 353 352 353 353
361 357 365 371 360 355 354 351 352 355 355 353 353 354 352 350 350 349 350 349 347 350 349 347 346 348 352 349 346 348 350 348 345 346 352 352 351 350 352 353 352 351 351 352 353 353 353 352 349
358 361 367 352 354 353 350 351 351 353 355 353 352 358 355 349 349 349 349 348 349 351 349 349 347 349 352 352 349 352 353 348 346 347 352 350 351 347 349 347 349 346 350 352 353 351 350 343 340
362 359 362 341 341 347 349 350 351 354 353 353 354 355 354 348 350 349 349 349 350 349 348 349 347 348 352 353 352 352 353 352 346 346 346 344 348 348 351 347 344 347 350 354 350 347 344 342 339
356 358 350 345 341 344 345 346 348 351 354 353 354 357 352 350 350 349 349 350 349 348 351 352 352 353 353 352 351 353 353 351 346 344 341 339 341 342 344 348 344 343 345 347 344 343 341 343 341
354 350 351 346 342 340 342 344 345 346 354 350 351 355 356 351 351 350 349 350 351 351 351 352 353 353 353 353 352 348 345 347 345 341 337 336 341 341 340 346 348 344 341 343 342 340 341 346 346
343 347 351 346 343 340 341 340 345 347 349 352 351 351 350 350 352 351 350 351 351 351 351 352 353 354 353 352 350 350 349 346 343 339 336 339 350 351 352 353 349 343 343 342 341 340 345 346 350
346 351 348 347 344 342 341 341 341 344 347 349 353 350 349 350 352 351 350 350 352 350 352 352 352 354 353 352 351 353 351 347 347 349 346 344 351 351 352 352 349 344 346 340 345 346 347 347 352
344 349 344 344 344 343 341 341 340 343 345 347 354 352 350 351 353 352 351 350 349 351 351 352 351 353 351 354 348 351 349 348 349 350 351 350 350 351 349 346 342 350 347 343 348 350 350 348 345
338 342 343 343 344 344 341 342 341 342 344 345 351 352 351 351 352 350 350 349 350 352 353 354 351 350 355 349 347 351 351 350 350 351 350 348 354 348 350 349 350 348 337 350 349 351 348 347 347
335 340 339 338 339 341 342 343 342 341 343 345 348 351 352 351 349 349 347 348 349 351 353 354 354 351 354 350 349 349 350 348 349 350 350 349 351 352 350 352 351 350 351 350 349 347 349 347 347
335 335 336 336 336 339 345 344 342 340 341 344 347 349 351 351 349 349 349 348 350 347 352 354 353 352 352 351 353 353 346 350 346 349 353 350 350 352 353 353 350 348 349 348 350 350 346 347 348
334 335 336 336 336 339 340 345 344 342 341 345 346 347 349 350 349 349 348 349 350 350 351 354 355 351 351 355 353 355 350 348 348 347 350 352 350 350 354 351 352 351 348 349 351 348 348 348 346
332 333 336 337 338 338 340 347 341 344 342 344 346 347 348 348 349 349 348 348 348 349 350 352 351 356 350 355 355 350 349 350 348 350 349 352 352 353 353 354 352 350 350 350 350 351 348 344 340
332 335 335 337 339 339 340 346 346 345 344 344 346 347 347 349 349 349 349 349 349 350 352 351 351 355 355 354 353 353 353 351 351 349 350 350 354 353 351 351 352 351 349 349 351 348 346 341 338
333 334 337 338 341 340 349 351 346 346 345 345 344 346 348 347 348 349 348 348 350 351 352 351 352 352 355 354 350 357 351 353 351 353 349 353 352 353 353 352 351 351 349 349 347 346 342 338 338
333 336 337 338 342 341 351 350 346 344 348 344 346 346 347 348 348 348 349 349 349 352 355 354 353 353 359 359 356 355 356 352 352 350 351 356 356 355 352 353 352 352 348 348 343 341 339 338 339
333 335 338 339 343 344 347 353 348 350 351 345 345 345 345 345 348 350 350 350 350 352 354 356 355 356 354 357 357 355 353 352 351 352 353 353 355 352 350 350 351 352 350 347 343 340 340 338 338
333 335 337 339 342 341 341 344 353 350 347 347 345 345 344 346 346 351 352 350 351 353 356 358 359 359 358 358 356 355 354 355 354 352 353 353 354 353 353 355 353 352 345 341 342 341 341 338 341
333 334 335 336 342 345 343 347 348 348 351 348 347 347 346 346 347 350 353 353 352 353 356 358 360 359 361 356 359 357 356 356 353 352 352 352 356 353 352 351 353 348 342 344 340 340 338 340 339
333 334 335 336 341 345 349 348 351 350 352 352 348 348 348 348 347 347 352 352 352 353 357 359 362 362 362 360 357 358 357 353 351 346 347 356 354 352 355 352 349 347 332 339 342 340 336 342 337
331 333 334 335 337 342 346 346 347 350 347 346 350 349 349 349 348 348 350 351 353 353 357 357 364 364 363 364 357 359 356 353 355 352 354 355 356 353 350 350 348 344 338 343 341 340 340 338 340
328 331 337 338 340 340 341 348 350 348 347 345 348 350 351 350 350 350 351 354 354 354 356 359 364 366 364 364 364 356 359 352 354 355 351 353 352 355 351 347 347 344 339 342 340 342 340 339 337
327 329 336 340 341 340 339 342 345 348 345 345 347 346 349 351 350 351 351 353 355 354 356 359 363 366 366 364 366 362 358 361 358 354 353 353 350 347 350 346 347 345 342 340 342 340 336 338 337
327 328 330 333 335 338 339 338 338 342 347 344 343 342 345 351 351 350 353 352 355 354 356 358 364 367 368 367 366 365 361 362 362 355 354 356 349 349 351 347 351 345 344 342 341 339 337 338 338
327 328 328 331 339 342 339 343 344 343 349 345 345 343 341 340 351 351 350 353 354 355 355 358 361 367 369 368 367 366 367 362 358 355 353 352 354 346 350 349 349 347 343 341 341 338 339 336 335
326 327 327 329 333 339 343 342 343 348 351 349 346 343 341 341 345 350 350 350 353 355 356 358 359 365 368 368 367 366 366 365 360 362 356 359 351 351 350 350 349 347 345 341 341 337 335 336 336
328 328 327 329 337 334 337 340 338 345 342 345 342 342 341 341 344 347 351 350 351 353 354 357 360 363 366 367 366 366 366 366 365 361 363 359 359 354 346 348 349 347 345 340 341 337 338 340 337

GFSSGP_925_thetae_015.txt.gz
Theta_e
348 350 355 352 365 363 367 364 359 357 356 353 353 358 359 357 358 359 348 347 347 348 346 346 346 349 350 348 347 348 343 343 346 348 349 347 346 347 348 350 350 350 351 352 352 352 352 352 349
351 354 343 349 366 369 365 359 362 356 354 351 355 357 357 358 351 351 350 349 348 347 345 346 347 343 346 346 346 346 346 345 346 349 348 347 345 347 349 349 348 349 350 352 353 352 353 353 350
355 357 360 360 364 368 365 357 352 356 354 354 356 353 355 355 350 350 349 348 348 348 345 346 343 341 342 343 344 344 345 344 343 344 349 348 347 348 346 345 346 346 349 353 353 353 353 350 346
355 352 361 369 364 359 356 355 354 354 354 353 353 356 353 352 351 349 349 347 348 348 345 345 341 341 342 342 344 344 343 344 343 345 349 349 346 346 340 344 346 346 350 353 353 351 345 344 343
353 357 370 370 358 354 353 356 355 355 355 355 354 358 355 349 349 350 347 349 349 347 345 346 345 345 344 342 344 343 344 344 343 344 348 350 346 344 341 345 343 346 350 352 349 344 343 337 340
359 360 366 358 352 351 351 353 353 354 356 355 354 354 352 350 350 348 348 350 349 346 346 348 347 349 346 344 346 349 347 344 342 345 346 346 341 338 343 343 344 346 350 349 345 343 341 339 339
355 355 355 352 343 351 353 351 354 354 356 356 351 356 352 349 348 349 348 350 350 348 347 348 349 352 350 349 350 350 349 345 343 346 344 340 339 341 341 345 342 341 343 342 342 342 342 343 342
350 351 354 352 349 343 346 350 352 352 356 350 349 356 355 349 349 349 349 350 347 349 348 347 349 351 351 351 351 350 349 347 345 345 342 336 338 337 343 348 349 344 341 340 342 342 342 348 347
346 350 358 351 347 340 340 352 351 351 354 352 350 350 350 349 349 349 350 350 351 351 351 351 349 349 350 345 352 351 347 344 343 341 336 337 348 351 350 349 349 346 343 347 344 343 346 348 349
343 346 350 347 344 339 341 351 351 355 354 353 352 350 350 350 349 349 350 350 352 352 352 352 351 350 349 347 351 343 339 337 338 338 337 345 345 350 351 348 342 345 343 343 342 345 346 348 347
341 341 344 344 343 342 339 339 342 351 356 353 353 354 352 351 349 349 350 350 352 351 352 353 353 352 350 351 342 341 340 343 346 348 350 348 349 349 349 345 348 348 333 341 344 347 349 348 346
343 341 341 344 343 341 339 338 343 343 349 351 350 351 352 351 349 349 349 350 351 351 353 352 352 352 352 352 346 339 346 347 348 348 350 354 351 349 348 346 349 347 342 348 347 346 350 349 346
336 339 341 344 342 340 339 340 342 343 350 350 349 349 352 351 350 349 349 348 349 353 352 352 354 350 354 353 345 348 349 349 349 350 350 348 348 351 348 348 349 347 347 348 347 349 347 345 347
333 334 338 337 342 341 341 342 343 346 351 351 351 349 351 352 351 351 350 349 348 353 353 351 348 347 351 349 350 351 352 351 351 351 351 349 351 351 352 352 351 350 349 350 349 346 346 345 345
331 331 332 333 334 342 344 345 345 344 347 352 352 351 350 348 350 346 349 349 351 353 353 352 348 351 349 350 351 352 350 348 346 350 349 350 350 349 351 351 351 349 350 348 349 349 348 343 343
330 328 329 331 333 334 341 349 345 340 347 350 351 352 351 349 347 347 348 349 351 352 354 353 351 350 348 350 354 353 352 350 348 351 351 351 350 350 351 349 349 349 350 347 350 348 349 342 340
326 327 329 330 333 337 341 344 342 339 345 346 349 349 350 349 347 348 349 350 348 351 353 354 353 350 349 351 353 352 350 349 350 349 350 353 352 351 347 349 350 349 350 350 350 348 344 341 336
326 328 328 331 335 337 341 342 343 341 342 345 346 346 347 348 348 349 347 348 349 351 353 354 355 353 350 349 350 351 347 348 351 350 350 350 350 351 349 351 352 351 351 349 346 344 341 337 340
327 328 330 331 337 347 347 346 345 338 342 343 345 345 346 346 345 349 348 348 350 350 351 352 353 355 354 350 355 349 350 352 352 351 350 349 350 350 351 351 350 351 349 348 344 341 339 336 338
326 328 329 331 338 345 347 347 344 339 337 341 344 345 345 346 345 347 348 348 351 352 351 350 350 357 356 354 352 349 356 356 352 348 345 350 352 353 350 348 347 349 352 347 343 337 338 338 337
326 327 329 331 339 343 347 350 345 341 343 342 343 343 344 345 345 347 347 348 349 352 353 351 349 352 358 355 354 353 353 354 356 353 353 354 354 352 351 351 349 351 347 346 341 338 339 337 341
327 328 330 331 333 345 346 353 351 351 353 348 347 342 343 344 345 346 347 348 348 353 354 353 351 350 356 358 356 354 352 352 354 354 352 352 353 352 353 352 351 351 340 340 339 342 339 341 337
325 329 330 331 332 340 341 341 349 350 351 346 346 342 341 342 343 346 348 348 349 351 354 356 354 353 353 356 357 355 353 350 353 353 355 354 355 354 354 352 350 350 341 341 341 339 335 340 339
324 326 329 330 331 335 339 342 343 352 350 347 346 344 342 341 342 345 347 349 349 352 356 358 358 356 357 357 357 355 354 354 354 353 352 353 355 350 350 351 352 348 339 338 341 340 335 339 340
323 321 327 330 333 333 335 341 344 342 343 346 347 345 346 344 342 342 347 349 350 353 356 359 360 360 361 359 356 358 358 356 354 349 354 356 355 353 355 354 349 347 337 342 341 338 338 338 336
322 321 325 330 333 333 332 337 342 341 343 344 345 345 345 346 343 342 346 348 350 352 356 360 361 360 361 362 359 355 359 357 353 351 358 354 353 354 351 351 349 347 340 342 341 341 339 339 333
323 322 322 323 328 330 332 331 332 342 341 343 343 346 346 342 342 344 345 347 350 351 357 358 363 362 363 363 362 360 356 358 356 353 351 355 354 355 354 349 348 346 343 336 343 341 339 339 336
323 324 322 323 325 330 331 333 337 342 343 343 344 342 343 342 343 344 344 347 350 352 355 357 363 363 364 362 364 362 360 357 356 358 355 353 353 350 350 350 348 346 344 341 339 341 339 335 338
325 322 321 321 324 327 332 332 332 337 344 344 342 342 342 343 342 345 346 348 351 352 355 357 361 364 364 364 363 364 362 361 357 358 360 352 354 351 349 350 347 347 345 341 341 341 339 337 336
325 323 321 323 324 326 325 328 330 331 342 343 342 340 339 337 343 345 346 347 352 352 353 357 363 364 364 365 365 365 364 363 362 359 359 355 353 353 351 350 348 348 347 343 340 341 340 336 339

GFSSGP_925_thetae_018.txt.gz
Theta_e
351 350 351 349 365 362 365 364 356 358 357 353 354 358 357 355 356 359 346 346 344 345 345 344 345 348 349 348 343 342 341 340 347 344 340 344 342 352 351 351 352 352 352 352 352 353 352 347 345
351 352 347 351 366 367 363 359 360 356 354 354 354 354 355 357 350 349 347 345 346 344 346 346 346 348 350 346 343 346 345 348 349 344 343 341 345 348 352 352 352 352 352 352 352 352 353 349 343
354 343 350 353 363 365 363 357 357 354 355 355 357 352 353 354 349 348 345 347 346 345 346 348 347 348 349 347 346 345 345 346 347 344 339 341 345 351 352 352 350 348 350 352 352 350 347 347 344
356 351 353 371 364 359 358 354 355 356 354 352 352 357 351 349 349 348 348 347 346 345 345 348 347 348 349 351 348 344 341 340 345 343 341 346 350 353 351 347 347 350 349 350 349 343 340 343 344
351 357 364 365 364 356 354 354 354 356 356 355 353 359 355 350 348 348 348 348 345 344 344 345 344 342 344 348 347 344 340 340 343 343 345 345 348 350 346 343 343 346 348 350 346 344 341 341 343
357 358 362 358 352 356 355 354 354 355 355 354 354 353 351 348 348 348 347 348 344 343 345 344 343 341 343 347 347 342 341 341 344 342 345 344 345 343 344 343 344 346 349 347 345 343 343 343 343
350 353 356 350 359 359 357 352 355 355 356 354 350 354 350 349 349 348 348 348 344 344 347 349 349 350 349 346 346 342 341 342 341 341 342 343 341 341 345 346 345 344 347 345 342 342 344 345 343
347 347 353 349 350 358 354 353 353 353 354 350 350 356 355 349 348 349 349 349 345 346 347 349 351 351 347 350 353 350 344 342 339 339 340 340 338 340 348 350 349 346 343 341 342 345 346 348 349
349 348 352 348 349 355 352 354 352 350 352 352 351 350 349 348 347 348 348 347 347 346 346 347 350 352 349 349 353 352 349 343 339 337 336 337 344 350 349 348 347 345 342 341 342 345 346 347 347
347 345 346 346 346 348 352 353 354 353 353 353 352 349 348 348 348 348 347 348 348 349 348 346 348 349 350 347 351 346 343 340 336 335 335 344 347 350 350 347 341 343 342 341 345 345 346 347 345
344 345 343 342 345 346 352 354 352 354 355 353 354 351 349 349 349 349 348 349 349 350 349 348 347 347 347 341 344 340 337 336 335 335 343 346 349 350 345 347 346 347 333 344 344 347 345 347 346
336 339 340 343 343 342 351 353 354 353 353 350 351 349 349 348 348 349 349 350 350 351 351 349 346 345 343 337 339 337 335 336 340 344 349 349 349 348 347 345 347 345 343 347 344 346 348 347 345
333 336 341 343 341 338 340 349 355 353 350 349 350 350 349 348 347 347 349 349 351 351 352 351 350 345 343 340 338 337 338 341 344 347 349 350 350 349 346 348 348 346 347 346 346 348 347 348 347
330 331 332 339 342 340 338 342 345 350 349 353 352 351 350 349 347 347 348 349 349 351 352 352 351 351 348 350 347 340 343 346 347 348 348 350 350 350 348 349 349 349 349 349 350 348 347 346 343
329 329 329 330 340 341 342 345 353 351 350 354 354 352 351 349 348 348 347 348 350 351 352 352 351 352 351 353 352 345 349 349 349 349 350 351 351 351 350 350 351 349 350 350 348 347 347 342 338
326 326 327 328 331 341 339 346 351 351 351 352 354 353 351 349 349 348 348 347 348 351 352 351 352 351 352 352 349 353 353 350 351 350 351 351 350 351 349 348 347 349 349 349 348 347 348 343 338
322 325 326 326 333 343 341 343 342 351 351 352 351 353 353 351 349 349 349 348 348 351 352 351 353 350 349 349 350 352 352 350 350 350 350 351 349 349 350 347 347 350 350 349 348 348 345 339 335
324 325 324 326 329 341 341 341 342 353 352 353 352 350 350 350 350 348 346 348 349 352 352 352 349 347 349 349 353 350 352 349 350 350 349 351 351 351 349 348 349 350 350 349 349 345 341 336 337
323 324 325 326 330 340 342 341 342 348 352 353 352 351 350 349 347 346 347 348 350 351 352 353 352 349 350 349 354 352 350 349 348 352 350 351 351 351 349 349 351 352 350 348 345 341 338 335 337
322 323 324 325 327 340 342 342 341 344 347 350 350 350 350 349 347 345 346 347 348 351 353 353 353 351 350 350 351 351 348 348 346 350 352 351 349 349 350 350 351 350 350 347 345 341 334 338 339
321 321 323 324 326 343 344 346 344 339 338 343 346 346 347 348 347 346 346 348 349 352 353 353 353 352 351 350 349 350 349 348 352 353 352 350 348 351 350 352 349 347 350 349 345 336 336 337 341
321 323 323 325 327 329 341 346 349 345 345 343 344 343 345 345 345 345 346 346 349 351 352 352 354 354 353 353 350 352 350 354 355 355 352 348 349 352 353 350 349 349 349 346 344 338 336 338 339
323 322 325 326 326 327 333 342 344 344 347 345 343 342 343 343 344 344 346 347 347 350 351 351 352 355 355 354 353 353 351 352 353 353 354 353 353 353 353 351 351 350 348 340 339 338 339 338 336
324 321 322 325 326 328 329 343 340 350 345 345 344 344 342 343 343 343 345 346 346 349 351 351 351 355 355 356 355 353 352 352 350 349 353 354 354 355 353 352 352 349 347 341 339 338 337 338 337
320 317 319 322 324 329 326 336 340 342 344 344 344 341 342 342 342 343 344 345 346 347 351 353 352 352 356 357 356 355 354 353 351 348 350 354 355 355 354 353 352 350 348 340 338 340 339 336 338
318 318 320 322 325 326 326 333 335 338 344 344 342 340 341 340 342 343 343 345 346 347 351 354 354 353 355 357 356 355 355 353 350 349 350 352 353 354 353 351 351 350 348 338 337 339 338 337 336
322 317 318 318 322 324 327 328 328 333 342 344 343 342 342 340 340 341 342 345 346 347 352 354 355 354 356 356 356 355 354 354 352 352 355 354 354 353 353 351 353 352 348 342 335 340 339 338 337
320 319 320 314 320 322 323 328 330 330 335 339 343 344 343 342 342 342 340 344 347 347 352 354 356 356 357 357 356 355 355 356 354 355 354 353 355 354 352 353 353 351 348 342 334 338 339 339 337
323 321 318 317 316 321 322 324 324 327 330 338 343 344 344 343 341 342 341 343 346 348 352 355 357 356 357 359 358 357 355 355 356 356 355 353 352 355 353 352 351 349 347 344 336 337 340 340 334
324 322 317 320 319 319 322 324 328 326 327 337 342 344 344 343 342 340 341 341 345 349 351 355 358 357 357 359 359 359 358 357 355 355 354 354 356 354 354 353 352 349 347 345 341 338 339 339 336

GFSSGP_925_thetae_021.txt.gz
Theta_e
350 351 350 350 363 360 366 363 357 356 356 354 353 353 356 353 355 357 345 345 345 344 343 344 345 350 351 351 348 342 338 338 337 337 343 347 345 348 351 350 351 351 350 351 352 351 350 347 347
350 351 346 352 364 364 363 358 359 356 355 353 353 353 355 356 349 347 346 344 344 343 343 344 347 348 352 350 346 342 345 342 339 341 351 351 352 351 352 351 351 349 350 352 352 352 352 347 344
353 345 348 356 361 364 362 357 357 357 355 356 354 351 352 355 347 346 345 344 345 344 344 346 347 348 351 352 347 348 350 344 341 345 344 346 347 350 351 350 350 351 351 352 350 351 350 344 343
348 350 353 363 364 359 358 356 354 358 354 351 352 356 351 347 347 346 346 345 345 345 344 349 348 351 351 351 349 348 347 346 343 340 343 343 345 352 351 347 348 349 349 349 348 347 347 345 343
353 355 363 364 359 358 353 355 355 356 355 352 352 355 353 348 347 346 347 345 345 347 348 348 350 350 351 350 347 344 345 341 343 342 343 344 351 352 347 346 347 347 348 347 346 346 344 342 344
355 355 365 358 351 353 353 354 354 356 355 353 353 353 352 348 347 347 347 345 345 347 349 347 349 350 351 351 345 343 340 340 341 344 345 346 349 346 345 347 348 348 346 345 344 344 342 342 344
350 355 357 350 358 359 356 352 355 355 353 352 348 354 349 347 347 347 346 344 344 345 346 348 350 350 351 347 344 343 340 339 340 343 344 344 343 344 346 345 345 343 343 343 342 344 344 343 344
349 347 352 351 360 356 354 353 352 352 354 347 348 354 353 347 347 347 347 344 344 345 343 345 347 351 349 348 347 345 341 338 339 341 341 340 340 346 349 349 346 344 341 341 344 345 347 347 348
349 347 350 346 348 356 352 355 352 349 351 349 350 348 346 347 347 347 348 347 348 348 345 345 347 350 346 346 350 350 342 339 339 339 338 339 343 347 348 348 345 344 342 341 344 345 345 345 346
352 346 347 342 344 354 353 354 353 353 353 353 351 348 348 348 348 348 348 347 349 349 349 348 350 349 344 346 350 349 345 340 338 336 336 340 347 349 348 345 343 342 341 341 344 345 344 345 345
352 351 343 343 344 351 353 354 350 354 355 352 352 351 348 347 348 348 347 347 347 348 348 349 350 350 346 347 348 346 344 340 336 335 336 343 347 348 346 346 344 345 335 342 345 346 345 346 343
338 346 346 342 345 350 353 351 352 352 350 349 348 348 347 347 347 347 347 347 346 348 347 347 348 350 349 346 344 340 340 337 335 334 337 341 347 348 349 345 344 344 343 345 344 345 345 344 339
339 336 334 340 339 349 350 354 353 351 350 348 348 347 348 347 347 348 347 348 348 348 347 346 347 346 346 342 339 338 337 336 335 336 344 348 348 347 348 346 346 345 345 346 345 346 346 347 345
327 328 329 332 336 343 353 354 352 351 349 350 349 349 348 348 347 348 348 348 349 349 349 347 347 345 344 338 337 336 337 336 337 342 348 349 350 348 347 346 348 348 347 348 346 346 347 345 342
326 328 326 327 330 342 350 352 356 351 350 352 351 349 349 348 347 348 348 348 349 350 350 350 346 345 343 337 336 337 337 338 340 345 347 348 349 350 348 348 349 348 349 347 344 348 347 340 337
325 324 327 327 328 339 342 348 353 349 352 353 352 351 349 348 346 346 348 348 349 350 351 351 349 347 343 341 341 345 342 343 347 347 348 348 349 350 350 349 350 348 349 347 348 348 346 343 337
320 325 325 325 325 339 339 341 352 350 353 353 352 352 351 349 347 346 346 347 349 350 350 351 351 349 349 347 350 351 348 349 350 350 350 350 350 351 349 349 348 349 349 348 348 348 346 340 334
324 324 323 325 331 340 341 341 353 351 354 355 353 353 352 350 349 347 346 346 347 349 350 351 351 350 350 349 351 352 353 350 348 349 349 350 351 350 349 349 347 347 349 349 348 348 343 336 336
323 323 323 324 330 340 341 340 353 352 352 355 354 353 352 350 347 348 347 347 346 349 350 351 351 351 351 351 352 351 351 351 350 350 349 349 350 350 350 349 348 347 349 349 348 344 340 336 337
321 322 322 322 325 330 333 339 347 353 352 352 353 354 353 351 349 348 348 348 347 348 350 350 351 351 352 350 350 351 352 352 350 349 350 350 350 350 351 349 348 350 351 349 347 342 337 335 338
320 320 322 322 324 333 340 342 342 353 352 351 350 349 350 350 349 349 346 345 348 348 350 350 351 350 350 349 350 353 352 350 350 348 351 350 350 351 350 350 349 350 350 349 346 343 336 336 339
321 320 322 322 323 324 338 346 343 340 355 353 351 351 350 348 347 345 346 346 347 348 350 351 351 351 350 349 350 351 351 350 349 347 347 351 351 350 349 350 350 349 348 348 348 344 334 336 338
324 322 322 323 322 324 328 337 337 340 345 347 348 348 349 348 347 346 344 346 346 348 350 351 351 351 350 350 350 350 350 348 347 346 347 351 352 348 349 351 351 348 347 350 348 342 337 337 337
323 322 319 320 320 323 324 329 329 345 342 342 342 345 346 346 346 346 345 345 347 348 350 351 351 351 351 350 350 350 350 349 347 349 353 353 353 352 352 351 352 350 348 347 343 339 338 337 336
321 317 320 319 321 324 320 327 328 335 342 341 341 342 343 343 344 344 344 344 345 348 350 351 350 352 352 351 351 351 351 350 349 349 353 353 351 353 354 352 352 351 350 347 342 339 337 336 337
319 319 317 319 320 322 321 326 327 331 337 341 341 340 341 342 342 343 343 343 345 346 349 350 350 352 353 353 352 352 352 351 350 350 350 349 349 351 353 354 352 351 350 347 344 339 338 338 336
319 320 318 316 319 319 322 325 325 328 332 336 340 341 341 341 341 342 342 342 344 345 347 350 349 350 354 354 354 353 352 351 351 351 351 351 346 352 353 353 353 352 351 348 344 337 338 339 336
322 317 320 311 320 322 319 323 324 327 329 334 340 339 339 340 340 341 341 342 343 344 345 349 350 350 351 354 354 353 353 353 352 352 352 350 346 352 351 352 353 351 351 349 346 337 337 338 338
319 320 316 314 314 321 320 321 320 326 327 331 336 341 340 339 339 340 341 341 342 344 345 348 351 350 350 353 354 353 353 353 353 353 352 350 349 353 353 353 353 350 350 350 346 340 336 338 338
320 321 316 319 318 314 319 321 323 323 324 325 330 335 339 340 339 339 340 340 341 344 344 348 350 351 351 352 353 353 353 354 354 353 353 350 350 352 353 354 353 351 351 352 347 343 338 337 338

GFSSGP_925_thetae_027.txt.gz
Theta_e
351 352 351 350 365 360 365 363 355 356 355 353 351 352 354 355 355 361 347 346 345 346 345 345 346 351 349 349 348 344 342 347 342 344 350 351 351 351 350 351 349 350 351 351 351 350 346 345 344
353 351 349 352 366 366 365 359 357 355 355 352 352 353 355 356 347 348 347 345 345 346 345 347 349 351 352 350 343 343 350 346 341 347 349 350 351 351 351 351 347 346 345 350 350 349 344 343 341
352 349 352 359 362 364 363 359 355 356 353 353 355 352 353 354 348 347 346 344 345 346 347 348 349 348 349 347 344 347 350 344 348 351 351 348 348 351 351 351 346 346 348 351 351 349 345 344 343
350 345 352 363 359 358 358 357 357 357 354 352 353 356 349 348 347 347 345 345 346 346 347 348 350 350 350 350 348 351 347 351 351 350 346 348 351 352 352 350 348 347 350 349 347 346 344 343 344
350 355 363 362 355 357 355 355 356 356 355 354 352 353 353 347 347 346 346 345 346 346 348 350 350 349 350 351 351 350 346 345 347 347 348 352 352 351 351 352 349 349 351 345 343 342 342 344 345
359 354 359 357 354 356 356 355 355 356 355 352 351 352 352 347 346 346 346 345 346 346 348 350 350 348 350 355 352 345 343 344 345 346 349 351 348 348 350 352 353 353 351 344 342 342 343 344 344
356 355 356 353 358 358 357 354 356 356 354 352 349 354 350 347 347 347 346 345 346 347 348 348 350 351 351 352 349 344 343 343 345 345 347 347 347 346 346 345 347 349 346 345 344 344 345 345 344
354 351 356 353 361 359 356 354 353 353 353 347 347 354 352 348 347 347 347 346 347 348 348 348 348 349 349 349 346 344 341 342 344 342 342 345 346 348 349 347 344 342 343 345 345 344 342 342 343
350 358 356 349 356 352 354 357 351 349 351 348 348 348 346 347 347 347 348 348 349 349 348 347 348 350 351 350 350 348 341 342 343 342 340 345 351 351 351 346 344 344 342 344 345 342 342 344 344
361 360 352 346 346 349 355 355 354 353 351 351 351 347 346 347 347 347 348 348 348 349 349 347 347 348 349 348 351 351 350 348 349 349 350 352 349 348 348 348 343 343 342 342 344 343 345 346 345
361 356 352 345 343 347 355 355 352 353 353 351 352 350 347 347 346 346 346 346 346 346 347 347 348 349 348 348 349 350 349 349 348 344 344 348 346 346 349 350 346 344 337 342 347 348 349 347 342
358 352 348 346 344 352 355 353 354 351 348 346 349 347 347 348 347 346 346 346 346 346 346 346 347 349 349 349 348 349 349 349 348 347 337 342 348 348 348 349 345 342 342 344 344 348 345 344 338
356 347 344 344 341 338 352 355 354 353 348 348 348 347 347 347 346 346 345 345 345 345 345 347 348 349 350 350 349 349 351 348 348 345 337 343 346 345 347 346 344 344 345 346 346 343 348 347 343
335 335 332 331 331 333 350 350 353 353 350 350 349 348 347 347 346 346 345 345 345 345 346 347 348 349 350 349 349 350 351 349 348 345 339 337 342 346 346 346 345 346 346 347 346 347 349 343 340
324 324 325 326 329 331 340 349 354 352 351 351 349 349 348 347 346 346 347 347 346 346 347 348 349 350 351 350 347 349 349 347 346 344 335 338 344 347 348 348 346 349 348 347 345 346 346 344 335
325 326 328 328 328 330 338 335 345 352 352 353 350 349 349 348 347 347 348 348 348 347 348 348 348 349 351 351 350 349 348 346 344 344 337 338 344 347 347 348 348 350 348 347 349 345 345 347 337
324 328 328 329 329 337 341 337 342 352 353 354 351 350 350 349 348 348 348 348 348 349 348 348 349 349 350 351 350 349 345 344 344 344 343 340 343 346 347 350 350 348 350 351 348 350 348 344 340
324 325 326 328 329 331 341 342 343 353 353 355 353 351 351 350 349 347 348 348 349 349 349 349 349 349 350 350 349 348 347 344 344 344 345 343 346 347 347 350 348 349 350 351 350 348 346 339 340
322 324 327 327 327 333 334 338 345 354 354 355 354 353 351 351 348 347 347 348 348 349 350 351 351 351 350 349 348 347 345 345 347 348 344 346 348 348 349 351 350 349 350 351 348 348 345 341 337
321 323 325 326 326 329 333 339 342 352 355 355 355 354 352 351 350 348 348 348 349 349 350 351 352 352 350 350 348 346 345 346 350 352 351 349 348 348 349 350 352 351 351 348 350 346 343 339 339
323 322 323 326 326 326 332 333 340 349 351 353 354 353 352 352 352 350 349 348 349 349 351 351 351 352 351 349 350 349 350 350 352 353 353 348 348 348 348 349 351 350 350 352 351 347 343 340 341
324 322 323 324 326 329 331 335 338 339 352 353 354 354 353 352 351 351 350 348 348 349 350 350 351 352 353 351 351 350 349 348 350 352 353 352 349 348 348 349 350 349 352 352 351 347 344 338 340
324 324 324 324 326 327 328 332 334 343 348 352 353 353 353 352 352 352 351 349 348 348 349 350 351 351 351 352 351 352 351 350 351 352 352 351 350 348 349 349 350 350 351 351 349 347 345 341 338
325 325 324 324 326 328 328 329 333 336 342 348 351 352 353 352 352 352 350 350 349 349 348 349 351 351 351 352 352 352 352 351 351 352 351 351 352 352 349 350 350 351 351 350 350 346 347 343 337
325 325 326 326 326 327 328 329 331 332 338 336 346 351 351 353 353 353 353 351 351 350 349 348 350 351 351 351 352 352 352 352 351 351 352 351 351 351 352 349 350 352 348 350 349 347 347 344 340
325 325 324 324 324 324 328 329 330 330 331 338 339 346 350 351 351 352 354 353 352 351 350 350 350 351 351 351 351 351 351 352 351 350 351 352 351 351 351 348 349 349 349 350 350 348 346 343 340
324 327 324 323 322 324 325 326 327 328 330 334 339 340 347 350 351 351 353 352 351 352 350 350 350 351 351 351 351 351 351 351 352 350 349 351 351 351 353 347 349 350 351 351 351 348 346 342 338
323 324 324 324 324 324 325 327 328 333 332 332 335 339 341 342 348 350 352 351 350 349 350 350 350 351 352 352 351 351 351 351 351 351 350 350 350 350 351 351 351 350 350 352 351 350 347 343 341
322 324 324 325 324 324 323 323 328 333 337 335 334 335 338 340 342 345 349 350 350 348 349 350 351 352 352 352 352 351 352 351 351 351 351 350 350 350 351 351 350 352 349 352 352 351 348 345 344
325 325 325 326 328 325 325 324 325 329 331 333 333 334 337 341 343 343 344 346 347 349 348 349 350 351 352 352 352 352 352 352 352 352 351 350 350 350 350 351 351 353 351 351 352 351 349 347 346

GFSSGP_925_thetae_030.txt.gz
Theta_e
349 351 352 353 365 366 366 362 355 357 358 353 353 354 357 357 357 368 348 349 348 346 348 349 348 347 345 346 349 348 347 345 347 350 352 352 349 349 351 351 352 352 352 351 351 350 350 349 350
351 352 351 355 369 369 365 359 358 358 356 353 354 354 356 357 350 351 350 349 348 349 348 350 349 348 347 350 351 348 351 349 349 351 352 351 351 349 351 348 352 350 352 351 350 350 348 348 345
353 350 356 363 362 365 363 358 359 357 354 354 357 355 356 355 350 348 349 349 349 346 350 350 350 350 352 351 347 345 350 351 350 351 351 351 352 351 349 345 347 350 351 351 350 347 346 343 342
352 349 352 368 359 357 357 357 357 359 356 354 355 359 352 350 350 349 348 348 347 349 349 348 352 353 352 351 349 351 351 351 352 351 352 352 352 352 348 347 348 351 348 347 346 346 347 344 344
351 356 364 359 355 356 355 356 357 357 357 356 355 357 354 349 349 348 347 348 348 349 348 349 350 349 350 351 351 351 352 352 352 351 352 352 352 352 349 348 351 349 345 344 343 343 344 344 345
363 355 360 352 353 356 356 355 355 356 357 355 356 356 355 349 348 347 347 347 347 348 347 347 348 348 347 351 352 351 351 349 351 351 353 352 352 352 352 351 353 350 345 343 343 344 344 344 344
361 356 356 353 356 354 357 354 355 357 356 354 352 358 354 350 348 348 347 347 347 348 345 346 346 350 350 351 351 351 351 349 351 352 349 348 347 349 348 348 350 351 350 347 346 346 346 345 344
358 355 356 355 355 356 356 355 354 354 355 350 350 357 357 349 348 347 347 347 347 347 345 345 346 348 349 349 352 352 351 350 346 346 346 345 347 348 346 345 343 349 346 346 344 344 344 343 343
355 360 354 351 353 354 355 357 353 350 352 351 350 351 350 349 348 348 347 348 348 347 344 344 345 347 348 348 348 349 348 348 343 342 344 349 352 352 351 347 343 344 343 344 341 342 344 345 342
358 357 350 346 345 348 354 355 355 353 352 352 352 350 349 350 348 348 348 349 349 348 345 344 345 346 347 346 348 348 346 344 347 348 350 352 353 353 351 348 343 343 342 344 341 344 345 342 338
355 354 347 343 343 346 354 355 354 352 353 352 355 353 351 350 350 350 349 349 350 349 345 344 345 347 347 346 348 347 346 346 348 351 353 353 352 352 352 351 348 348 342 348 349 349 348 342 340
354 348 347 345 342 344 350 353 355 353 349 349 351 351 351 351 351 349 349 349 349 349 346 345 345 347 347 346 346 346 346 346 345 345 351 352 352 352 353 350 349 348 347 349 349 348 348 346 344
353 346 342 344 342 339 340 350 352 353 350 349 350 350 351 351 350 349 348 348 348 348 348 347 347 348 347 348 345 345 346 346 344 346 348 351 351 352 352 353 350 351 350 349 349 347 348 347 345
340 344 342 337 334 335 335 346 349 350 351 351 351 351 350 350 349 348 347 347 347 347 346 346 347 348 348 348 349 348 348 347 347 345 345 350 351 353 352 351 350 350 351 351 348 348 349 345 343
338 330 329 330 331 333 335 342 347 347 353 354 352 351 350 350 348 348 347 347 347 346 345 346 347 348 349 350 351 350 348 347 346 344 346 348 351 354 355 352 351 351 353 350 350 348 348 345 341
330 330 333 335 332 332 333 341 342 347 354 355 353 351 350 349 348 347 347 346 346 346 346 347 347 348 350 350 351 349 348 347 344 343 345 348 350 354 355 351 350 352 352 350 351 348 346 343 341
329 335 337 337 333 335 335 339 339 346 352 354 355 352 351 350 348 347 346 346 346 347 348 349 349 349 350 352 351 350 349 347 343 342 345 348 350 353 355 354 353 355 352 352 350 349 348 342 341
332 332 336 338 336 334 338 340 340 348 350 353 355 353 352 351 350 347 347 347 349 349 350 351 351 351 352 352 353 350 348 345 343 344 345 348 351 352 355 354 352 351 352 351 351 348 347 344 342
331 332 334 335 334 334 336 338 338 344 350 351 355 354 354 353 350 347 348 348 349 350 351 351 352 352 353 352 351 349 346 344 343 344 347 350 353 355 357 354 353 354 352 351 351 350 349 343 342
327 329 331 333 332 332 337 338 338 341 350 351 354 355 355 353 351 349 348 348 348 350 351 352 352 353 353 352 351 347 345 344 344 345 349 353 355 357 357 355 353 354 353 353 354 350 346 343 336
326 328 330 331 332 331 332 335 336 337 348 350 352 353 353 354 353 351 349 348 348 349 351 352 354 354 355 352 352 350 347 346 347 347 352 355 357 357 358 352 351 355 352 352 354 352 349 342 339
326 325 326 327 330 333 333 339 339 338 343 347 350 353 353 354 353 352 350 349 348 349 351 352 355 356 357 355 351 351 347 346 346 348 351 353 356 356 357 354 355 358 354 354 354 353 350 348 338
325 324 325 325 327 330 332 335 336 338 338 341 345 349 352 353 353 354 352 349 349 349 350 352 354 356 356 357 352 353 352 348 346 348 350 355 356 356 355 357 358 358 356 355 357 354 352 348 339
324 324 325 326 325 329 331 334 336 337 340 339 342 346 351 352 353 353 352 349 349 349 351 352 355 357 357 357 357 356 355 353 349 350 351 352 352 354 356 356 358 358 357 357 357 356 353 350 344
325 327 328 327 327 328 330 332 334 335 336 338 339 342 350 352 352 353 354 354 350 350 351 352 354 357 357 357 357 357 357 357 355 354 354 352 351 350 351 357 357 356 359 357 357 357 353 352 348
326 326 326 328 326 326 328 330 332 333 334 334 337 337 345 350 352 353 354 353 353 351 352 352 354 357 357 356 358 358 358 356 357 356 354 354 351 351 351 355 356 357 357 357 357 357 354 351 349
328 329 326 326 326 327 327 328 329 331 333 334 334 336 337 347 352 353 353 353 353 354 354 355 355 358 358 357 358 359 358 357 354 355 357 354 354 352 353 354 357 356 357 357 358 356 355 349 349
327 327 327 326 329 329 326 328 329 331 332 334 334 336 338 345 351 352 353 353 353 354 354 355 356 357 358 357 357 358 358 358 357 357 357 356 354 355 353 356 356 356 357 358 358 355 355 353 348
326 327 327 327 327 328 328 328 330 330 332 333 334 336 338 343 349 350 351 351 352 353 354 355 356 357 357 357 358 358 357 357 358 357 357 357 356 356 357 356 356 355 357 358 359 357 354 355 352
327 327 328 328 331 328 329 328 328 328 329 332 333 335 337 340 342 344 347 349 350 352 353 354 355 355 356 357 359 359 358 358 357 358 358 358 357 357 357 357 357 356 356 357 358 358 354 355 354

GFSSGP_925_thetae_033.txt.gz
Theta_e
349 351 353 352 367 367 371 366 355 358 358 355 353 358 359 358 363 366 344 341 336 339 344 348 348 353 351 350 350 349 349 352 352 352 353 351 348 351 352 353 353 353 352 352 352 350 350 351 350
350 353 354 360 371 374 367 358 361 358 356 354 354 355 357 359 353 353 347 339 343 341 346 346 349 349 352 351 351 351 352 352 351 350 348 348 348 352 352 353 351 353 352 351 351 350 350 349 348
351 353 359 365 371 371 367 359 359 357 355 355 357 355 357 357 352 352 348 349 346 346 350 350 348 349 352 352 352 351 352 352 351 352 349 347 347 345 351 352 353 352 352 352 350 350 349 347 348
353 353 355 367 368 360 359 358 358 357 355 354 356 359 355 351 351 351 349 348 350 350 349 349 351 352 352 353 352 350 352 352 352 353 352 352 349 347 353 351 353 350 351 351 351 350 350 349 348
353 356 369 371 357 356 355 356 356 357 356 356 357 360 358 351 350 350 349 350 347 351 351 351 351 353 352 352 351 353 352 351 352 353 352 353 353 352 354 352 352 351 351 351 350 350 350 349 348
363 361 368 364 355 354 354 354 355 356 356 356 359 358 357 351 350 350 349 347 350 350 346 351 353 350 351 353 353 352 353 352 353 353 353 353 353 353 353 354 353 351 351 349 348 346 345 344 343
363 364 365 351 350 353 354 352 355 355 356 356 354 361 355 351 350 349 349 350 349 346 346 349 350 351 353 352 353 352 353 352 353 354 353 352 351 346 345 348 352 352 350 348 347 345 344 342 342
358 359 358 356 356 352 348 350 350 353 356 353 354 361 359 351 348 348 349 349 349 346 344 344 346 348 349 349 352 353 353 353 353 354 352 347 346 343 343 343 345 346 346 345 346 343 342 343 340
354 362 360 349 350 351 348 348 349 350 354 353 352 355 353 350 349 349 348 348 348 345 343 342 345 347 349 348 350 352 352 353 349 344 344 348 352 352 352 351 342 344 345 343 341 342 343 344 340
355 361 360 347 345 350 350 346 348 351 352 353 354 354 351 350 349 349 349 348 348 345 343 343 344 346 347 345 349 348 347 346 349 350 348 352 353 351 351 346 342 343 344 342 342 344 345 345 347
352 360 356 345 344 349 349 349 346 348 352 352 357 356 352 351 349 348 349 348 348 345 344 344 344 345 345 345 345 346 344 345 348 352 353 353 351 352 348 347 347 348 344 346 348 349 349 341 342
351 350 350 345 343 345 348 348 350 347 346 350 353 353 353 352 351 350 350 349 349 347 344 344 345 346 345 346 345 345 344 345 345 348 354 353 352 350 352 351 350 349 347 350 349 349 348 347 343
349 348 347 346 344 342 344 349 351 350 346 348 351 353 354 353 351 349 349 349 349 347 345 344 345 347 347 348 345 345 345 344 344 347 351 351 351 351 351 351 350 350 349 349 349 348 348 347 342
346 346 346 344 343 341 340 347 349 351 349 351 352 353 353 352 351 350 349 348 348 347 346 345 346 348 349 348 348 346 345 345 345 344 347 353 351 352 351 350 350 349 351 351 350 350 349 347 344
345 341 345 345 340 338 338 344 348 350 352 353 352 353 352 352 350 350 349 348 348 347 346 346 347 349 349 349 350 349 347 346 345 345 346 351 352 354 354 352 350 350 352 352 351 351 350 343 342
342 342 341 339 338 337 337 342 344 347 352 355 353 351 352 352 350 349 348 348 347 347 347 347 347 348 350 349 350 349 347 346 346 344 345 350 353 356 356 353 350 351 352 348 349 346 344 344 338
334 339 340 339 338 338 338 340 342 346 350 354 354 353 351 351 350 349 348 348 347 348 348 348 347 347 349 350 351 351 348 348 345 343 344 351 352 354 357 353 352 353 352 349 346 347 345 340 339
335 336 339 341 340 338 338 339 341 344 348 351 355 354 352 351 351 349 348 348 347 347 348 349 349 349 350 351 352 351 348 348 346 343 343 351 352 354 356 354 355 352 352 350 351 349 343 342 339
336 335 336 339 339 339 340 341 341 343 346 349 353 355 354 352 349 347 348 347 347 347 348 350 351 351 352 353 352 350 348 347 345 344 344 349 352 354 357 355 356 353 353 353 351 350 347 344 340
335 335 336 337 338 339 340 340 340 340 345 347 352 354 354 353 352 349 348 347 347 349 350 353 354 355 354 353 352 350 348 345 344 343 346 349 353 355 357 357 354 355 352 353 354 351 349 341 337
330 333 334 335 337 338 338 339 339 339 341 347 349 353 352 354 354 351 349 347 347 349 352 354 356 356 356 354 353 352 349 346 345 345 346 351 355 356 359 358 353 356 354 353 356 352 348 343 337
327 328 331 332 334 338 337 340 340 339 339 346 348 352 353 353 353 353 350 348 347 349 351 355 357 357 357 356 353 352 350 347 345 346 346 350 355 356 357 354 354 357 353 353 356 353 351 343 339
327 327 327 330 332 334 335 339 339 339 339 342 346 350 351 352 354 354 352 348 347 348 350 353 358 358 357 357 355 353 352 346 346 346 347 350 355 357 355 357 354 356 358 352 352 355 354 347 344
326 326 326 327 328 333 333 335 338 338 340 340 342 344 348 349 353 354 352 349 347 347 349 352 358 360 360 360 356 358 353 351 347 347 348 350 352 356 357 356 358 356 357 355 358 358 356 353 344
327 327 328 327 328 330 331 333 336 337 336 338 340 342 344 347 351 353 354 353 350 348 349 352 357 362 362 362 360 359 359 356 357 352 349 350 350 349 354 356 356 356 359 357 356 359 357 355 351
328 327 328 330 329 328 329 332 334 335 336 337 339 340 342 345 350 353 354 354 353 351 352 353 358 362 363 362 361 360 360 358 355 354 352 351 350 349 349 357 357 357 358 359 358 359 358 354 354
329 330 328 329 329 329 329 330 331 333 334 336 338 339 341 345 349 351 353 354 354 353 355 355 357 361 363 361 362 363 362 360 358 357 356 357 354 350 351 356 359 357 357 358 358 357 359 354 354
330 328 328 329 332 332 331 331 331 333 334 335 337 338 339 341 347 350 352 354 355 354 354 356 357 361 362 360 362 363 363 363 360 360 361 358 357 355 355 354 356 358 358 358 359 356 357 357 352
328 330 329 329 329 331 333 332 332 334 334 334 336 337 338 339 344 349 352 352 354 354 354 356 358 361 363 362 362 362 363 363 363 361 361 361 360 360 355 358 357 358 358 358 360 357 355 358 356
329 329 331 331 334 329 332 333 331 332 331 334 335 336 337 339 342 348 352 351 352 353 354 356 357 358 362 362 362 362 363 363 363 364 361 362 362 361 361 359 360 359 359 359 360 360 353 358 358

GFSSGP_925_thetae_036.txt.gz
Theta_e
350 350 351 353 368 368 372 368 361 362 360 356 357 360 360 359 360 365 346 342 340 347 349 349 351 348 349 351 349 349 349 348 350 348 348 351 351 352 352 352 352 352 353 352 351 351 351 351 351
351 353 354 360 370 375 372 361 362 359 356 356 356 356 357 360 349 347 346 342 340 345 347 349 349 350 350 350 349 350 351 352 346 348 348 347 352 353 353 353 353 352 352 352 351 351 350 350 350
351 354 359 366 370 371 368 360 358 357 355 356 359 356 356 359 350 345 343 338 342 346 345 349 349 350 350 349 351 349 351 350 347 348 348 350 352 353 352 353 352 353 352 351 351 351 350 349 348
352 354 356 367 370 361 363 363 356 358 357 356 356 362 354 351 349 341 337 340 342 347 349 346 346 352 351 351 351 351 352 353 352 351 351 354 353 354 353 353 352 352 352 352 352 351 351 349 348
354 358 368 368 367 360 358 357 355 356 356 358 357 359 358 352 346 340 343 342 344 350 352 349 349 351 351 351 351 352 353 353 352 352 353 353 353 354 354 352 352 352 352 351 351 351 347 346 342
362 353 366 371 363 357 355 353 356 357 358 359 358 357 356 351 348 349 346 348 351 351 351 352 351 352 351 352 352 352 353 353 353 353 353 353 353 354 354 353 352 351 349 347 345 345 343 342 341
348 356 361 360 357 357 356 353 356 355 356 359 355 362 355 351 349 348 350 348 350 348 351 352 354 354 352 351 353 353 353 353 353 353 352 349 347 345 345 348 352 351 350 346 343 343 342 340 341
359 367 368 366 351 351 351 352 352 356 357 355 354 360 359 352 350 350 348 349 348 345 349 351 352 352 351 352 353 353 353 353 354 353 351 351 349 347 341 342 346 346 344 342 343 344 343 344 339
352 362 366 360 352 348 346 351 352 352 354 355 356 354 352 351 349 349 350 350 348 347 346 347 348 349 349 350 351 353 353 351 350 345 348 347 351 351 353 351 342 344 342 340 342 343 343 343 344
354 360 356 354 351 353 346 347 350 351 352 358 356 352 350 349 350 349 349 350 348 344 344 345 346 349 349 348 347 350 350 350 350 351 336 344 348 350 352 345 343 344 343 342 341 341 345 344 349
351 356 349 348 349 348 346 345 348 349 353 358 358 354 351 349 349 350 349 348 348 344 342 344 346 347 346 347 344 349 348 348 348 348 339 343 349 349 349 346 344 343 343 346 336 345 348 347 348
351 351 351 348 347 347 349 346 345 347 350 355 354 351 351 350 350 349 349 348 348 343 343 344 346 346 345 346 342 346 346 346 350 350 350 350 343 350 342 350 349 351 346 346 347 348 346 341 339
348 352 350 347 346 350 347 350 349 347 350 352 353 352 352 352 350 349 349 348 348 346 344 345 346 345 345 349 344 345 345 345 346 349 347 351 350 352 348 352 349 349 349 349 350 350 348 345 342
346 349 349 349 346 342 344 349 347 345 347 351 353 353 352 351 350 351 350 349 348 346 344 348 348 344 349 348 348 346 345 344 346 345 349 351 354 352 353 352 349 351 351 348 350 350 348 346 344
343 346 346 346 344 342 339 343 349 348 348 351 353 354 353 351 351 351 351 351 348 347 345 348 349 347 350 348 349 348 347 346 344 347 348 350 351 352 351 353 351 350 350 351 350 343 348 343 340
343 345 347 345 345 342 338 340 345 350 351 352 352 352 354 352 349 350 351 350 351 347 346 347 346 349 348 350 349 350 348 346 346 345 347 350 352 357 357 354 353 347 349 350 347 351 346 340 342
343 345 348 346 344 340 338 339 342 349 351 354 352 351 351 354 351 350 347 348 348 348 348 349 346 349 349 351 352 349 349 348 346 346 346 348 352 355 356 352 350 354 353 351 348 347 346 344 339
343 339 343 344 340 339 339 338 342 344 350 354 355 352 352 352 352 350 348 348 348 350 350 349 348 350 351 351 350 352 351 349 348 346 344 349 351 354 354 355 352 352 353 348 346 347 342 342 339
340 336 337 339 339 339 339 339 343 344 348 352 355 355 353 351 351 350 349 348 349 350 352 350 350 349 353 352 354 354 351 350 348 347 344 350 351 353 354 353 354 353 353 353 349 349 346 346 339
340 339 335 335 338 340 341 339 340 343 347 347 352 355 354 351 350 352 350 349 349 350 352 352 351 351 354 354 354 353 352 350 348 346 346 349 350 354 354 355 355 355 352 352 352 352 348 342 336
340 340 337 335 335 339 341 342 342 341 342 345 350 353 354 353 352 352 351 349 349 351 352 353 353 355 356 354 355 353 352 350 349 346 345 347 349 353 355 354 354 354 354 353 348 348 349 343 337
333 335 335 336 336 339 342 344 345 340 340 345 345 351 352 354 354 352 352 350 349 351 352 354 354 355 358 355 355 355 353 352 349 346 346 349 349 354 357 354 356 354 353 353 353 352 351 344 337
327 329 332 332 334 335 336 340 341 341 341 342 346 350 351 353 354 353 352 350 349 350 354 356 357 357 359 355 358 355 354 352 347 348 347 347 351 353 357 357 354 354 353 354 353 355 348 348 345
327 327 327 328 330 336 334 337 342 341 343 342 344 346 352 352 354 355 351 350 349 350 355 357 360 359 360 359 354 359 355 353 350 347 349 351 357 356 357 358 355 354 354 356 352 353 355 352 346
327 327 328 329 330 331 332 335 338 337 340 341 341 346 351 352 354 356 356 353 351 351 354 356 361 361 360 361 359 354 361 352 354 350 346 351 353 358 358 356 358 356 352 356 357 355 357 349 352
327 327 328 331 330 328 330 333 335 336 336 337 340 343 346 350 350 355 357 355 352 351 353 355 361 362 362 361 361 357 360 359 350 357 352 347 352 353 356 353 357 356 355 355 358 358 357 357 350
328 328 327 327 328 328 328 329 330 334 335 336 336 341 344 346 348 354 356 356 353 351 353 354 358 362 363 361 363 362 356 362 359 355 355 355 349 353 351 354 357 355 357 358 356 357 360 357 355
328 329 328 329 333 335 331 335 333 334 336 337 338 338 342 344 347 353 355 357 354 352 352 353 357 361 363 363 362 364 361 361 361 358 356 354 356 350 354 357 356 359 356 360 358 360 356 357 357
328 331 329 328 329 332 335 331 336 338 337 338 338 339 341 344 347 351 356 355 356 354 354 354 355 361 363 364 364 363 364 361 360 361 359 361 355 360 352 362 358 358 360 359 360 359 358 359 357
329 330 331 331 335 331 333 333 333 336 337 337 337 339 340 343 348 349 353 355 357 357 355 355 356 359 363 365 364 363 363 364 363 360 361 362 364 357 362 356 358 361 359 360 360 361 357 360 360

GFSSGP_925_thetae_039.txt.gz
Theta_e
344 345 349 352 369 364 369 366 361 364 363 357 354 359 360 356 359 359 346 345 344 348 349 350 346 344 350 346 345 349 347 344 347 349 343 349 351 350 352 352 353 352 351 351 351 352 351 350 347
348 350 352 357 370 373 372 363 365 361 358 356 356 356 357 355 349 346 343 344 346 348 349 347 348 349 348 346 348 345 349 346 350 349 345 350 352 349 353 352 352 352 352 351 351 350 350 350 342
351 353 358 364 369 371 372 362 361 359 356 356 358 354 356 353 345 343 341 345 344 347 348 348 348 350 347 348 346 349 347 349 348 345 346 350 350 352 352 353 353 352 351 352 351 350 350 348 342
351 353 357 368 368 364 363 362 357 358 358 356 355 359 353 345 345 342 340 343 346 348 346 349 349 350 349 348 348 348 348 346 346 347 350 351 351 353 353 353 353 353 353 352 351 349 347 348 342
353 356 366 365 365 361 358 358 358 359 359 358 355 359 355 342 342 338 341 344 346 349 345 345 350 350 349 349 350 348 351 348 347 350 352 353 354 353 353 353 352 352 352 348 345 343 343 341 338
355 352 363 368 364 361 360 357 357 359 357 357 357 357 353 338 337 338 340 342 350 351 345 346 350 350 349 351 350 349 347 349 349 350 348 350 353 351 350 352 350 350 349 345 346 345 344 341 339
349 360 362 363 364 361 357 355 359 360 358 357 353 359 345 338 340 341 338 344 351 351 347 349 351 351 349 348 352 350 347 350 349 350 349 348 349 347 348 348 348 347 343 343 344 345 341 343 339
353 352 357 360 365 363 353 353 355 358 360 353 352 358 353 346 345 344 348 350 352 351 350 351 351 351 348 349 352 347 347 349 347 347 347 347 348 346 343 345 346 343 342 342 343 346 346 340 342
351 359 364 359 356 354 351 356 356 355 356 355 353 353 349 348 348 349 349 350 350 351 350 353 351 348 345 348 352 347 345 347 346 347 348 347 350 350 349 347 343 340 340 341 342 341 343 345 339
357 360 357 354 351 351 350 353 355 358 357 357 356 351 349 348 350 349 348 349 349 350 350 351 349 347 348 347 345 338 340 341 347 350 336 346 348 351 351 348 343 342 341 341 341 344 346 346 345
353 358 350 351 349 348 349 350 350 358 360 356 356 353 351 349 348 349 349 350 347 348 348 348 347 348 348 348 338 338 340 347 349 340 338 344 345 349 350 343 342 343 344 344 342 346 344 346 346
352 351 350 349 347 348 348 348 348 358 357 353 352 351 350 350 349 349 349 348 345 345 346 346 348 348 348 346 338 344 346 348 349 347 344 344 340 347 347 349 347 349 348 345 347 348 346 341 343
348 352 350 348 345 346 346 348 355 358 354 352 350 350 350 350 349 349 349 348 344 343 344 345 347 348 346 346 340 345 346 347 349 348 346 345 346 349 347 350 349 348 348 345 349 348 348 340 340
345 347 350 348 347 347 347 348 348 357 353 353 352 350 349 349 349 349 348 348 346 343 343 346 346 347 346 345 341 345 348 347 350 350 347 348 349 350 350 351 351 350 349 348 350 349 345 345 339
345 347 351 350 347 347 346 348 347 356 354 354 353 351 350 349 349 349 348 348 347 345 343 347 345 346 348 348 350 347 348 345 348 348 348 350 353 350 351 350 351 349 349 349 347 342 342 343 337
344 344 347 348 346 345 346 353 351 351 355 355 354 352 351 350 349 349 348 348 348 348 348 346 345 346 347 345 348 345 347 347 346 347 347 346 350 352 351 350 350 350 352 351 349 349 345 343 340
341 346 343 345 344 344 337 339 350 349 353 355 354 353 352 351 349 349 348 348 347 348 349 348 347 345 347 345 347 347 347 348 348 349 346 345 345 354 351 351 349 349 351 349 346 349 347 346 343
343 342 341 343 345 343 340 335 351 350 354 355 354 353 352 351 350 350 350 349 348 346 348 348 348 346 345 346 347 346 345 347 348 350 347 345 345 349 350 351 349 351 351 349 347 343 341 341 338
340 343 339 338 341 341 341 335 352 354 355 356 353 353 353 351 348 350 351 350 349 349 348 346 348 348 347 347 348 350 347 349 349 347 350 348 347 349 349 350 351 352 352 350 346 343 343 342 336
336 341 340 335 336 337 339 337 337 352 354 352 353 353 352 351 349 348 347 349 350 351 349 346 349 349 349 348 349 350 352 349 349 346 348 348 349 351 352 349 353 353 353 352 351 350 346 343 336
333 337 339 338 334 334 337 338 338 350 348 350 354 357 355 350 350 348 347 347 350 351 351 350 348 351 350 349 350 348 353 352 350 348 345 352 350 351 352 353 353 355 353 350 348 351 348 339 338
334 334 337 339 338 335 337 341 339 344 349 354 353 351 352 349 348 349 347 348 349 352 351 349 349 348 352 350 353 352 352 353 352 349 345 346 350 348 350 354 351 353 353 353 349 347 348 341 337
334 331 335 338 337 332 335 340 340 338 345 348 350 347 351 349 348 349 348 348 348 351 353 350 349 349 354 353 353 354 354 353 351 350 346 344 347 346 350 355 353 353 356 354 350 355 350 344 343
333 331 327 333 332 332 330 337 338 341 339 340 347 350 351 350 349 348 348 348 348 351 353 353 351 352 354 354 354 353 355 353 352 348 346 345 348 348 350 357 356 353 353 353 353 353 350 349 344
331 325 324 325 330 329 325 329 329 336 338 339 341 347 351 351 349 348 349 347 348 351 352 355 354 354 356 356 353 356 354 353 350 350 347 347 352 351 351 357 357 354 352 353 354 351 353 346 348
328 325 322 325 325 325 325 327 329 330 331 336 338 345 349 350 349 349 348 348 348 349 352 356 356 356 356 358 356 353 359 356 352 351 349 346 351 353 353 354 358 356 354 352 356 355 352 351 345
325 325 322 323 325 325 324 324 324 326 329 329 331 338 350 350 350 351 348 348 347 348 354 355 358 357 357 359 358 355 353 360 357 350 353 355 348 353 352 354 356 357 356 352 355 359 356 356 354
326 324 324 323 324 325 325 325 326 325 326 329 328 330 346 348 350 352 349 349 348 348 352 355 359 359 358 358 359 359 353 353 361 357 350 355 352 348 355 354 356 356 355 353 352 358 358 356 357
325 325 324 322 322 325 329 329 327 326 326 328 329 330 341 347 349 353 351 350 349 348 351 354 357 360 360 360 358 360 358 355 357 361 355 349 355 355 348 351 357 355 356 354 353 354 358 358 358
327 324 324 325 324 325 324 327 331 331 328 328 330 330 335 343 345 353 352 351 350 349 350 353 354 359 360 361 359 360 361 360 356 360 361 350 354 352 357 354 356 357 356 355 357 359 357 358 356

GFSSGP_925_thetae_042.txt.gz
Theta_e
344 343 347 350 366 363 369 364 361 364 363 355 350 354 357 354 359 354 346 344 345 351 348 346 349 347 344 348 346 346 345 350 348 350 349 350 351 349 349 352 351 351 352 352 352 352 351 347 349
343 348 351 357 369 372 367 357 365 363 359 356 356 355 356 355 348 346 345 344 347 351 349 343 348 345 344 348 345 344 351 352 350 350 351 350 349 349 352 352 352 352 352 352 351 351 350 348 346
349 352 356 361 366 370 370 360 361 359 357 357 356 354 354 352 346 343 345 346 349 349 344 345 347 345 347 344 348 344 351 352 350 346 350 351 350 352 353 352 352 352 352 351 351 350 347 344 345
351 353 357 366 367 364 365 362 359 360 357 354 355 357 346 345 343 343 347 346 348 346 348 349 347 348 346 347 349 346 351 348 347 347 351 352 353 352 353 353 353 353 352 352 351 350 346 343 340
351 356 364 364 365 362 360 358 358 360 360 356 355 354 348 342 343 345 345 347 348 348 349 350 349 349 345 351 345 350 348 343 349 350 351 352 353 353 353 353 353 351 352 352 351 351 348 342 341
353 351 362 364 361 360 357 357 358 360 358 356 353 353 342 340 341 343 345 347 347 347 349 350 350 350 344 349 349 350 342 345 350 351 350 351 353 352 352 351 350 352 351 350 345 344 342 339 340
350 357 359 361 362 362 359 357 360 359 357 357 352 348 339 338 340 343 344 348 347 344 349 351 352 352 347 350 350 347 344 346 347 347 348 349 350 348 347 347 348 352 351 347 342 342 341 339 341
351 352 360 361 363 363 356 358 357 357 357 352 344 345 341 336 339 343 345 351 348 345 349 349 352 349 344 349 352 348 348 348 346 346 346 349 347 346 345 345 347 348 345 343 342 341 339 341 342
347 355 365 360 360 356 354 359 357 353 354 353 352 344 337 337 339 339 345 351 350 348 349 350 350 346 345 345 351 349 346 346 345 346 344 346 345 345 347 343 344 342 340 341 342 342 342 338 343
358 362 361 354 353 354 354 356 357 357 358 356 350 339 342 341 339 344 348 351 351 351 351 348 347 344 342 342 345 344 342 343 344 343 345 348 349 349 348 343 343 343 341 341 340 346 347 346 341
357 359 353 350 351 350 348 359 355 358 360 355 352 349 345 343 346 347 348 349 350 350 351 349 345 342 339 336 336 339 340 345 347 342 343 347 348 348 349 342 343 343 344 344 343 346 342 345 345
355 357 352 347 349 351 348 349 358 357 356 352 349 348 347 347 348 348 348 348 350 350 350 347 342 345 344 332 333 335 343 348 346 337 337 343 345 346 347 344 343 345 346 345 347 344 341 342 345
348 349 350 348 346 346 345 349 356 357 353 350 349 348 348 348 348 347 348 347 348 348 349 345 343 346 346 336 333 339 345 348 349 346 343 342 346 346 346 348 348 347 346 346 348 347 345 344 340
345 346 349 346 343 345 345 350 357 355 352 352 351 349 348 348 347 348 348 345 346 346 347 345 346 346 346 342 340 344 345 346 348 348 346 347 348 349 348 349 348 348 347 347 348 346 346 344 340
338 347 349 345 344 346 345 351 361 354 352 353 352 351 349 348 348 348 348 344 344 344 345 345 346 346 346 347 343 345 346 347 347 349 346 344 348 348 346 349 349 349 348 348 346 345 343 340 337
339 342 352 349 347 348 346 355 359 353 353 354 352 351 350 349 348 348 348 347 343 342 344 345 346 347 345 347 344 347 348 347 347 349 347 350 350 348 349 350 349 349 349 349 348 347 342 340 339
332 339 344 350 349 348 348 353 358 353 353 353 352 351 350 349 348 348 347 347 345 343 342 345 346 347 346 348 349 347 346 349 348 349 347 348 352 350 346 349 350 349 349 350 347 348 344 342 341
334 341 340 342 341 347 349 353 358 355 354 355 353 351 350 350 349 348 348 347 347 346 343 345 346 347 347 347 347 346 346 347 349 349 348 348 348 351 347 348 348 350 351 350 347 345 341 344 339
332 337 340 339 338 341 346 356 359 356 354 356 354 353 351 351 348 348 348 346 347 347 345 345 345 346 348 345 346 346 345 346 347 349 348 346 345 344 349 350 348 350 350 350 346 342 342 337 337
328 329 338 339 339 336 338 355 354 355 356 355 356 355 353 351 349 348 348 347 347 347 347 346 345 346 347 345 344 345 343 344 346 349 348 348 347 345 346 347 350 350 352 351 348 348 345 340 337
326 327 330 339 338 334 337 345 352 353 354 349 350 354 353 351 351 349 349 348 347 347 347 347 346 345 345 344 345 344 342 342 346 349 348 349 348 348 349 347 349 351 352 351 349 349 347 338 337
326 326 328 333 337 339 334 341 355 356 355 351 351 353 353 351 350 349 349 349 348 348 347 347 348 347 346 346 346 344 347 351 349 348 348 347 349 350 351 350 348 353 354 353 349 346 348 337 338
327 326 328 332 333 335 337 334 347 356 358 355 350 349 350 350 350 348 348 349 349 349 348 347 349 348 348 347 347 347 348 351 352 350 349 347 350 351 350 348 352 351 353 352 351 345 349 341 336
329 329 330 330 329 335 335 332 334 359 358 353 349 345 345 347 349 348 347 347 349 349 349 348 350 350 349 349 349 348 348 348 351 352 351 348 348 351 349 348 351 352 351 353 352 351 351 347 341
331 329 332 333 330 331 331 326 330 340 352 351 350 350 348 344 348 348 347 346 349 350 349 349 350 352 351 350 350 349 348 348 348 351 350 348 346 349 348 348 353 355 353 352 351 351 353 349 344
331 327 328 335 327 330 322 324 325 326 335 346 348 351 346 344 348 347 347 346 346 351 350 349 350 351 353 351 351 351 350 349 350 351 351 348 345 345 346 347 351 356 355 352 352 353 351 352 347
331 331 322 319 319 320 322 321 322 323 323 328 343 349 347 348 348 347 347 347 347 349 351 351 350 350 353 353 353 353 352 352 352 352 350 350 347 347 347 348 350 355 356 353 352 353 354 352 349
325 323 325 317 323 323 322 322 323 322 322 321 326 345 345 350 349 347 347 347 347 348 350 351 351 350 351 354 353 352 354 354 353 352 352 349 349 348 349 350 351 353 356 355 353 353 354 356 354
328 325 322 321 317 321 322 324 322 322 322 322 322 340 348 349 349 348 347 347 347 347 350 352 352 351 352 353 354 353 352 352 357 357 353 351 351 353 349 351 352 353 354 356 355 352 353 357 356
332 323 320 323 320 318 320 324 326 323 323 323 324 325 346 349 349 348 347 347 347 347 350 351 354 353 353 354 355 356 355 353 352 356 359 355 351 350 356 351 354 354 355 355 355 353 351 356 358

GFSSGP_925_thetae_045.txt.gz
Theta_e
347 347 345 349 367 363 368 364 360 364 360 355 349 352 356 355 356 354 344 344 344 346 347 350 348 351 351 351 343 351 352 351 347 351 352 352 351 352 351 351 351 352 351 352 351 349 348 350 348
346 347 350 356 367 371 367 358 365 362 357 353 352 354 354 356 347 347 344 345 344 346 349 348 347 350 351 350 348 352 350 350 348 347 346 348 348 351 352 351 351 352 352 350 349 349 348 347 345
345 351 356 360 362 369 369 358 361 358 357 355 356 352 352 351 345 343 345 349 346 347 346 348 347 350 350 350 351 352 351 351 351 349 348 350 352 351 352 352 352 352 351 347 346 343 348 347 344
349 353 356 366 367 363 363 363 357 358 357 354 353 353 345 345 343 345 347 349 348 345 347 348 350 352 351 351 351 352 350 350 349 349 350 351 352 353 352 352 352 352 352 351 350 345 343 344 343
351 356 364 364 364 361 358 358 358 360 358 356 352 350 349 342 343 346 349 349 346 344 346 348 350 349 351 351 351 351 351 351 350 351 353 353 353 354 353 353 352 352 352 350 347 344 341 341 342
353 350 362 363 362 359 358 357 359 360 357 351 348 347 345 342 345 347 348 347 345 348 349 348 350 348 351 350 350 350 351 351 350 350 351 353 353 353 354 353 352 351 350 345 341 340 339 341 344
350 355 360 361 362 361 360 357 360 360 358 355 346 345 340 343 345 346 347 347 347 348 349 348 350 350 351 352 350 350 351 351 351 352 349 352 351 352 351 353 352 351 350 342 339 338 339 341 343
350 352 360 362 363 364 356 357 358 358 358 348 341 346 344 341 343 344 347 348 349 349 347 351 351 349 349 351 351 350 351 351 351 351 346 352 350 353 345 347 349 349 345 344 342 339 339 341 343
344 352 360 362 360 359 356 358 358 353 354 352 346 340 339 341 342 347 349 349 350 351 350 351 350 345 345 350 351 351 351 349 348 348 343 342 343 345 348 344 342 341 343 343 342 340 339 341 342
356 357 358 353 353 354 354 358 358 356 356 347 340 338 338 341 341 347 349 349 350 352 351 350 349 344 344 347 349 347 349 346 344 343 346 344 345 346 346 344 344 341 342 340 342 346 344 340 343
358 359 354 351 350 351 351 358 355 357 359 348 341 339 338 341 341 347 350 349 349 351 351 350 347 344 341 342 342 344 345 344 344 344 345 347 345 345 345 343 344 343 343 343 344 344 344 345 341
359 356 357 349 348 352 350 355 358 357 356 346 338 337 338 340 339 346 349 350 350 350 350 348 345 341 339 338 338 340 342 344 345 341 345 347 346 344 341 341 341 343 345 345 346 343 341 345 344
353 353 351 355 354 347 345 356 358 357 352 340 341 338 338 338 341 347 349 350 350 350 349 346 342 338 335 333 336 338 342 344 341 337 338 344 345 346 347 345 346 346 346 346 346 345 345 340 340
341 343 345 346 348 341 345 347 355 355 349 346 345 341 339 339 345 347 348 349 349 349 348 346 341 337 337 332 333 337 345 348 348 345 342 343 345 345 347 347 348 347 346 346 346 345 345 338 339
334 341 340 343 345 346 347 359 360 354 350 350 349 346 343 345 347 346 347 348 349 348 347 345 338 337 339 336 334 338 344 346 346 347 346 347 348 348 346 348 347 348 347 347 346 345 343 340 340
334 334 341 342 348 344 345 353 358 353 352 351 350 348 347 347 347 347 347 346 347 347 346 343 340 341 340 340 338 341 345 346 346 346 347 346 348 347 346 348 348 347 346 346 345 346 344 341 339
325 336 344 343 345 347 347 359 357 353 353 353 350 349 349 347 346 347 347 345 346 346 345 344 344 344 342 344 346 343 343 347 346 347 347 347 349 347 347 349 349 349 348 344 346 348 343 341 341
326 336 337 339 342 348 348 352 358 354 354 354 352 350 349 349 347 347 347 345 343 344 345 344 345 345 344 345 346 347 347 348 347 347 348 348 352 348 346 348 349 348 346 347 346 347 343 343 340
329 336 339 338 338 344 349 350 360 355 354 354 353 351 350 350 347 347 347 347 344 342 342 344 344 345 346 346 347 348 347 347 349 349 349 348 351 352 346 347 347 349 349 348 347 342 340 341 340
322 325 330 332 335 336 339 349 358 356 354 353 353 352 350 349 348 347 347 347 346 344 341 342 344 344 346 346 348 348 347 346 347 348 349 348 349 351 348 346 348 349 350 349 347 343 342 337 338
322 323 326 330 334 335 342 351 358 357 355 353 351 350 349 349 348 347 347 346 346 345 344 342 343 344 344 346 347 346 346 344 345 347 348 348 347 346 346 345 348 351 350 349 349 348 344 338 338
321 323 326 328 333 337 334 348 362 360 358 355 354 352 350 349 348 347 347 347 346 345 346 345 343 344 345 347 347 346 345 344 344 345 347 347 348 347 347 347 346 351 349 349 351 349 348 339 338
325 323 325 326 328 332 332 334 349 355 359 357 355 354 352 350 349 348 346 346 346 346 346 346 345 344 345 346 347 345 345 344 342 342 345 348 347 348 348 349 349 346 351 352 352 348 347 342 336
325 325 325 326 326 331 330 333 332 354 353 356 352 350 350 352 350 348 347 347 347 346 346 346 345 345 345 346 346 344 345 343 342 342 344 347 347 347 348 349 350 351 350 351 352 350 344 347 336
327 323 326 329 329 333 329 331 334 346 349 350 352 349 346 350 350 349 348 348 348 347 347 346 346 346 346 345 346 345 345 344 341 343 346 348 348 347 348 349 351 350 351 351 352 352 348 349 345
327 328 327 331 333 333 325 329 329 334 345 347 348 348 346 348 349 349 347 348 348 348 347 346 347 347 346 346 347 346 346 346 345 343 347 350 349 348 346 348 349 349 351 353 352 351 350 351 348
329 330 326 323 316 322 328 320 320 325 338 346 348 348 348 344 343 346 348 346 347 348 348 348 347 348 348 347 348 348 347 347 346 346 345 349 350 349 347 345 346 347 350 354 354 352 351 351 351
331 325 329 319 330 323 321 321 326 322 323 335 348 348 346 345 344 343 346 346 345 347 348 348 347 348 349 348 348 349 349 348 347 347 346 347 350 349 347 345 345 347 347 353 355 352 351 352 352
325 330 326 327 321 332 320 323 318 320 322 323 338 344 344 347 345 343 345 347 346 347 349 349 348 348 349 350 349 349 350 349 349 349 348 347 349 349 348 346 347 348 348 350 355 354 352 351 352
320 326 318 332 327 317 320 327 321 320 320 319 323 335 339 345 345 344 345 346 346 345 348 349 349 348 348 350 351 350 350 351 350 350 350 349 349 350 349 348 347 349 350 350 353 355 354 352 353

GFSSGP_925_thetae_051.txt.gz
Theta_e
347 346 347 349 362 359 365 364 359 360 360 351 348 349 352 353 355 358 344 345 343 348 348 353 349 350 351 350 351 351 351 351 346 346 348 348 346 349 351 349 350 350 349 349 351 348 347 349 349
346 346 348 354 365 370 367 357 364 357 356 349 351 352 355 356 348 345 346 345 344 347 347 351 348 349 349 346 349 351 351 349 350 349 347 347 349 350 350 347 346 345 347 349 349 349 348 348 348
347 347 356 360 363 370 368 359 360 359 350 351 356 351 352 352 346 344 345 345 345 349 348 350 349 344 352 351 350 351 351 351 348 348 350 347 350 348 348 346 347 349 346 350 349 347 347 347 346
347 351 354 365 365 362 363 361 359 359 352 349 353 354 348 346 344 344 346 346 345 349 347 349 350 349 351 350 351 350 351 351 350 352 347 348 349 350 349 346 350 351 350 348 349 349 344 340 341
350 355 365 366 364 362 357 358 358 359 356 355 351 352 350 343 345 346 346 346 346 347 349 350 347 351 351 351 351 351 351 351 347 347 349 350 349 351 350 352 351 351 350 348 348 346 344 342 340
358 352 364 364 362 360 359 357 359 359 356 351 352 350 347 345 347 347 346 346 347 345 348 350 348 349 351 350 351 351 349 350 349 348 350 350 347 353 352 350 349 349 348 347 345 343 343 342 342
356 358 361 361 362 364 360 353 354 360 357 354 348 352 348 346 347 347 345 347 347 346 349 349 352 350 352 351 351 351 351 351 350 348 348 348 352 351 351 350 347 346 345 347 343 341 342 343 343
354 354 359 362 364 362 357 352 355 358 354 347 344 352 352 346 347 348 346 346 348 346 350 348 353 348 348 349 351 351 351 351 350 348 350 353 353 347 343 339 339 341 347 347 344 339 342 342 341
346 355 358 360 362 359 354 359 356 353 348 347 345 345 345 346 348 348 346 346 349 347 350 347 351 348 350 349 351 350 352 352 351 351 349 350 350 349 347 343 342 345 344 346 343 340 342 343 339
352 361 356 353 354 357 356 357 358 357 353 348 346 344 345 346 347 346 344 344 347 346 349 346 348 349 349 348 352 352 351 350 351 351 345 348 344 347 348 346 345 342 342 343 341 341 341 345 346
356 360 354 353 351 354 355 357 358 359 359 351 350 349 345 346 346 345 342 345 346 345 348 348 348 351 349 350 351 351 351 350 348 341 341 342 343 343 347 348 349 346 343 346 347 346 346 346 345
359 356 356 354 350 351 355 355 359 357 356 350 347 346 345 346 344 343 342 345 346 347 348 350 348 349 350 350 350 350 350 349 348 344 344 344 343 343 342 347 347 345 347 345 345 348 347 345 346
356 357 354 353 352 352 352 353 355 357 350 346 346 346 345 345 343 342 343 345 345 346 347 350 349 348 350 350 350 350 350 349 349 343 343 343 343 343 341 341 343 348 346 345 343 345 345 344 347
347 350 353 350 349 349 351 350 354 354 346 346 347 347 345 344 343 343 344 345 346 346 347 349 349 347 348 348 347 349 350 349 348 345 344 344 344 346 346 346 346 346 345 344 342 346 343 341 343
341 347 343 342 344 347 346 352 358 350 347 348 347 346 345 343 342 343 344 345 346 346 347 349 349 347 346 345 343 346 348 347 347 343 339 340 342 345 345 348 348 348 346 343 343 343 339 343 345
332 334 346 345 344 345 347 355 358 347 349 349 347 346 345 343 343 343 345 345 345 345 348 348 347 346 345 344 338 344 345 348 349 350 346 344 345 346 346 348 350 347 347 344 345 345 344 344 342
331 333 341 348 344 347 349 352 359 348 348 348 347 346 345 344 343 345 346 346 347 347 347 348 347 346 344 338 339 337 341 345 346 346 346 346 346 347 346 347 348 346 345 342 347 348 342 343 343
329 330 341 351 346 346 350 351 359 351 349 347 346 346 345 344 343 344 346 347 348 348 347 347 346 346 343 343 339 341 340 343 344 345 346 346 346 347 347 347 349 348 346 344 349 346 342 346 344
331 333 337 344 344 347 351 351 360 356 353 349 346 345 345 344 341 343 345 346 349 349 348 347 347 345 343 344 344 344 344 346 346 345 346 346 346 347 347 348 348 347 343 344 346 344 342 341 341
325 331 336 338 338 342 347 349 355 358 357 354 349 345 344 342 342 342 345 345 347 349 349 349 347 346 340 343 344 346 347 348 350 347 345 346 346 348 349 346 348 345 346 346 345 344 343 342 341
322 326 331 334 331 336 341 346 351 358 357 355 352 349 346 344 343 344 345 346 346 347 348 348 348 346 342 343 345 344 346 346 348 349 347 346 347 347 350 348 348 345 345 349 348 346 345 341 342
320 321 327 330 330 344 340 354 347 353 360 358 355 353 350 348 345 345 345 345 345 347 347 348 347 346 344 340 345 345 347 347 349 350 350 347 347 347 348 349 350 348 349 348 349 346 346 342 343
319 319 320 325 331 332 336 344 346 350 358 359 357 355 353 350 348 347 347 346 346 346 346 347 347 345 345 344 345 346 347 348 349 349 347 347 348 348 347 347 347 348 349 348 348 349 347 346 343
319 322 321 321 325 336 336 338 343 349 354 356 356 355 354 352 350 349 347 346 347 347 346 345 346 345 345 344 343 345 348 348 348 348 348 349 350 348 347 347 347 348 349 349 351 350 349 345 342
321 321 327 327 325 329 335 337 338 339 345 349 354 355 354 353 352 350 350 348 347 348 347 346 345 346 345 346 344 345 345 346 346 348 348 347 349 350 348 346 347 350 348 348 349 351 351 346 346
325 324 323 329 325 322 331 337 336 335 335 340 347 351 353 353 352 351 350 349 349 348 348 347 346 346 345 345 345 344 343 347 347 347 347 347 347 347 350 345 346 346 348 349 350 353 353 353 348
325 327 324 323 326 327 324 331 332 333 334 336 341 348 352 353 352 351 350 349 349 349 349 348 348 347 346 347 346 346 345 346 346 346 346 347 346 346 348 342 345 346 346 348 351 354 354 354 353
324 325 328 327 327 329 326 328 331 336 335 335 338 343 350 352 353 352 351 349 349 349 349 348 348 348 347 346 347 347 347 346 346 346 346 346 346 343 345 342 345 347 346 347 350 353 354 355 354
324 326 328 328 328 327 327 328 329 333 338 336 337 340 344 350 352 352 352 350 350 349 349 349 348 348 348 347 347 347 348 348 348 348 347 345 344 344 341 342 344 347 349 349 349 351 354 356 356
320 324 326 332 333 331 330 327 328 332 334 335 336 337 341 346 350 351 351 351 350 350 349 349 349 348 348 348 347 347 347 348 348 347 348 346 345 344 344 342 345 347 349 352 351 353 352 355 356

GFSSGP_925_thetae_054.txt.gz
Theta_e
345 344 345 350 362 363 367 367 360 363 358 353 350 350 354 354 357 365 348 346 347 345 348 349 351 351 348 348 348 350 350 350 348 346 345 349 351 351 347 349 351 350 349 351 348 348 349 350 350
345 346 349 357 369 372 370 361 364 359 356 352 350 351 353 358 350 349 347 347 345 344 347 347 349 351 350 349 349 350 351 351 351 351 351 351 352 351 350 350 347 350 350 350 350 350 348 349 350
345 346 356 360 366 369 370 363 362 357 352 353 356 352 355 356 348 347 346 346 344 344 346 349 348 348 351 351 352 351 351 351 352 351 348 349 352 350 350 350 349 347 351 350 349 348 347 341 349
345 350 355 367 366 361 363 363 360 357 353 353 354 358 351 349 347 347 344 344 343 344 346 350 345 352 352 352 351 352 352 349 348 348 346 350 352 351 349 350 351 350 349 350 349 347 346 347 347
351 358 366 369 366 361 360 359 359 359 352 353 354 358 352 347 347 346 343 342 343 343 346 350 346 351 350 352 351 352 352 351 351 349 347 347 352 350 351 352 352 351 350 348 348 345 346 347 347
359 358 367 367 363 360 357 355 359 358 357 355 356 355 351 346 347 346 343 342 342 344 346 347 351 351 350 352 351 351 352 352 348 348 352 352 351 353 352 350 350 349 348 347 348 343 342 343 342
360 362 364 363 363 362 360 357 361 360 359 356 353 358 351 348 347 345 343 342 342 344 344 346 350 352 352 352 352 351 352 352 352 350 348 352 353 350 350 349 348 349 348 346 346 342 342 342 342
358 357 362 362 363 365 359 351 352 360 359 352 350 359 356 348 346 344 343 343 342 344 344 346 346 351 347 348 352 351 352 352 351 351 353 353 350 344 337 338 342 348 348 347 342 343 343 340 340
352 357 361 361 361 362 356 358 356 354 353 351 350 351 350 348 347 343 344 343 342 344 344 347 345 346 348 348 351 351 352 352 351 349 346 348 346 345 348 342 348 347 348 347 342 342 343 340 342
356 361 358 353 354 355 356 357 359 360 355 353 350 348 348 347 346 343 344 344 342 343 343 346 345 347 347 347 350 350 350 349 349 349 350 347 348 348 347 344 345 343 341 344 342 341 345 347 346
357 360 354 352 351 353 356 357 358 360 359 354 354 352 349 348 347 343 343 344 341 342 342 344 345 347 347 349 349 349 349 350 351 351 350 348 347 346 348 348 349 348 348 347 347 347 346 345 346
355 353 355 352 352 351 353 355 358 358 358 354 351 350 350 349 346 343 342 342 341 342 343 344 346 348 347 349 348 348 348 348 347 347 351 350 348 348 348 348 349 349 348 349 349 347 348 348 348
350 352 353 353 351 352 352 354 354 357 355 352 351 349 349 348 345 343 341 341 341 342 344 344 346 349 349 350 348 347 347 346 346 348 349 348 348 349 348 350 350 349 349 348 348 348 348 349 347
342 345 355 352 352 352 354 353 351 355 353 353 352 351 349 347 345 343 342 342 343 341 343 344 346 348 349 350 350 349 349 349 348 346 346 350 348 351 350 350 350 350 347 347 347 348 345 343 343
338 347 347 349 349 349 350 353 354 355 354 355 354 352 348 347 345 343 342 342 343 343 343 345 346 346 349 350 351 350 349 348 349 348 349 349 351 354 352 351 350 350 351 350 349 347 345 341 342
330 339 351 351 345 346 349 354 356 354 355 356 354 352 349 347 345 343 343 342 343 342 343 345 344 344 347 348 350 347 348 348 348 347 348 349 352 354 349 352 349 351 348 345 345 343 341 341 340
326 333 342 349 347 348 351 354 358 353 355 356 355 352 350 349 345 343 343 342 343 343 344 346 345 344 346 348 348 348 348 350 350 350 351 353 352 348 350 350 350 352 347 345 343 342 340 341 339
329 329 335 343 351 351 352 353 357 353 354 356 355 353 351 349 347 344 343 343 343 344 345 346 345 345 345 346 348 347 349 350 350 350 351 354 353 351 350 351 349 350 347 345 344 343 344 342 340
329 332 333 346 349 351 352 352 358 355 355 356 355 353 351 350 346 344 344 344 343 345 346 346 346 346 346 345 346 347 348 348 350 350 352 353 353 353 351 351 351 348 348 350 350 348 348 343 343
326 333 336 339 345 349 351 352 352 358 356 355 354 353 351 350 347 345 345 344 344 346 346 347 347 347 347 344 344 346 347 348 349 351 353 354 353 355 354 351 351 348 347 350 350 348 345 343 342
324 326 332 337 339 342 349 353 351 356 357 356 353 351 350 350 348 346 346 345 345 346 348 348 348 348 348 342 344 347 349 351 353 353 352 354 354 354 355 351 351 351 350 347 348 350 347 343 344
323 321 323 331 336 347 347 355 351 352 359 358 357 353 350 348 348 347 346 346 345 346 349 349 350 350 349 346 342 346 349 348 347 349 349 351 355 354 355 356 353 352 351 352 349 351 348 347 342
323 322 321 323 333 339 342 351 350 349 356 359 358 356 353 350 347 347 346 347 346 345 346 350 351 352 349 348 343 345 348 344 346 348 351 353 356 355 354 356 356 352 350 351 353 351 350 345 344
322 322 322 323 323 334 340 344 348 349 349 353 355 355 354 353 350 347 345 346 347 347 346 348 351 353 351 349 347 347 347 345 345 349 350 350 350 353 355 356 357 356 352 352 352 353 353 351 348
324 324 327 326 323 323 332 339 343 342 345 347 351 354 354 354 353 351 349 348 347 347 347 348 350 353 353 351 348 346 347 348 348 351 349 347 348 349 351 356 357 355 356 355 354 353 355 355 349
326 326 327 330 326 323 323 332 339 339 339 342 346 350 353 353 354 353 352 349 349 349 348 348 350 353 353 352 352 350 349 347 349 351 349 349 347 347 349 355 355 356 355 355 356 354 353 355 352
328 329 326 327 328 329 325 323 327 335 338 339 340 344 351 352 353 354 353 351 349 350 351 351 351 352 353 351 353 353 351 349 349 349 351 349 349 347 348 351 354 354 354 355 355 353 356 355 355
327 328 329 328 331 332 329 328 325 334 337 338 339 340 345 349 352 353 354 352 351 350 350 351 351 352 353 351 352 352 351 351 350 350 350 351 350 351 348 351 352 351 353 355 356 353 355 356 355
325 327 328 329 329 332 332 329 327 329 332 337 337 339 341 347 351 352 353 352 352 351 350 351 351 352 351 352 351 351 351 351 352 351 352 353 353 352 353 351 350 350 354 355 355 354 353 357 357
324 327 327 331 334 331 332 331 328 328 329 333 336 338 340 342 348 351 352 351 352 352 351 350 351 351 352 351 353 353 352 352 352 353 352 354 355 354 354 353 352 350 352 354 356 355 352 355 356

GFSSGP_925_thetae_057.txt.gz
Theta_e
345 345 349 346 363 364 371 367 362 361 357 354 351 353 357 355 360 366 349 350 349 346 350 352 350 352 352 346 345 347 352 353 352 350 350 352 352 351 352 351 351 351 350 348 349 349 349 351 351
344 346 349 359 370 376 372 362 364 359 355 352 351 353 356 359 352 351 349 351 346 344 343 347 349 348 351 347 349 348 352 351 350 351 352 352 352 352 351 348 347 351 351 351 350 349 350 349 348
343 346 359 361 367 373 373 364 361 356 353 354 354 353 356 355 351 350 349 346 344 343 345 352 349 351 352 349 350 349 351 351 351 352 352 353 352 352 351 351 350 352 350 349 350 347 348 350 350
346 349 358 370 369 361 363 364 358 355 355 353 355 359 353 350 348 348 347 345 344 343 347 349 352 352 353 352 352 352 351 352 352 352 353 352 352 352 351 352 351 349 351 350 349 348 348 348 349
348 357 368 370 367 362 358 361 361 357 356 356 356 360 356 349 348 348 346 343 345 345 347 348 350 353 353 353 353 353 353 352 350 351 353 353 352 350 352 353 352 350 350 349 348 348 348 348 347
360 360 369 370 365 363 361 358 361 355 353 355 358 357 355 349 347 347 345 343 344 343 344 349 351 349 352 353 353 352 351 352 353 353 353 353 352 353 351 350 349 349 349 346 349 348 348 341 342
361 365 367 364 362 362 359 358 361 358 359 357 355 361 354 349 346 345 344 342 344 343 344 349 352 351 353 353 353 353 353 353 354 353 350 354 352 351 350 350 350 349 348 349 347 348 347 342 343
358 362 363 362 363 369 360 358 360 360 360 354 354 361 358 350 346 343 344 342 343 344 343 347 350 349 349 352 353 353 353 353 353 353 349 350 346 340 340 343 349 349 348 348 344 344 347 342 340
354 366 365 364 360 364 356 357 355 355 356 355 354 355 351 349 346 344 343 342 345 342 342 343 346 346 348 352 353 352 353 353 352 347 340 346 346 348 348 342 349 349 348 347 344 342 340 341 342
358 363 363 357 356 358 356 357 360 359 357 357 354 353 349 348 346 344 344 342 344 342 342 340 343 345 346 347 352 352 351 350 348 345 352 350 348 348 347 344 341 344 343 340 341 341 341 347 348
356 359 355 353 354 353 356 362 359 359 358 355 356 355 349 348 346 345 343 342 343 342 341 341 343 344 345 347 349 347 349 349 349 348 348 346 346 346 348 348 349 349 347 346 344 346 349 346 347
352 351 353 351 353 353 357 357 358 358 358 353 354 352 350 350 347 345 344 342 342 342 341 342 344 345 347 345 347 348 348 348 345 348 348 347 348 348 349 349 350 348 349 347 348 348 347 348 345
348 349 354 353 353 351 350 349 361 359 355 354 353 351 351 349 346 344 344 342 342 342 341 342 345 346 349 347 348 348 346 344 345 349 349 347 349 348 348 350 349 347 346 344 345 347 347 344 344
341 344 354 353 354 354 353 353 352 355 354 355 354 353 351 350 346 344 344 343 341 342 341 343 345 348 348 349 348 346 346 346 344 344 347 349 351 349 351 350 349 347 348 345 346 347 344 345 343
337 343 349 355 354 355 352 355 353 356 356 357 355 354 352 349 346 344 344 343 342 342 342 343 346 348 349 351 349 347 346 346 346 344 350 349 353 352 352 348 350 349 350 349 346 343 340 340 343
336 339 352 353 354 352 351 355 351 356 357 359 357 354 352 350 347 344 343 342 343 341 342 344 345 347 348 349 349 349 348 347 348 347 349 351 353 354 354 349 347 347 347 348 346 345 343 340 341
329 337 344 352 350 350 352 359 356 355 357 359 358 354 352 351 348 345 343 343 343 342 343 345 345 346 348 350 349 349 349 348 347 347 350 353 353 353 353 347 351 351 348 344 343 342 341 339 340
330 331 337 349 353 351 352 357 362 354 355 358 358 354 353 351 350 346 344 343 343 343 343 345 345 346 348 350 350 348 348 349 349 349 351 356 353 352 354 351 350 352 347 344 344 342 345 339 340
327 332 334 340 349 352 353 356 364 354 354 359 358 355 354 352 349 346 344 344 343 344 344 345 346 347 348 350 349 348 348 348 350 349 353 354 355 353 354 352 351 352 351 345 346 341 345 340 340
327 329 334 336 345 351 354 354 354 355 355 357 358 355 354 353 350 347 345 344 343 344 345 346 347 349 348 348 348 348 348 347 347 347 352 353 352 354 352 352 351 351 349 351 349 349 345 342 339
326 328 334 339 345 351 351 355 353 355 354 355 356 354 351 353 351 349 346 345 344 344 345 347 349 349 349 347 347 349 349 348 348 349 351 353 354 353 355 353 353 352 352 350 351 351 349 346 340
327 326 326 332 340 347 348 356 355 358 357 357 356 356 352 352 351 350 348 346 345 345 347 348 349 350 350 347 345 348 348 347 347 350 349 352 354 354 354 354 354 354 352 349 350 351 350 348 341
327 327 324 324 330 339 342 352 352 351 356 356 356 355 354 351 351 350 349 347 346 345 348 348 350 351 350 349 346 347 349 347 347 347 352 350 354 355 353 356 354 355 353 354 352 354 352 346 346
326 326 326 325 324 329 339 348 350 350 353 353 354 355 354 352 351 350 348 348 347 346 347 349 352 354 353 351 345 348 347 348 345 346 352 349 353 354 355 355 356 355 352 354 355 354 353 353 347
326 327 330 328 326 325 328 341 346 348 348 349 351 354 355 353 351 351 350 348 349 348 347 350 354 357 355 354 349 349 349 347 351 350 348 348 347 348 352 355 357 356 356 356 355 356 354 354 350
328 328 331 334 329 326 325 331 340 341 347 347 348 351 353 354 352 351 350 348 350 350 350 349 355 357 357 355 353 349 350 347 347 347 348 347 346 345 355 358 355 356 357 356 356 355 354 354 354
329 330 328 330 331 331 327 325 328 337 340 346 345 348 351 353 353 353 351 348 349 350 352 351 353 357 357 355 355 354 351 347 344 344 348 350 346 347 348 353 356 355 354 355 355 353 356 357 356
326 328 329 328 334 335 331 331 327 328 335 339 341 344 350 354 352 353 354 351 349 350 350 352 353 356 357 355 356 355 354 352 348 348 354 350 350 349 350 349 352 355 354 354 355 352 353 356 355
324 327 329 331 329 333 335 332 332 329 328 334 339 341 344 349 350 352 354 352 351 351 350 351 352 354 356 356 356 354 354 354 351 354 354 354 353 353 352 353 352 353 353 353 356 354 353 355 355
321 322 323 333 335 331 332 333 332 331 329 331 336 339 340 342 347 350 351 352 353 352 352 352 352 352 355 356 357 355 355 353 352 351 354 355 355 355 355 356 354 354 351 353 356 356 352 356 356

GFSSGP_925_thetae_060.txt.gz
Theta_e
341 344 345 349 361 364 373 371 362 361 358 353 353 356 357 356 360 363 349 351 350 351 353 354 353 349 352 350 350 351 351 351 351 352 352 352 351 352 351 351 351 348 348 350 349 350 352 352 350
343 347 350 359 371 376 373 368 367 358 355 353 354 356 356 359 351 350 351 348 347 351 353 352 350 350 347 347 349 352 352 352 352 351 351 351 352 352 349 346 351 350 350 350 351 350 349 350 351
349 346 358 363 368 374 361 365 362 354 352 355 357 355 354 355 349 350 348 346 344 345 348 352 348 350 352 352 352 352 352 352 352 352 353 351 352 352 351 351 352 350 350 350 348 350 349 351 351
344 348 358 370 367 365 367 366 357 357 354 354 355 358 352 349 348 349 348 344 341 347 351 349 351 352 352 352 349 351 350 349 351 353 352 353 352 352 352 350 350 351 351 349 349 348 349 349 346
348 357 368 371 368 364 361 364 359 359 356 360 356 357 354 349 348 347 344 343 343 350 351 352 350 352 351 352 352 351 352 351 352 351 353 352 352 352 354 352 350 351 350 349 349 349 348 348 340
359 359 371 372 367 363 362 361 359 361 360 359 357 356 354 349 348 345 344 344 348 347 348 351 352 353 352 352 352 351 353 352 351 351 352 353 353 353 351 350 350 350 350 349 349 349 347 341 334
356 365 369 367 367 367 363 359 358 355 360 360 354 359 353 349 347 345 344 344 344 345 349 350 351 353 353 353 353 352 353 353 352 351 352 352 350 350 350 350 350 350 347 349 349 348 342 334 333
357 363 367 364 368 368 359 358 358 360 358 354 354 360 357 348 348 345 344 343 344 345 347 349 349 353 352 353 353 354 354 353 347 350 347 335 339 348 346 347 349 349 349 347 346 339 336 329 331
350 367 369 364 361 363 357 357 358 359 359 357 355 354 350 347 346 344 344 344 345 343 346 347 348 350 351 351 353 354 353 349 348 344 338 346 348 349 350 345 347 347 345 343 343 340 340 336 339
354 367 365 358 357 362 360 357 360 359 357 356 357 353 350 347 346 345 344 344 343 341 343 344 346 349 351 349 352 351 351 352 348 349 346 348 350 347 346 345 346 340 341 342 342 347 342 347 348
351 360 360 356 355 355 356 358 357 358 359 357 359 354 350 346 345 345 344 345 343 340 340 345 347 345 350 348 353 350 351 352 346 349 348 350 349 347 348 346 345 343 339 343 346 346 345 349 348
352 352 354 352 352 352 359 352 351 357 361 353 355 351 350 348 346 344 342 345 343 341 340 343 344 346 347 346 351 349 349 351 346 346 347 349 347 347 341 349 349 349 348 350 346 346 348 343 346
347 349 351 351 353 352 354 357 356 362 356 354 353 351 350 348 345 345 343 343 342 340 342 344 343 349 348 348 347 347 346 347 347 345 349 348 350 350 348 348 344 348 348 344 344 341 350 347 344
343 343 347 353 353 353 352 355 354 359 353 356 353 352 350 348 347 345 344 343 343 340 343 345 344 347 349 347 348 350 349 348 346 345 347 349 351 349 352 350 349 346 346 349 349 345 345 344 346
335 341 344 352 353 357 354 358 355 357 358 356 354 352 351 349 346 346 345 344 343 341 343 344 346 345 349 348 350 347 347 348 343 347 347 350 352 351 349 351 349 350 345 347 342 341 344 343 344
333 338 342 348 355 352 356 361 358 358 359 357 354 353 352 349 346 345 345 343 343 342 344 343 344 347 348 349 349 346 346 348 345 351 348 351 354 354 348 348 348 348 349 341 345 345 342 345 343
331 336 341 345 355 354 352 361 354 355 357 356 355 353 352 351 348 345 345 344 343 344 346 344 346 347 347 351 345 349 347 349 345 349 350 351 353 355 350 343 350 352 347 347 343 344 341 339 341
331 333 335 343 352 353 352 358 358 355 354 356 354 354 353 350 349 346 344 344 343 345 345 344 348 348 347 352 348 349 348 348 349 347 351 353 353 353 355 352 347 352 345 347 347 342 341 342 341
329 329 332 333 347 353 351 356 354 347 351 355 355 355 354 352 349 346 345 344 345 345 344 348 348 349 348 350 352 349 349 348 351 350 349 354 355 353 355 351 349 353 342 347 345 342 342 343 340
332 330 329 333 343 352 357 357 354 347 348 352 354 353 354 352 350 348 346 344 345 346 346 347 349 350 348 351 351 351 348 350 345 352 354 352 355 353 354 352 350 351 348 347 350 344 343 345 337
328 328 328 332 338 347 348 360 354 348 353 357 352 352 352 353 352 350 347 346 344 347 347 347 349 351 348 351 349 350 351 352 349 354 353 353 353 353 353 352 353 348 351 350 351 350 350 348 341
328 327 326 328 334 341 349 362 360 357 358 361 353 352 351 352 353 351 349 347 345 348 348 348 351 354 348 349 348 350 352 350 346 354 354 351 354 354 355 353 355 351 352 350 347 350 348 344 344
328 328 328 326 327 332 339 348 354 363 363 354 349 352 350 353 352 352 350 348 346 348 349 350 351 354 351 348 351 349 351 349 351 350 349 354 354 354 354 355 354 353 351 352 352 351 351 352 350
326 326 328 328 326 327 330 339 343 358 354 353 353 350 352 351 352 352 350 348 347 348 348 351 352 353 352 347 350 350 348 351 349 348 353 355 353 354 355 355 353 354 353 353 353 354 352 351 349
326 326 329 329 328 327 325 328 340 346 353 352 351 353 355 352 353 353 353 351 349 348 349 351 353 354 354 353 347 353 349 347 350 350 353 352 356 354 354 356 354 353 353 353 354 353 355 352 354
326 327 329 332 331 328 329 326 328 334 342 352 352 352 352 354 352 353 353 352 350 349 349 351 355 355 354 357 350 348 352 346 347 352 347 351 348 353 352 353 354 354 354 355 354 354 355 353 351
328 329 326 328 329 332 330 328 327 329 335 347 350 351 353 348 348 353 353 351 352 351 350 352 355 356 356 354 356 349 352 352 349 350 349 348 348 349 354 351 357 354 356 354 354 353 353 355 353
323 326 329 330 332 335 331 335 330 331 333 340 350 349 350 348 346 349 353 351 352 352 352 351 355 357 358 357 357 355 347 352 348 345 348 348 350 345 355 355 354 355 356 355 356 354 352 353 354
323 325 326 328 331 333 333 333 335 337 332 337 348 350 348 347 351 351 352 352 351 352 353 352 353 359 360 359 357 356 355 350 347 349 343 352 348 354 347 354 355 355 354 356 356 352 354 353 353
322 324 324 329 333 333 332 331 332 334 333 332 334 340 350 350 351 348 344 343 352 352 353 354 353 355 359 360 359 357 356 353 352 346 352 349 352 349 356 350 355 353 356 356 355 357 354 355 354

GFSSGP_925_thetae_063.txt.gz
Theta_e
339 337 342 348 358 359 368 368 360 365 358 353 352 355 358 357 358 359 347 349 351 350 345 349 348 347 346 348 349 349 350 348 348 348 351 350 351 352 351 351 349 348 351 350 350 351 352 351 351
339 344 346 354 364 371 367 366 367 358 356 354 354 355 356 357 350 349 349 350 352 350 351 351 348 345 344 345 349 350 349 349 347 350 346 351 349 351 352 351 350 350 350 351 350 350 350 351 351
345 346 355 361 366 372 362 358 361 356 355 355 357 353 354 354 350 350 350 352 352 353 351 348 347 348 349 346 348 349 351 349 347 349 351 349 351 351 352 351 349 350 349 350 350 350 350 350 345
351 348 354 367 369 364 358 358 361 358 357 354 354 355 350 349 350 348 349 350 352 352 349 348 350 352 352 353 350 351 351 351 348 350 350 352 352 351 350 352 351 350 349 349 348 350 348 347 341
351 353 367 368 371 365 363 360 361 362 361 357 353 355 352 348 347 346 344 348 350 348 345 351 350 349 352 349 352 352 352 347 348 350 353 352 352 352 351 350 351 350 349 349 348 348 347 346 344
354 356 367 371 367 367 363 360 360 360 358 357 355 355 352 347 347 345 344 350 348 347 349 351 349 351 351 352 349 349 350 348 349 351 350 353 353 352 350 349 350 350 349 349 348 345 337 338 346
354 362 367 368 367 367 365 356 360 360 358 355 352 356 350 347 347 345 350 349 349 348 347 350 351 352 351 348 352 349 352 348 350 347 350 349 351 351 350 350 350 350 349 348 342 337 335 336 345
356 361 366 365 366 367 362 359 358 359 359 355 351 356 354 347 345 347 346 347 349 349 349 350 350 349 350 351 352 352 353 353 347 345 350 345 349 350 350 347 349 350 349 350 348 342 337 336 338
351 361 368 365 363 357 357 358 355 358 359 355 354 351 348 347 345 344 344 347 350 348 347 348 350 350 351 350 353 353 349 348 341 338 343 347 348 349 349 345 348 350 348 348 340 338 335 336 340
352 363 360 354 358 356 357 356 354 355 357 361 355 349 348 347 345 343 345 345 347 349 348 347 350 351 349 351 350 348 342 342 339 345 347 348 349 345 342 346 345 345 342 339 339 339 344 342 342
347 356 360 358 356 356 360 359 356 360 360 361 356 351 347 347 344 344 344 344 345 348 349 346 350 348 351 345 347 345 348 348 349 348 349 349 348 344 342 342 343 343 341 343 343 343 346 339 344
350 350 358 356 355 356 359 352 353 357 359 356 352 349 346 346 343 343 343 341 342 345 347 347 348 349 347 344 347 350 350 350 347 347 348 349 347 346 346 345 350 346 345 345 344 344 344 345 344
346 349 353 352 351 355 354 355 357 355 352 355 352 348 347 345 343 343 342 341 340 345 347 345 346 351 346 349 353 349 348 351 348 345 348 347 347 347 346 347 347 348 347 346 345 346 345 345 345
340 341 348 350 354 356 358 357 355 350 352 357 353 348 346 344 344 344 344 343 341 345 344 347 348 347 349 351 348 345 348 351 346 345 346 346 348 349 348 343 343 345 347 344 344 347 346 345 344
331 333 335 353 354 356 355 362 356 356 355 356 353 349 346 344 344 343 344 342 342 345 344 347 348 349 348 345 347 348 348 349 347 345 344 348 350 343 349 349 348 346 346 343 345 347 345 345 345
330 330 334 338 354 355 356 365 356 352 355 357 353 350 347 345 344 344 343 342 344 346 343 345 345 349 348 347 350 349 349 349 347 347 347 352 351 348 346 347 348 346 347 346 340 345 345 346 345
329 328 332 335 351 356 357 365 359 350 358 358 352 351 349 346 346 344 343 342 344 345 346 345 343 349 347 349 350 346 348 347 350 348 346 351 353 348 344 345 347 349 347 341 343 344 344 345 343
331 328 328 333 350 355 356 366 363 360 361 357 353 353 350 349 345 344 343 343 343 343 343 344 345 346 346 348 345 346 348 348 347 349 350 352 352 352 350 347 348 347 345 345 344 344 342 343 341
329 331 328 329 336 353 357 365 364 350 346 352 355 352 350 347 345 344 344 343 345 344 342 344 346 347 346 349 345 349 348 350 350 351 351 352 352 353 350 352 350 346 346 346 344 345 344 342 342
328 330 330 329 327 351 356 362 359 350 353 355 352 352 351 348 346 344 344 343 346 346 343 344 347 348 347 350 346 348 349 348 349 350 348 349 353 353 351 349 349 350 344 347 344 344 342 347 339
327 328 327 327 327 351 355 358 356 353 353 355 355 352 350 348 347 344 343 343 345 347 344 344 348 348 347 349 348 351 349 347 347 350 351 353 354 352 352 351 351 349 348 347 348 344 346 349 342
324 325 326 325 324 327 352 364 356 353 356 357 356 351 348 348 347 344 344 343 346 345 347 345 351 348 347 346 346 351 351 350 346 350 352 353 354 352 352 351 352 350 349 349 348 347 347 349 345
325 326 326 326 323 322 323 329 360 354 356 356 356 354 350 348 347 345 344 344 346 346 345 347 350 348 347 350 348 348 350 353 350 349 352 353 353 353 352 353 352 351 351 349 348 351 347 351 352
325 324 324 324 323 324 322 324 340 355 353 354 351 349 350 347 349 346 344 345 345 347 346 347 351 350 347 347 350 348 349 350 352 352 354 351 354 354 353 353 350 350 348 352 351 352 351 348 350
324 323 323 325 325 325 322 322 320 353 352 347 350 350 352 343 349 348 345 345 345 348 347 348 352 353 349 346 350 348 348 349 351 352 350 353 352 354 354 355 353 352 351 353 352 353 354 350 350
324 321 322 328 328 326 324 324 323 344 354 347 349 350 347 347 344 349 347 345 346 349 349 349 350 352 353 348 347 350 347 347 348 353 353 351 353 351 351 355 353 351 351 351 351 353 352 352 349
324 325 321 322 323 324 326 326 324 324 350 354 349 345 345 354 351 351 348 347 346 347 348 350 351 350 353 351 346 348 350 346 346 348 354 355 355 354 348 352 355 351 352 349 353 352 352 353 352
318 321 323 322 324 326 326 326 328 328 325 348 349 349 353 352 353 350 348 349 347 347 349 349 352 351 353 353 350 346 349 348 345 345 347 352 348 351 352 353 353 353 352 354 353 353 352 352 352
319 319 320 319 323 325 326 326 325 328 329 346 347 350 352 347 349 349 349 346 347 347 348 350 353 352 353 353 354 349 347 350 348 347 345 349 349 350 348 354 353 354 354 354 356 354 352 354 352
315 316 319 321 322 324 328 329 327 326 328 335 347 348 350 344 344 348 347 342 342 345 348 349 352 354 354 354 353 355 349 346 350 347 344 347 347 349 354 353 352 356 356 355 355 355 353 352 355

GFSSGP_925_thetae_066.txt.gz
Theta_e
342 335 342 346 355 357 365 365 361 364 359 352 349 351 356 355 358 353 347 349 346 343 343 345 348 347 347 348 348 348 347 343 348 349 350 350 351 349 350 349 350 351 349 351 351 351 352 352 351
339 341 344 352 361 371 368 361 364 361 356 351 353 354 356 356 349 347 348 349 343 342 346 347 346 345 348 348 350 350 351 349 350 346 351 351 350 350 352 350 352 351 351 350 351 351 351 352 346
340 345 354 360 363 370 364 359 358 357 354 355 356 352 353 353 348 347 350 349 345 347 348 346 345 343 346 348 351 350 351 350 350 350 350 351 351 351 350 351 351 351 350 351 351 351 351 350 346
347 347 351 363 368 360 357 357 355 358 356 353 353 355 349 349 349 349 351 350 347 350 347 345 345 344 346 348 348 348 348 348 349 351 352 350 351 352 350 350 350 349 349 352 350 349 350 350 348
350 350 364 367 367 358 358 359 359 360 357 355 351 354 353 348 349 352 352 351 350 349 348 349 351 351 351 351 351 352 351 350 351 350 352 352 352 350 352 351 350 349 348 348 348 348 349 347 346
353 354 367 369 368 363 361 359 360 359 357 354 353 353 349 348 350 350 352 351 348 344 348 349 349 350 350 352 351 352 352 351 351 350 352 352 351 351 351 351 350 350 350 349 348 347 344 346 347
353 360 364 367 368 368 364 358 359 356 356 355 350 352 347 346 346 350 351 349 342 347 349 349 351 353 352 350 352 351 352 352 351 351 352 351 350 350 350 351 350 350 349 348 347 344 344 345 346
352 359 365 363 366 366 360 358 357 356 357 350 348 352 351 345 348 350 349 347 348 346 347 348 351 351 351 351 352 352 352 352 351 350 351 352 351 350 351 348 350 350 350 349 347 338 340 344 343
350 358 366 361 362 363 359 359 358 357 356 353 353 349 346 347 349 348 349 350 349 349 348 350 349 348 349 350 353 353 352 350 343 349 346 348 346 347 346 348 350 349 349 345 339 335 337 340 344
357 362 362 355 358 359 358 357 360 360 358 356 354 348 346 347 346 348 349 349 349 349 347 346 347 348 350 351 351 351 346 342 344 346 348 348 349 344 340 346 349 343 342 339 338 341 343 342 341
354 358 357 356 356 355 358 359 355 357 362 360 357 349 345 345 345 347 348 347 346 345 348 347 348 347 348 349 346 341 338 343 345 347 348 349 347 343 342 341 341 342 341 340 342 344 341 343 344
350 348 348 356 356 358 354 355 356 359 360 355 354 347 346 343 344 345 346 346 347 347 349 350 348 347 344 344 339 345 347 347 347 348 348 347 346 344 343 342 340 341 344 344 345 342 344 344 344
344 344 346 352 356 357 355 357 357 355 354 354 351 347 346 344 344 344 344 345 348 347 347 349 347 348 343 343 345 347 347 347 348 348 347 346 345 344 345 347 346 346 345 344 342 343 343 344 344
340 339 339 354 357 356 357 356 355 350 351 354 354 348 347 343 344 343 341 342 347 347 346 349 348 347 344 347 349 350 349 347 348 348 347 347 346 346 347 345 344 346 345 345 344 345 346 345 344
335 331 332 355 357 358 356 361 358 355 357 358 353 348 347 342 343 342 340 339 345 346 347 348 349 348 347 349 349 349 349 350 347 347 344 346 347 347 347 344 344 344 346 346 345 346 347 346 344
330 327 330 352 355 356 355 365 357 353 356 358 353 349 347 342 342 342 342 343 345 345 346 346 350 347 350 350 348 348 347 349 346 346 348 349 346 346 348 346 346 346 347 345 344 346 346 344 344
325 330 328 331 354 356 357 363 356 356 357 357 354 349 347 344 342 343 341 343 344 345 347 348 349 347 346 350 348 349 349 348 346 346 349 351 346 347 346 346 347 348 347 344 344 345 344 344 344
330 329 326 327 345 356 359 363 355 356 359 358 355 350 347 345 343 343 341 344 344 345 347 347 346 346 346 349 348 347 349 347 347 347 350 351 350 347 345 347 347 346 347 345 343 342 344 344 343
326 327 328 328 328 357 360 365 358 358 353 356 355 353 349 345 344 343 341 344 344 344 344 344 348 346 345 348 347 345 348 348 349 348 348 352 348 349 347 346 345 345 345 345 344 342 346 344 343
328 327 327 326 333 347 362 365 357 359 353 354 355 352 351 348 346 342 342 344 344 344 344 344 344 343 344 347 344 346 348 349 349 349 351 352 350 351 349 347 347 346 345 345 342 343 344 342 342
328 327 328 326 345 358 360 365 364 358 350 353 354 353 351 349 345 342 344 344 343 343 345 345 344 344 344 348 344 348 348 349 351 351 351 351 351 352 351 348 349 348 344 345 345 341 345 344 340
326 323 325 325 322 344 355 367 359 353 351 358 357 355 351 348 345 342 342 345 343 342 343 346 345 345 343 344 345 347 349 348 350 350 349 350 352 351 350 350 349 348 347 343 347 348 347 346 344
327 324 323 324 323 321 334 339 344 353 357 360 359 355 353 350 347 342 342 344 344 343 342 346 346 346 345 345 344 347 352 349 347 347 351 349 353 352 351 350 351 348 346 349 347 346 346 348 347
323 323 320 319 319 322 321 320 333 356 354 358 357 351 352 350 347 343 342 343 344 345 344 346 348 347 346 345 346 345 350 351 349 347 351 351 352 353 350 352 351 350 349 348 347 350 349 347 349
322 317 320 322 321 323 320 320 318 350 349 352 357 354 351 348 347 344 342 343 344 344 346 348 349 348 347 346 344 344 348 349 352 350 349 351 354 353 352 352 351 350 346 350 349 348 351 350 348
323 317 319 324 323 324 321 323 322 327 345 347 352 349 346 347 344 345 342 342 345 344 344 349 350 349 348 346 346 345 347 348 350 351 351 352 353 351 352 353 353 351 348 348 351 350 350 349 348
317 322 318 319 319 320 321 322 323 323 340 345 345 347 348 348 344 347 343 343 346 345 344 346 350 349 348 347 346 345 346 346 348 351 352 352 351 350 350 353 354 352 349 348 352 350 351 350 350
312 316 319 316 322 324 322 323 323 328 336 348 344 349 348 347 350 349 345 343 344 346 345 345 347 349 348 348 347 346 345 346 347 347 350 353 352 351 351 352 354 353 351 350 349 351 350 351 352
312 311 312 314 317 321 322 322 324 332 332 336 345 347 344 350 350 349 348 346 344 346 347 346 346 348 350 349 348 347 345 347 346 347 346 349 353 352 353 353 349 354 352 351 351 350 351 352 351
313 311 308 313 317 318 320 323 327 329 330 332 344 343 344 349 348 348 348 347 346 344 347 347 348 347 347 350 350 348 345 345 347 347 345 345 346 351 353 349 351 352 353 351 353 353 353 352 353

GFSSGP_925_thetae_069.txt.gz
Theta_e
348 343 342 344 353 357 362 366 360 363 359 349 344 349 352 354 356 351 344 344 336 339 344 347 348 350 352 350 347 346 342 348 348 348 346 347 350 348 350 349 349 350 351 351 351 352 352 353 352
344 342 344 352 358 370 367 356 363 361 358 346 349 352 355 355 348 347 348 343 335 339 344 347 346 351 352 351 351 349 348 350 347 350 349 347 349 346 350 351 350 349 350 350 351 351 352 351 351
339 345 353 360 363 370 366 359 361 358 353 353 355 351 353 353 347 346 349 341 338 343 345 346 348 350 351 351 351 349 351 350 347 351 349 349 351 352 351 351 350 350 349 350 351 351 351 349 347
345 347 350 363 368 361 359 357 356 357 356 353 353 355 350 347 346 349 348 342 340 345 345 349 350 349 348 352 351 351 351 351 350 351 351 351 352 349 351 349 350 350 349 351 350 351 351 350 348
349 349 362 367 366 359 355 353 353 359 357 355 352 355 352 348 349 349 345 341 344 347 346 347 348 350 350 351 351 351 351 351 350 349 351 351 352 351 351 350 349 348 349 349 348 350 346 346 346
352 353 366 370 367 359 358 357 358 360 356 354 353 353 350 351 351 351 348 345 348 346 345 349 349 349 349 347 351 350 351 350 350 351 352 350 350 351 350 350 349 349 347 347 349 349 346 347 349
352 359 362 365 364 363 364 359 358 356 355 354 350 353 352 350 351 351 349 348 347 345 350 351 351 352 351 351 351 351 351 350 350 351 349 348 351 350 351 350 349 348 348 348 348 345 346 346 347
352 358 364 361 365 367 361 359 356 355 356 347 345 354 356 349 351 351 349 348 346 348 347 349 349 350 351 352 352 352 351 351 351 350 350 350 350 351 351 347 349 349 348 348 347 345 345 344 347
350 362 362 360 362 364 358 359 358 355 352 346 353 348 347 350 350 350 350 350 351 350 349 349 352 351 349 350 352 352 351 351 351 351 349 349 348 350 349 349 350 349 348 347 343 342 343 344 345
357 363 360 354 357 362 359 359 359 356 356 355 349 346 348 349 349 348 348 349 350 351 350 350 347 347 349 351 351 350 348 347 349 348 348 345 345 345 347 350 350 349 348 344 336 339 341 343 342
355 359 355 355 356 357 358 359 356 357 360 355 351 349 348 348 348 347 347 348 349 349 350 348 346 347 348 351 348 343 343 345 346 347 346 345 344 344 345 347 344 346 343 341 343 344 341 341 343
352 349 354 352 356 357 359 356 358 357 359 352 351 347 347 347 348 347 346 346 348 349 348 346 346 347 348 347 341 337 344 345 346 347 347 345 342 341 340 341 341 341 342 343 345 342 343 344 345
348 346 342 343 354 356 353 356 358 359 357 354 349 347 346 346 347 347 345 344 345 347 347 346 346 344 346 342 339 339 344 345 346 347 347 345 343 341 339 339 341 343 343 342 342 343 344 344 345
340 341 339 337 355 355 356 356 354 355 353 355 354 347 344 345 345 346 345 345 345 346 347 348 347 343 343 339 343 345 347 348 348 348 347 346 344 344 344 345 345 345 343 343 343 344 344 344 344
338 340 331 356 357 359 355 358 358 352 351 356 353 347 344 344 344 343 344 346 344 344 346 348 347 343 342 340 344 346 346 348 348 347 346 346 346 345 345 345 344 345 344 343 344 345 345 343 343
329 325 327 358 357 356 356 365 356 356 353 354 353 348 347 344 343 342 342 346 346 345 345 347 348 346 342 347 348 347 348 349 348 347 345 346 347 346 344 343 344 344 346 345 344 346 345 343 344
324 330 328 355 354 358 357 362 357 355 357 357 353 349 348 344 343 341 339 344 345 346 344 347 347 347 344 349 348 346 347 349 348 347 345 348 345 345 345 345 346 345 346 342 344 345 344 344 344
331 329 326 328 354 356 359 359 358 357 357 358 354 350 348 344 343 341 339 341 345 346 345 346 348 349 347 350 348 348 347 347 348 346 347 348 346 345 346 345 346 346 346 341 343 345 344 344 344
326 326 327 326 330 356 357 361 357 357 357 358 355 350 348 346 342 342 340 343 344 345 345 345 348 348 349 349 347 348 348 348 348 346 347 345 349 347 344 347 346 345 346 344 342 342 343 344 344
326 328 327 326 333 338 350 363 355 358 358 357 355 351 348 346 342 341 341 343 344 345 345 346 347 346 345 349 347 345 348 347 348 347 347 348 349 349 346 346 347 346 346 344 343 343 345 343 343
327 327 327 328 338 355 359 362 358 356 353 350 352 353 349 346 344 341 342 343 343 344 345 347 347 346 345 346 347 346 349 348 349 348 349 349 349 348 347 346 346 347 345 343 342 342 341 341 341
329 325 327 325 321 323 352 360 364 358 358 352 353 355 352 348 344 341 342 343 343 343 345 346 345 345 344 344 346 346 348 349 350 349 349 350 351 351 349 349 346 347 344 345 344 343 343 340 340
328 326 323 323 321 335 341 337 342 355 357 355 354 354 353 349 348 342 341 343 343 342 343 343 343 344 343 342 346 344 347 348 347 349 350 349 351 351 351 350 348 348 346 344 346 347 346 345 342
324 322 317 316 316 320 322 321 330 358 354 353 351 355 353 350 347 342 342 343 342 342 343 344 344 343 343 344 347 344 345 348 348 347 349 350 349 351 351 350 350 350 346 348 346 345 345 346 346
318 317 319 321 320 321 318 319 319 339 350 348 350 354 353 349 348 344 341 343 342 342 342 345 345 345 344 343 343 344 344 347 350 349 347 350 349 350 352 351 351 350 347 348 348 346 349 346 347
320 317 318 323 321 323 318 322 321 320 330 344 347 349 352 349 347 346 341 342 343 342 342 346 346 345 345 345 344 344 343 344 349 349 351 347 349 350 351 351 351 351 350 347 349 349 349 349 346
316 318 317 316 316 319 319 320 321 328 334 343 347 350 352 348 347 347 341 341 342 343 343 345 346 346 345 345 345 344 343 343 347 348 350 351 348 350 351 352 351 352 351 349 349 350 348 350 348
311 312 316 314 321 323 320 321 322 330 331 344 344 349 350 349 345 345 343 341 342 343 343 344 346 346 345 345 346 345 344 342 345 347 347 351 352 350 351 352 351 352 353 352 349 351 350 351 349
310 309 308 310 314 319 321 321 326 329 328 330 338 342 344 344 345 345 344 342 342 343 343 344 346 346 346 346 346 346 345 343 343 346 347 347 351 352 352 351 350 350 352 353 351 349 350 351 350
308 309 305 309 312 313 317 324 318 319 326 340 345 346 343 344 345 346 345 343 342 344 343 343 344 347 346 346 346 345 345 344 343 342 345 347 347 348 353 352 351 351 351 352 352 350 349 351 350

GFSSGP_925_thetae_072.txt.gz
Theta_e
347 343 341 344 352 355 360 364 359 360 358 348 343 345 347 350 354 350 342 342 339 342 345 346 350 350 350 346 343 339 348 348 347 348 349 349 349 351 351 348 350 350 351 351 348 351 351 350 351
342 342 344 352 357 368 367 358 364 360 356 342 344 352 353 355 347 344 346 340 339 342 343 347 349 350 350 347 344 340 347 347 348 346 350 349 350 350 351 350 349 350 351 350 350 350 352 352 350
340 345 354 361 362 367 364 359 360 357 348 347 354 350 352 351 345 344 344 337 340 342 344 346 348 350 350 349 346 345 350 345 350 349 349 351 351 350 351 351 349 347 350 351 352 351 351 350 346
344 346 349 362 367 363 358 358 357 357 355 353 353 355 349 347 343 347 343 336 340 343 345 347 349 350 351 351 349 349 350 347 349 349 350 350 350 351 349 350 348 350 345 350 350 351 348 348 349
349 348 361 366 366 360 354 354 354 359 357 355 352 353 351 349 348 347 341 337 341 345 346 347 350 350 351 351 350 350 350 349 349 349 349 350 350 351 349 349 350 347 349 349 346 347 346 351 348
351 352 365 368 366 361 358 353 354 358 356 353 351 352 353 349 348 348 343 340 342 345 347 348 349 351 351 351 351 349 350 349 348 348 351 350 350 348 348 349 347 347 348 349 350 344 346 349 350
352 359 362 364 363 359 361 357 359 357 356 354 350 354 353 349 349 348 344 343 345 346 345 346 346 349 351 351 347 350 349 349 348 350 346 348 348 348 349 348 348 347 347 349 348 347 350 350 346
351 358 364 361 364 362 357 357 354 355 354 347 348 355 356 349 350 346 348 348 347 345 349 350 351 350 349 350 351 351 350 350 348 346 348 350 348 349 345 345 348 348 348 348 348 346 345 346 345
351 363 364 360 361 363 358 358 357 353 348 350 351 349 349 351 350 349 350 349 350 350 350 349 348 349 351 350 352 351 351 350 349 350 348 347 348 348 346 346 349 348 348 349 345 345 344 346 345
357 362 358 354 356 360 360 358 357 354 351 352 352 349 351 350 349 347 347 346 347 351 350 349 349 348 348 348 351 349 348 349 349 348 346 345 346 346 349 349 349 348 346 341 342 341 343 343 343
357 360 354 354 356 356 359 358 356 357 360 352 354 353 349 348 347 346 345 345 347 349 350 350 351 348 349 350 347 348 347 347 347 347 344 342 341 345 349 350 349 346 343 339 340 341 342 341 341
354 352 351 353 356 357 359 356 358 356 358 348 349 349 349 348 347 346 346 347 347 347 350 348 345 347 349 349 342 344 345 346 347 347 344 341 339 340 344 344 344 342 342 343 343 342 341 343 344
351 349 345 343 354 356 356 357 359 359 352 348 348 349 349 348 347 346 345 347 347 350 349 346 345 346 347 345 340 343 344 345 346 346 346 341 338 337 339 340 342 343 343 344 343 343 344 344 344
341 342 340 337 349 354 355 357 356 359 351 351 350 348 347 348 346 345 343 344 346 348 348 345 345 345 344 339 337 343 344 345 345 346 346 345 344 341 339 340 341 343 344 343 343 343 343 345 343
335 335 333 356 355 355 354 359 357 356 356 357 353 349 347 346 347 345 343 343 345 344 344 345 344 344 343 339 338 343 345 347 347 347 346 345 345 343 342 344 344 344 343 343 343 344 344 343 343
326 325 327 356 356 355 355 362 357 355 355 357 353 349 347 346 346 345 344 342 342 343 344 346 346 343 341 342 343 344 344 346 347 348 346 346 346 344 345 344 343 344 344 344 344 344 344 342 343
324 330 327 351 355 357 356 360 356 356 353 356 354 348 345 346 344 344 344 343 340 340 344 346 345 342 339 338 343 346 346 347 348 347 346 345 346 346 346 343 343 344 345 343 343 345 344 343 344
331 328 326 327 355 357 359 358 357 358 357 354 351 347 345 345 344 342 342 343 343 342 344 344 344 342 342 345 348 347 347 347 348 346 345 346 345 344 345 344 345 345 345 344 343 344 344 343 343
326 326 327 325 335 355 356 356 358 356 359 357 351 349 346 344 343 341 340 344 345 344 344 346 346 344 343 345 348 348 347 346 346 348 345 346 346 346 344 345 345 344 345 342 343 343 344 344 344
326 327 327 326 325 336 344 359 355 357 358 356 355 350 348 344 342 340 339 340 344 345 344 344 346 347 345 346 348 347 347 348 346 347 346 345 345 346 344 345 346 344 344 343 343 342 342 343 342
326 326 326 329 325 353 356 360 358 353 355 350 352 351 348 346 342 341 339 340 343 344 345 344 345 347 348 347 347 347 347 347 347 347 346 346 347 347 346 346 345 345 345 343 343 342 342 342 342
329 325 328 329 321 325 350 358 356 355 357 352 350 352 351 345 341 340 340 342 342 344 344 344 344 346 348 348 346 345 345 347 347 347 346 347 349 348 348 347 345 346 346 344 341 342 342 340 340
327 324 326 325 320 338 338 336 340 355 355 354 352 350 351 349 344 340 340 342 342 343 343 344 344 345 346 346 347 346 344 346 346 347 348 348 350 350 348 348 347 347 346 345 345 343 344 342 340
323 318 314 314 315 319 326 324 322 351 351 349 350 350 349 350 347 342 341 342 342 343 343 344 344 346 346 345 347 346 345 347 347 347 348 349 348 350 350 350 350 348 347 346 344 345 344 345 344
317 316 318 320 319 321 316 320 320 320 327 335 345 349 349 348 348 345 340 342 342 342 343 343 344 345 345 345 345 345 344 344 346 347 347 348 349 349 350 350 350 348 349 347 348 345 345 344 346
317 317 317 322 321 321 317 321 326 325 328 338 340 347 349 349 348 347 340 341 342 342 342 343 343 344 344 344 343 344 345 344 345 346 347 346 346 348 347 350 349 350 349 349 348 348 347 348 347
316 316 314 314 314 318 318 319 319 324 329 333 341 346 348 350 348 346 340 341 341 341 341 343 343 343 343 343 343 344 345 344 344 346 348 348 348 347 349 349 349 350 350 350 347 349 349 348 349
310 310 317 315 321 323 319 324 325 322 324 337 344 345 343 349 347 345 343 340 342 341 341 342 343 343 343 343 343 343 342 344 342 343 348 348 349 350 348 348 349 350 350 351 351 348 349 350 349
309 308 307 310 313 318 320 326 320 319 330 341 340 341 345 342 347 344 344 340 341 342 341 341 344 344 344 344 344 344 344 344 344 342 344 348 348 349 351 350 350 350 349 349 349 350 348 349 349
307 308 304 313 313 311 317 319 326 336 337 335 338 339 341 343 343 344 344 341 340 341 342 342 343 344 344 344 344 344 343 344 344 342 342 345 347 347 348 351 351 351 350 350 351 352 350 348 348

GFSSGP_925_thetae_075.txt.gz
Theta_e
346 344 343 345 355 358 363 365 359 361 356 347 343 345 346 345 353 356 343 343 343 347 348 350 350 350 350 346 343 349 348 349 350 347 343 343 351 346 344 350 349 350 351 350 351 351 349 350 351
346 344 346 354 360 368 367 359 362 360 352 344 347 345 353 354 348 344 344 342 344 347 348 350 349 350 344 347 344 349 349 349 348 350 350 349 346 350 349 348 350 350 351 352 347 351 352 346 347
344 346 355 362 364 367 362 360 360 356 346 348 354 350 353 352 345 342 343 343 345 348 349 351 349 349 350 350 346 349 347 348 348 346 346 347 347 347 350 350 350 351 351 350 351 352 351 346 345
345 348 352 363 366 363 359 358 357 351 353 353 353 356 348 346 342 345 342 344 346 348 349 348 349 351 351 350 347 349 347 349 350 347 348 350 347 350 350 350 350 349 351 351 352 347 346 346 346
349 351 363 366 366 361 355 354 356 356 358 355 352 354 350 346 348 342 343 345 346 349 350 351 350 352 349 350 350 350 347 349 347 346 348 350 351 350 350 349 349 350 350 349 348 349 346 345 347
354 354 365 367 364 359 358 353 355 359 357 353 352 353 353 348 344 343 343 345 347 349 350 351 350 351 351 349 350 348 347 347 346 350 350 347 349 345 349 347 348 348 349 350 349 345 346 347 346
355 361 363 364 362 361 361 355 356 357 357 355 349 356 350 347 344 344 344 347 348 350 350 351 351 353 351 351 348 349 349 346 350 346 347 348 344 350 349 349 345 348 350 350 346 348 346 345 345
354 359 364 362 362 357 358 357 355 355 356 349 349 355 352 347 345 345 346 348 349 350 349 348 349 352 351 351 350 349 348 350 345 346 348 349 349 347 345 346 348 348 349 350 348 346 346 344 343
352 364 365 361 363 363 357 357 355 353 352 349 350 349 346 346 346 345 348 349 350 349 350 352 351 351 352 352 352 350 351 346 348 349 348 348 349 347 347 346 348 349 350 348 345 345 346 345 344
358 364 360 356 358 362 358 358 356 353 354 355 353 349 348 348 345 346 347 348 348 351 351 351 351 352 352 351 352 352 349 351 351 350 349 349 349 347 347 348 348 348 347 344 343 344 344 345 348
358 363 356 356 357 357 358 358 355 352 357 354 355 351 348 347 345 347 347 347 347 349 350 350 351 352 351 352 349 348 350 349 349 344 346 348 348 349 348 347 347 347 346 348 347 346 346 346 346
359 354 353 354 357 357 359 356 358 356 355 350 351 349 348 348 347 347 346 346 345 348 350 351 351 351 352 350 347 349 349 349 347 348 343 342 347 348 349 347 348 347 346 345 344 346 342 345 344
353 352 347 347 355 356 357 357 358 357 351 351 350 349 348 348 347 347 345 344 346 347 349 350 352 352 352 350 349 349 349 348 348 348 344 341 345 344 345 344 346 346 346 347 344 346 346 346 347
342 343 339 340 346 357 358 359 355 355 349 351 352 352 351 349 347 345 345 345 345 346 348 348 349 351 351 348 346 349 349 348 348 346 346 341 340 339 343 345 345 344 345 344 345 344 346 348 347
339 336 345 355 351 356 355 362 359 355 351 352 352 350 349 347 346 345 343 344 345 347 348 348 349 349 349 341 344 347 348 348 350 347 345 345 344 343 343 345 347 345 343 343 344 344 345 347 347
331 330 334 358 356 356 356 362 357 354 353 354 350 350 350 349 347 346 343 343 344 346 348 348 347 349 348 345 341 345 348 350 351 348 346 345 345 344 345 345 344 344 344 344 348 348 348 347 346
331 339 333 359 357 358 359 361 357 356 355 355 352 351 349 348 347 347 346 343 343 344 346 347 348 348 348 340 345 344 345 346 348 347 346 345 345 345 345 345 344 344 345 347 345 348 347 347 347
339 334 331 347 360 359 361 360 359 356 355 358 355 352 351 349 348 347 346 345 342 343 346 347 348 347 346 345 343 347 349 347 347 346 346 344 346 346 345 344 344 344 344 344 344 345 344 346 347
330 332 332 330 349 352 353 357 361 360 356 358 356 354 351 349 347 347 346 344 342 342 346 348 348 346 346 345 347 350 349 350 348 347 345 345 346 345 344 345 345 345 346 345 343 345 347 347 344
330 332 332 330 334 337 342 356 359 359 358 357 356 353 351 349 348 346 346 345 343 342 345 348 348 346 345 347 349 349 349 349 349 346 347 345 345 346 345 343 345 344 347 342 343 342 347 347 343
331 334 331 331 329 357 357 363 361 358 358 357 354 351 349 349 348 345 345 345 345 344 345 347 347 348 344 347 349 348 348 348 349 348 349 346 346 346 346 345 346 344 346 347 344 342 345 347 345
336 329 329 331 331 331 355 350 360 360 360 358 358 354 351 349 347 345 344 344 345 345 346 347 347 346 347 344 348 350 350 349 350 349 349 349 346 348 347 346 346 346 344 343 342 342 343 343 346
333 329 330 331 330 336 350 345 348 359 362 359 356 357 354 350 348 347 343 343 344 345 346 347 347 346 347 347 347 349 350 350 350 350 348 348 348 349 349 348 346 345 346 346 344 342 343 343 344
328 325 323 323 325 330 343 335 333 341 339 339 352 353 355 352 348 346 345 344 344 344 346 347 348 348 345 346 348 348 349 349 349 350 351 351 352 354 351 348 349 346 347 344 346 346 345 347 347
327 327 329 329 328 333 324 332 336 336 338 343 348 344 352 353 351 347 346 345 345 345 345 346 348 348 348 345 348 349 350 348 345 347 351 351 352 352 353 350 347 347 348 348 347 345 346 346 349
328 328 329 332 330 330 324 331 334 330 338 345 347 348 346 352 352 350 346 345 345 345 346 346 347 347 348 348 347 347 349 349 348 349 349 351 351 351 351 349 349 348 348 348 347 350 351 348 349
321 326 321 324 321 328 326 327 326 335 342 343 345 346 348 350 348 351 348 345 345 345 346 346 347 348 348 347 349 347 346 347 348 349 346 349 347 350 347 348 349 349 348 348 349 351 347 347 349
319 316 325 325 330 330 328 332 331 343 342 341 343 343 345 347 350 350 350 346 345 345 345 346 347 347 346 347 348 348 348 347 348 346 346 349 348 347 351 350 350 348 349 349 350 351 349 349 352
317 318 319 323 323 329 330 331 338 339 337 339 340 340 341 348 349 351 349 346 346 345 345 345 346 346 347 347 347 347 347 346 348 349 346 347 347 348 349 350 350 351 349 350 350 351 354 352 355
313 313 314 327 327 323 327 329 332 335 333 333 336 336 338 340 345 348 348 346 345 345 345 344 345 346 346 346 346 345 347 346 347 346 345 344 345 348 348 349 352 354 354 352 350 351 353 350 353

GFSSGP_925_thetae_078.txt.gz
Theta_e
342 343 346 349 359 357 365 365 360 362 358 350 347 347 348 347 353 360 343 343 347 348 348 351 348 351 350 348 350 346 353 346 346 349 350 351 345 348 351 351 351 351 350 352 352 352 349 349 346
343 344 349 357 363 368 367 360 363 360 353 348 346 346 349 358 347 345 343 344 347 347 348 349 346 350 349 349 350 347 351 350 351 351 348 350 351 349 351 350 351 352 352 351 352 349 347 348 351
343 348 358 364 366 369 364 363 362 356 347 349 348 352 352 356 345 343 342 344 346 347 347 351 350 349 350 350 350 350 351 351 347 347 350 346 349 350 351 350 351 352 351 350 353 350 348 349 351
348 351 356 369 367 363 359 360 355 351 351 352 351 358 350 348 343 344 343 345 346 347 347 349 351 351 351 350 350 350 351 351 346 350 351 348 350 351 351 351 351 351 352 351 350 346 349 350 351
350 354 365 368 366 360 357 357 351 356 356 353 351 356 351 345 346 344 344 345 346 347 349 350 350 350 350 350 350 351 350 350 345 347 351 348 351 350 350 350 351 351 351 350 346 346 346 351 351
358 357 367 368 363 360 357 356 357 357 358 355 355 356 352 347 344 344 344 346 347 348 349 350 351 352 350 351 350 349 348 345 349 349 347 350 350 349 348 350 350 350 350 350 346 345 344 345 349
359 363 367 364 363 363 359 355 359 359 359 356 353 357 351 345 344 344 346 346 348 349 349 350 351 352 351 351 349 350 348 348 344 350 349 348 350 350 350 347 350 351 349 346 346 344 342 344 344
356 362 365 363 362 364 358 356 356 356 358 350 351 356 353 345 344 345 346 347 349 349 349 349 350 351 350 350 349 351 347 349 348 349 349 350 347 346 344 344 349 350 343 345 346 344 342 343 343
353 365 364 364 360 361 356 356 355 351 354 352 352 350 345 344 344 345 347 348 349 349 348 346 347 349 352 351 350 349 349 343 344 348 344 347 345 346 346 345 350 350 346 348 347 344 344 344 344
359 364 361 357 359 359 357 356 355 355 355 356 354 347 345 344 345 346 347 348 348 347 347 348 350 351 351 348 349 350 349 350 348 348 348 345 346 347 344 346 350 348 344 344 344 343 346 347 345
359 360 354 355 359 357 358 355 353 354 360 358 357 350 346 344 345 347 347 347 346 346 346 348 351 351 349 350 348 346 346 348 349 349 347 345 345 346 343 346 347 348 349 348 349 348 347 349 346
360 355 351 352 354 358 361 354 360 355 357 353 353 347 346 346 346 346 346 346 346 346 347 348 351 350 348 346 347 346 346 345 345 347 348 347 344 345 345 346 348 347 347 348 348 347 350 350 349
356 353 346 344 355 355 357 358 357 356 353 352 350 347 347 346 345 345 345 345 344 346 347 348 350 351 348 348 348 347 345 344 345 346 348 346 345 347 347 349 348 348 349 347 348 349 350 350 349
349 349 342 340 349 353 358 358 355 355 354 352 350 349 348 346 346 346 344 343 344 345 347 349 350 350 349 350 350 348 347 347 346 346 346 348 345 348 348 349 349 349 349 348 349 350 350 348 348
346 344 344 347 344 352 356 362 360 355 354 353 352 350 349 347 345 344 343 342 344 345 347 348 349 348 350 350 351 349 348 349 349 348 351 350 348 350 350 349 349 349 350 351 350 349 349 346 346
346 341 343 352 350 353 357 365 361 354 354 353 351 351 349 346 343 343 342 342 343 344 347 348 347 346 349 350 351 349 349 350 350 350 350 352 352 352 351 349 348 349 349 349 348 349 346 345 345
345 350 341 356 355 358 359 362 360 354 353 352 349 347 343 343 344 345 343 342 342 344 347 349 348 346 347 350 350 350 351 350 351 350 350 352 352 352 352 350 349 351 349 348 347 348 347 345 344
351 346 339 354 359 358 358 359 362 355 355 353 351 350 344 346 348 348 347 343 341 343 346 348 348 347 347 348 349 349 349 349 350 350 350 351 352 353 352 350 351 352 349 347 348 349 348 346 345
344 343 343 345 356 355 351 351 362 361 358 356 354 352 350 348 348 348 348 347 342 342 345 347 348 348 349 349 347 347 348 349 349 351 352 352 352 352 352 350 352 352 349 350 350 349 349 343 345
339 340 338 334 340 340 336 344 354 360 359 359 358 356 354 349 348 348 348 348 343 341 344 347 349 349 350 348 347 348 348 349 349 351 352 351 353 354 352 351 351 352 349 352 352 350 345 342 344
339 343 337 337 334 344 347 358 358 358 358 357 357 356 354 353 350 351 350 348 344 340 344 347 349 349 348 348 351 353 352 353 351 351 351 352 353 353 354 352 351 353 351 347 352 350 350 343 347
338 338 335 333 335 345 345 358 360 359 364 359 357 356 355 353 351 351 350 349 347 343 343 347 350 350 349 352 351 352 350 348 348 350 350 352 353 353 353 353 353 354 350 350 351 349 350 347 344
335 336 336 334 335 334 340 346 353 357 359 362 359 355 352 352 351 351 350 348 347 346 345 347 350 352 349 351 351 352 352 349 349 349 353 353 355 351 352 353 353 354 351 354 352 352 352 347 345
333 333 334 334 334 336 340 342 343 349 347 346 347 355 356 352 352 350 348 347 346 347 347 348 350 352 353 353 353 353 351 351 349 349 352 352 352 353 353 351 352 351 351 354 352 351 353 352 351
332 332 336 338 333 334 337 338 345 343 350 351 351 350 350 355 352 351 350 348 347 347 348 349 350 353 353 353 354 354 354 353 353 352 345 350 351 351 355 354 351 351 351 353 353 350 352 350 347
333 331 332 337 333 333 334 339 341 345 347 348 349 350 343 353 355 352 350 349 348 348 348 349 350 353 353 353 353 354 354 352 351 350 348 349 350 351 353 356 351 352 352 353 355 350 349 351 346
332 332 329 332 331 333 333 338 340 341 345 347 346 347 350 350 354 353 350 349 349 349 349 349 350 352 353 352 353 353 354 353 349 348 350 350 351 350 353 355 354 352 352 352 355 350 352 352 352
327 329 330 330 334 336 333 337 344 346 345 344 343 344 349 351 353 353 352 350 349 349 349 350 350 352 353 352 352 352 353 354 353 351 350 351 349 352 351 356 355 353 355 355 355 352 352 353 352
324 327 328 329 329 333 336 338 343 341 340 341 340 340 344 346 352 352 351 351 349 349 349 349 351 351 353 353 352 352 352 352 353 351 351 352 351 352 354 356 355 354 354 355 357 355 353 355 352
320 324 327 330 331 330 332 345 338 339 336 337 337 337 337 340 340 341 344 351 350 350 350 350 350 350 351 352 352 352 352 352 351 351 351 351 352 352 354 356 355 351 353 355 357 355 352 354 353

GFSSGP_925_thetae_081.txt.gz
Theta_e
340 342 347 350 362 356 363 366 359 361 355 350 348 348 349 354 358 360 345 348 348 348 347 348 349 350 350 351 348 351 344 338 340 348 350 350 351 352 353 353 353 353 352 353 352 351 351 352 351
343 343 348 357 365 369 365 363 364 360 353 348 347 347 355 355 349 346 346 348 348 347 346 346 347 348 348 351 346 352 352 351 350 351 351 351 349 352 353 352 353 353 353 353 352 346 351 350 352
348 346 358 365 370 369 371 364 362 353 349 348 350 350 355 349 346 345 346 347 346 348 346 347 348 349 348 352 346 351 352 352 351 351 351 352 351 352 351 352 353 352 353 353 346 347 352 351 350
345 350 356 371 369 362 363 362 355 350 351 348 352 356 351 344 345 345 346 347 346 347 349 349 351 352 352 351 352 349 352 351 350 352 352 352 352 352 351 352 352 352 353 352 347 347 349 351 350
348 355 367 367 368 358 359 355 352 356 353 351 352 356 349 346 344 345 346 347 346 349 349 351 349 351 352 352 352 351 352 350 352 351 352 352 351 351 351 352 352 352 351 351 350 348 352 351 350
359 360 370 369 365 360 358 353 356 355 352 354 355 354 351 347 345 345 345 346 348 347 348 349 348 350 352 351 352 351 348 349 346 351 351 352 350 351 351 352 351 352 349 349 350 352 351 349 349
359 367 368 365 366 364 362 357 360 356 354 356 353 355 351 347 345 345 346 347 347 349 347 349 351 352 352 351 351 351 347 350 352 351 349 351 351 349 350 351 351 349 350 348 349 345 347 347 338
357 364 366 362 367 366 360 359 357 355 360 352 352 353 352 346 345 346 347 347 347 347 346 350 349 348 350 350 351 351 351 350 350 347 345 340 344 346 349 345 350 350 346 345 343 342 343 341 336
354 367 366 365 364 362 358 360 356 355 355 354 353 348 346 345 345 346 346 348 348 347 347 348 348 351 349 350 349 348 344 349 343 344 345 346 349 347 348 345 347 349 345 343 342 344 342 339 340
361 366 363 360 357 362 356 357 355 357 357 357 352 346 345 345 345 345 347 348 347 345 344 346 349 349 350 346 351 348 349 348 347 347 349 348 347 344 343 347 347 344 343 342 344 346 347 348 349
359 360 356 360 357 356 356 354 352 355 360 357 352 349 346 345 345 345 346 345 344 344 347 350 350 350 349 346 348 348 346 348 346 347 343 343 346 344 344 348 348 350 349 350 350 348 347 346 344
361 356 353 358 356 356 358 354 355 355 358 354 351 347 346 346 345 344 344 344 343 345 346 351 350 347 345 346 347 345 345 344 345 344 345 345 343 344 346 347 344 347 349 348 348 347 348 347 344
358 353 348 351 352 357 355 358 359 358 355 353 350 347 346 345 344 343 343 344 344 345 345 348 348 349 346 348 344 345 343 344 344 346 346 345 347 348 347 348 347 346 346 345 347 349 349 348 346
353 354 346 346 347 358 358 358 357 356 354 355 350 348 346 344 343 343 342 343 343 345 346 348 348 348 348 349 348 346 345 344 345 345 347 348 347 348 348 349 349 348 348 349 349 350 348 347 345
351 350 345 347 351 356 357 362 360 356 354 354 351 348 347 344 342 343 342 342 342 345 346 348 348 348 350 349 347 348 346 345 345 346 349 349 349 353 349 347 349 348 349 352 349 350 347 346 345
352 350 350 348 349 354 358 367 361 357 356 355 351 348 347 345 343 342 341 340 342 344 347 348 346 347 349 350 350 347 349 348 348 346 347 350 352 351 351 349 347 346 350 348 347 348 344 345 345
350 352 348 352 352 356 359 367 360 356 354 355 350 349 347 346 342 341 341 340 342 344 347 347 346 346 349 351 349 348 350 350 350 349 350 351 352 352 354 348 348 349 347 347 346 347 346 345 344
349 349 347 353 355 356 360 361 361 356 356 353 351 348 347 345 343 343 341 340 342 344 348 348 347 345 349 350 350 349 348 349 349 349 353 353 353 353 355 349 349 351 348 348 348 349 347 346 344
341 344 351 352 351 358 357 361 361 356 356 357 350 347 344 343 344 345 344 343 343 344 346 349 348 348 348 349 348 345 346 347 348 351 352 353 352 353 353 349 350 351 349 349 349 348 348 343 340
342 345 341 347 349 358 360 360 363 359 357 355 353 352 344 343 347 348 348 345 342 343 345 348 349 350 349 348 347 345 345 344 347 352 351 353 353 354 352 353 351 353 350 351 350 351 352 339 342
343 344 341 341 345 344 340 351 361 358 358 355 354 352 351 346 349 350 349 347 342 341 344 348 350 351 351 349 349 351 352 352 347 351 350 352 352 353 354 353 353 353 349 349 351 349 346 349 342
342 340 338 339 340 346 345 364 356 363 359 361 359 356 355 352 349 349 349 349 343 342 344 348 350 351 351 351 349 352 349 345 346 348 349 354 353 353 353 353 353 354 351 353 349 346 353 349 347
335 338 340 337 338 343 347 356 357 359 362 361 358 359 356 353 349 350 349 349 345 342 345 349 351 352 349 351 353 352 353 349 349 348 354 353 355 353 352 354 354 354 352 350 351 351 350 346 346
333 336 338 338 337 340 338 346 359 357 361 361 357 357 356 353 351 350 349 350 345 344 343 347 352 353 352 352 354 355 353 351 352 348 351 351 353 352 353 353 354 354 353 354 353 353 353 352 354
334 338 341 340 338 337 335 344 353 351 352 352 351 351 356 353 352 351 351 350 345 345 346 347 351 354 355 354 354 355 354 353 354 354 349 349 350 350 355 354 355 353 354 354 355 355 353 353 349
334 336 337 339 336 334 335 348 354 350 351 349 350 349 352 354 352 351 351 350 348 345 346 349 352 355 355 355 355 356 356 353 350 352 349 348 350 350 358 355 353 354 353 354 354 353 352 349 351
335 336 331 333 333 332 341 350 348 348 350 347 348 352 354 347 355 353 351 349 348 347 346 349 351 355 356 355 356 356 357 356 350 348 351 349 351 351 354 351 353 353 353 354 354 353 355 354 354
330 333 334 332 337 335 342 349 350 349 350 346 345 348 352 356 355 352 353 350 350 350 347 348 351 353 356 356 356 356 356 357 355 352 351 350 350 352 351 353 354 355 353 354 354 352 353 353 352
330 332 333 332 334 335 343 352 349 347 346 344 342 342 343 346 350 350 351 352 351 351 350 350 351 352 355 356 355 355 355 356 357 355 353 352 352 353 353 356 354 356 356 355 354 352 354 356 353
326 330 332 334 335 333 335 353 342 344 344 341 340 339 339 341 340 340 342 343 346 349 350 349 350 351 353 354 356 356 355 355 355 356 355 354 353 353 352 354 356 357 355 355 356 355 350 352 355

GFSSGP_925_thetae_084.txt.gz
Theta_e
337 341 347 350 362 356 363 364 362 355 352 347 347 351 354 352 356 362 350 350 349 349 350 352 350 348 347 349 351 346 348 349 350 349 348 352 352 353 351 352 351 351 353 353 352 353 352 353 351
343 343 347 358 369 364 367 359 366 358 349 347 352 352 351 353 348 351 350 348 348 346 345 347 345 352 348 350 348 351 352 351 351 348 349 350 352 350 351 353 353 350 352 352 353 352 353 352 347
348 346 356 363 369 371 372 364 363 353 346 350 355 347 349 350 347 350 348 348 345 345 347 346 343 352 351 351 351 352 351 352 352 351 350 350 351 352 352 351 353 352 348 347 352 353 351 350 337
348 350 353 369 370 362 365 363 353 350 351 351 350 349 346 345 347 348 348 347 346 347 348 347 346 352 351 351 352 352 351 352 350 351 351 351 351 352 353 352 352 353 350 347 344 352 352 347 344
347 356 367 366 365 359 360 355 355 351 355 352 348 349 349 346 346 346 346 349 349 348 348 352 348 352 352 352 352 352 352 351 349 350 349 351 352 352 353 353 353 351 348 351 347 352 350 343 345
356 360 370 371 362 359 358 358 356 357 355 351 347 348 349 345 345 347 347 349 351 349 349 351 350 352 351 352 352 351 351 351 351 351 352 352 352 352 352 352 351 349 351 350 351 351 344 338 341
358 366 369 365 366 365 362 359 356 355 356 353 349 351 347 345 345 347 348 348 346 349 349 350 352 352 352 352 352 351 352 352 350 344 347 347 349 352 352 352 351 350 351 352 345 339 335 334 338
358 364 368 364 367 368 360 359 360 357 357 350 348 352 350 346 345 346 346 348 348 347 348 349 351 351 350 352 352 351 349 347 342 346 343 343 348 350 348 348 350 351 350 344 342 337 333 334 339
354 368 369 367 364 366 359 362 357 357 354 354 350 346 344 344 347 347 345 348 347 348 349 350 351 350 349 350 351 351 345 340 342 342 345 348 349 349 349 346 346 345 341 341 341 339 335 337 341
360 367 366 359 359 363 358 357 356 357 355 354 348 345 343 344 348 348 346 347 347 350 350 351 350 351 349 347 349 348 345 349 349 349 346 345 347 344 346 344 343 341 341 344 346 345 338 346 344
361 361 360 359 357 357 358 357 353 356 359 352 350 346 344 343 346 345 346 344 346 349 352 351 351 351 348 347 350 348 347 346 348 348 348 347 336 338 342 342 346 345 346 348 349 348 348 350 350
363 356 358 358 355 355 357 353 356 356 360 350 347 345 344 343 344 348 348 347 350 350 351 348 351 350 349 349 350 346 347 344 346 346 343 347 346 347 348 349 350 345 348 335 347 350 349 343 341
362 355 356 357 355 354 353 356 355 359 357 351 347 345 344 343 342 344 344 343 350 351 350 347 350 346 350 348 350 347 347 346 340 344 345 348 345 348 348 344 347 348 350 348 346 347 346 347 347
353 353 349 351 357 355 355 360 357 359 356 354 349 346 344 343 342 343 343 343 343 349 348 347 350 346 349 348 343 343 345 345 347 346 346 348 346 349 348 348 348 348 349 349 340 348 349 344 345
351 357 348 351 358 359 356 362 361 356 357 355 350 348 344 344 341 343 343 343 343 347 348 348 346 349 352 346 345 347 345 349 347 345 350 349 350 349 347 341 348 350 348 351 350 351 346 347 346
355 353 351 350 356 357 359 368 359 355 356 354 350 348 344 344 342 342 341 342 343 347 348 347 345 350 347 344 349 346 347 350 347 349 348 353 351 351 352 351 344 351 345 350 347 348 344 344 346
352 356 353 351 354 358 360 367 362 354 354 353 351 348 345 344 343 342 341 341 343 348 347 348 345 348 349 345 351 349 345 349 348 348 349 350 351 352 349 350 346 353 349 347 347 346 346 346 343
349 349 351 353 355 358 362 363 361 357 355 355 351 348 347 344 344 342 340 341 342 347 347 348 346 348 351 348 351 349 350 349 349 350 351 352 352 353 350 352 348 346 351 348 347 346 344 345 342
343 345 353 352 350 359 362 364 359 359 356 355 351 349 347 346 343 341 341 340 342 346 349 349 348 348 351 350 350 348 348 350 352 353 353 352 352 352 352 352 349 345 345 349 351 349 349 346 345
340 342 348 349 350 361 362 364 361 357 355 355 352 349 348 345 344 344 342 342 343 347 349 350 350 346 351 347 348 348 350 350 350 351 352 353 352 349 352 350 352 350 350 351 350 345 351 344 343
337 341 346 350 347 349 353 365 352 358 356 355 354 353 349 345 347 348 345 344 345 348 349 351 352 347 349 349 348 350 350 350 351 351 352 352 353 353 353 354 352 350 345 351 350 350 343 347 344
337 339 345 350 353 363 354 372 368 361 360 358 355 354 352 344 347 350 347 346 345 347 348 351 354 350 350 352 349 349 349 350 350 350 353 352 351 353 353 353 354 352 349 346 349 348 349 349 348
337 339 342 340 341 340 343 347 366 361 365 351 353 354 352 350 348 349 349 348 343 344 347 351 354 352 350 352 351 348 348 352 349 352 350 353 353 354 353 353 353 353 353 350 352 349 348 351 351
335 338 340 341 339 339 345 346 364 362 357 358 354 356 345 350 350 348 349 349 346 345 346 352 354 354 353 349 350 351 353 350 348 348 349 352 352 353 353 354 354 353 351 347 354 351 352 352 352
335 336 340 344 343 340 335 343 359 350 360 359 357 356 349 349 352 352 352 350 349 345 348 353 356 356 355 349 353 357 355 353 354 351 349 353 347 351 353 353 354 354 350 352 353 353 352 355 347
334 334 339 343 339 338 336 344 359 348 356 352 350 356 348 349 355 351 351 351 351 345 347 352 357 358 356 355 355 353 351 355 353 354 353 346 348 350 354 352 355 354 352 354 354 355 349 351 347
334 336 336 337 336 336 350 356 354 352 350 350 352 356 355 357 357 354 352 351 351 347 348 351 356 358 358 357 357 358 357 355 349 347 349 348 354 349 351 353 353 353 354 353 353 351 353 353 353
335 333 336 337 341 339 354 357 357 355 352 348 348 348 347 346 355 352 351 348 352 349 349 352 356 358 358 357 358 359 360 357 354 355 351 353 355 349 350 351 354 353 354 354 353 354 351 353 353
333 333 334 334 335 336 354 359 351 353 350 348 345 344 345 344 347 350 347 343 351 351 349 351 357 358 359 359 359 358 359 359 359 356 354 350 351 355 352 340 351 353 353 352 353 351 351 353 350
331 333 334 336 340 336 353 357 346 347 345 344 341 342 343 343 340 343 344 343 340 343 350 351 351 355 358 359 359 359 359 358 359 358 357 354 352 352 352 354 355 356 354 354 353 353 352 353 353

GFSSGP_925_thetae_087.txt.gz
Theta_e
339 334 340 347 360 357 363 363 360 355 354 349 350 351 353 353 354 359 348 350 350 350 350 350 349 347 345 346 343 342 343 345 344 350 350 351 351 348 350 349 350 351 350 353 353 352 350 350 348
334 342 345 353 365 364 364 358 362 360 353 347 348 351 355 358 351 350 349 350 351 351 351 347 346 346 347 346 349 351 351 349 348 347 350 351 352 350 352 351 348 353 352 353 353 353 350 347 343
345 345 352 360 366 369 367 361 362 357 350 347 349 347 353 355 350 349 349 348 346 347 343 350 349 347 350 351 349 348 350 349 349 348 349 352 352 352 352 353 353 350 352 353 352 350 347 344 343
348 350 354 365 363 362 362 359 359 350 347 347 347 351 350 350 348 348 347 345 345 343 338 350 350 351 351 351 349 352 352 349 348 350 347 350 351 353 352 352 352 351 350 352 352 350 347 342 346
349 354 363 366 362 360 360 360 355 353 349 348 348 352 353 348 347 347 346 346 347 340 340 350 350 349 350 352 351 351 351 348 348 350 350 350 352 352 352 353 352 353 351 352 352 343 343 345 344
352 357 369 369 361 362 360 357 352 350 347 350 350 350 350 348 347 346 347 347 344 345 342 351 350 350 350 351 351 349 348 350 351 349 347 352 352 352 353 352 353 350 342 352 346 337 340 341 343
356 364 369 360 362 365 363 359 360 348 348 349 347 351 346 348 349 349 349 347 348 349 347 348 350 352 351 350 351 350 348 351 351 350 352 352 352 353 352 350 351 352 352 351 336 332 334 340 341
355 362 369 363 367 366 360 360 360 354 351 345 345 350 350 346 348 350 350 349 349 348 347 349 349 348 349 349 351 351 351 350 349 351 350 350 352 352 348 348 348 352 352 350 336 332 333 339 340
355 366 370 366 364 366 359 361 358 357 353 347 346 345 346 347 347 347 348 348 349 349 350 349 349 350 347 348 347 348 343 342 343 343 346 345 344 347 346 343 343 348 342 340 332 332 338 339 340
360 365 369 361 360 363 360 360 358 356 356 353 346 345 346 347 348 346 346 348 350 350 351 352 350 349 345 344 338 339 342 345 345 346 348 349 347 344 342 342 345 347 345 345 343 338 339 340 341
361 365 361 359 358 357 358 356 354 356 357 347 346 345 346 345 345 345 345 346 350 351 351 349 348 347 348 344 340 341 346 347 347 345 345 348 346 343 342 341 341 344 342 345 345 341 345 347 348
364 358 359 358 356 356 357 354 356 360 359 347 343 343 347 345 344 344 345 350 350 348 351 350 350 349 350 348 347 344 344 346 348 347 346 340 342 344 343 346 345 344 347 343 346 347 349 349 348
350 355 358 355 354 354 352 355 358 357 355 350 343 342 347 346 345 345 347 349 350 351 351 351 350 350 349 350 348 343 346 345 345 345 345 347 345 348 347 345 345 348 344 344 340 345 345 346 341
356 355 358 355 354 353 355 355 355 355 346 353 344 342 340 340 346 347 349 349 349 349 349 346 346 349 350 350 347 347 349 340 344 346 347 348 347 346 341 346 345 347 348 343 343 346 345 345 341
354 357 353 357 356 357 357 361 360 353 349 354 345 343 341 341 346 344 349 351 350 349 349 347 348 350 347 348 350 347 346 346 347 346 348 348 347 342 343 345 345 349 350 347 348 348 347 346 342
352 356 362 356 358 358 358 369 361 355 353 356 347 344 342 340 342 343 345 349 348 349 348 345 348 350 346 347 349 348 348 347 348 348 349 350 349 348 347 344 347 345 347 346 346 347 345 345 345
350 358 358 354 358 359 359 367 361 356 357 353 348 346 342 340 341 342 343 347 349 347 346 345 345 345 346 348 347 346 348 347 346 344 349 349 351 352 348 348 347 349 346 348 346 346 346 345 344
350 355 356 356 360 359 361 359 358 358 357 353 349 346 343 342 340 342 342 344 347 347 348 345 346 342 345 350 348 346 347 350 350 349 349 350 349 352 349 352 349 348 347 346 349 345 343 344 342
338 345 354 354 357 363 360 362 363 358 356 353 349 347 343 342 341 341 342 346 348 345 346 348 348 344 346 349 352 350 347 349 350 349 351 347 350 352 349 350 343 345 346 348 350 347 349 349 345
332 340 349 355 358 357 348 359 361 358 356 352 351 347 345 342 341 339 342 347 349 346 346 347 349 352 346 350 348 349 349 349 351 351 351 350 350 352 350 351 347 348 348 352 350 346 345 345 345
330 336 342 353 355 351 351 360 361 359 356 355 354 350 350 344 342 340 340 346 348 347 344 350 348 349 349 346 349 352 350 349 352 353 351 353 352 350 351 351 350 347 349 347 350 351 345 349 346
327 331 336 348 351 355 353 367 357 360 360 356 354 353 352 351 342 341 341 344 347 349 346 351 346 346 344 350 348 351 351 351 351 350 350 352 351 352 352 353 351 350 346 348 345 351 351 343 347
328 333 344 347 348 352 350 361 358 359 362 359 353 352 351 350 347 343 344 345 347 348 349 351 349 346 345 349 352 349 352 350 350 350 352 351 351 350 352 352 352 348 348 344 347 352 347 349 352
328 328 342 342 348 354 348 351 367 364 363 359 353 353 351 350 347 347 345 346 348 348 350 351 353 350 345 350 353 350 349 350 350 353 350 349 352 353 351 353 353 351 348 348 352 352 350 348 348
325 327 339 345 346 344 334 353 361 359 359 352 350 352 347 346 347 347 347 348 346 348 350 351 354 351 347 351 351 349 352 350 351 350 349 352 351 352 354 353 354 352 349 346 352 352 350 353 344
325 331 335 346 344 338 336 361 359 352 353 354 348 352 346 345 345 347 344 349 347 345 351 351 354 354 349 350 348 349 350 350 350 350 350 351 346 347 351 351 351 353 349 351 353 352 349 350 349
328 332 330 331 334 334 359 357 353 351 352 354 355 351 345 343 343 342 341 348 351 345 350 352 353 353 352 354 347 349 353 352 351 352 353 349 349 350 351 350 350 353 354 352 353 352 353 351 349
328 332 331 329 338 339 364 362 365 356 351 351 349 349 348 349 351 346 347 347 348 347 351 353 354 353 352 355 352 350 350 350 352 351 351 353 352 350 346 350 351 352 353 353 351 352 351 352 352
333 333 332 329 332 335 360 362 354 350 348 346 347 346 347 346 350 350 348 345 347 347 349 354 356 356 354 352 354 353 354 353 352 352 355 354 352 351 350 349 351 352 352 353 353 352 351 353 353
333 332 331 331 333 337 353 360 348 345 343 343 345 345 343 343 342 345 345 346 346 344 344 348 348 353 356 355 357 357 358 358 356 354 353 355 353 352 353 352 341 351 353 354 354 351 352 350 352

GFSSGP_925_thetae_090.txt.gz
Theta_e
345 334 341 344 359 357 361 362 356 357 354 349 342 344 343 343 348 354 345 349 346 346 346 349 349 349 340 344 346 346 346 345 349 348 348 349 351 351 351 352 352 353 352 352 351 351 351 350 348
338 340 344 351 362 363 361 359 361 355 350 349 350 352 351 353 348 348 350 348 345 347 349 350 342 347 345 342 346 350 350 350 345 347 351 351 352 352 352 352 352 351 351 352 352 352 351 350 349
336 343 349 359 363 365 365 359 359 352 349 348 352 351 353 355 349 348 350 347 348 350 346 341 346 346 350 350 350 350 351 350 350 351 351 351 352 352 352 352 351 352 352 353 351 350 350 348 348
348 349 353 363 364 362 362 358 356 350 349 350 350 355 351 349 348 349 349 348 349 347 349 348 349 350 351 350 351 351 351 351 351 351 351 352 351 353 352 352 352 353 353 350 349 347 348 345 343
346 353 361 364 362 360 358 356 353 349 352 352 351 355 352 348 348 348 347 345 340 344 349 348 348 350 351 352 350 351 351 350 351 351 352 352 352 353 353 352 352 351 353 352 348 340 344 343 343
352 356 364 367 363 361 358 356 352 351 352 353 352 351 349 347 347 345 345 342 333 345 350 349 348 349 350 351 351 351 350 350 351 352 352 352 352 353 352 353 353 352 352 351 348 345 344 343 344
354 360 366 360 363 362 361 358 351 351 352 352 349 352 348 346 345 346 346 338 338 343 348 349 350 351 351 350 351 350 351 351 351 351 351 352 353 352 352 353 351 352 351 349 341 341 342 342 344
355 361 361 361 364 364 359 359 350 349 351 347 348 354 352 345 346 347 346 341 341 347 347 348 350 349 348 350 350 350 349 350 349 350 352 352 352 352 352 350 352 352 351 346 335 337 341 341 344
353 365 367 364 363 364 359 358 357 348 348 347 346 349 347 349 347 346 348 350 348 347 346 348 346 345 344 350 350 350 346 345 350 349 352 350 349 348 347 348 351 350 339 334 334 335 339 340 342
358 365 362 358 355 361 359 359 358 350 347 348 350 348 348 349 348 348 348 349 348 349 347 347 346 344 344 347 346 342 341 343 346 346 345 344 346 345 346 346 345 344 341 338 338 337 339 340 341
358 366 356 355 356 359 359 358 355 355 358 348 350 349 347 347 347 347 348 348 348 349 349 349 348 341 341 344 342 342 345 345 345 348 348 347 343 342 343 344 343 337 344 339 340 343 344 346 342
360 360 360 356 358 357 358 356 360 357 352 345 347 347 347 346 345 346 347 348 349 350 350 349 346 346 345 342 341 345 346 347 345 345 347 345 344 342 342 343 343 343 341 342 345 345 347 348 347
361 358 358 356 354 355 353 358 359 355 353 345 346 346 346 345 343 346 347 349 350 350 350 348 347 348 346 345 343 345 347 348 347 346 343 343 345 343 346 345 345 344 344 341 340 344 344 344 339
354 358 358 355 353 352 356 358 354 354 349 347 347 346 343 343 342 347 349 349 348 349 349 348 348 350 348 345 344 344 347 346 344 342 342 345 346 346 344 345 344 346 345 339 344 346 344 343 340
352 357 358 356 355 354 354 358 358 352 347 345 349 348 345 343 346 348 349 349 349 349 349 351 350 349 350 347 345 346 346 344 347 347 347 346 346 344 344 346 346 347 347 345 346 347 346 344 343
355 358 363 357 356 355 353 362 356 352 351 353 344 345 344 344 347 349 349 349 350 348 348 347 350 350 350 349 349 346 343 346 347 347 346 347 345 343 343 345 347 347 347 344 344 345 345 345 343
340 359 360 362 356 357 358 358 357 353 352 352 345 343 341 346 348 349 349 348 348 347 346 348 348 347 348 348 348 348 345 347 348 348 349 348 347 347 348 347 345 347 346 346 345 345 346 344 345
334 353 356 358 360 359 359 359 361 353 354 354 346 344 341 343 345 349 348 347 349 347 347 347 348 345 348 346 348 348 346 345 346 347 348 350 350 347 349 346 348 349 346 347 348 345 343 346 343
328 330 335 357 357 352 358 357 357 358 357 356 348 345 340 342 341 348 347 348 348 345 347 345 344 345 347 347 346 347 348 348 347 347 349 349 349 348 350 350 347 347 346 346 348 348 347 346 347
329 331 351 359 350 352 353 355 349 355 357 355 350 347 341 341 341 344 348 347 347 346 345 343 342 346 345 348 349 346 347 348 349 349 350 349 349 348 348 350 344 345 347 350 347 348 344 343 345
327 330 337 358 351 350 352 351 351 354 354 353 352 349 343 341 340 342 347 347 347 347 346 346 342 343 345 349 349 349 349 348 350 350 349 350 349 349 348 349 348 348 348 347 349 349 348 346 346
324 325 328 357 355 358 349 358 356 359 359 355 353 353 351 343 339 341 347 347 345 346 347 348 346 344 346 345 350 350 350 350 349 350 349 350 350 349 350 350 350 346 345 345 344 350 349 345 350
324 325 327 351 350 351 352 360 356 357 363 357 354 353 350 348 348 341 345 347 346 346 348 348 347 346 347 348 345 349 351 350 348 349 351 348 349 349 350 351 351 349 343 347 345 350 349 350 349
323 326 338 346 350 354 349 355 361 357 361 358 353 352 351 349 349 346 345 345 347 347 348 349 347 346 345 346 350 350 351 350 350 350 350 350 349 349 351 351 350 348 347 346 349 350 350 350 347
322 323 332 342 350 351 342 351 354 353 356 356 355 352 350 348 348 347 347 346 347 348 351 349 347 346 346 345 349 351 351 348 348 349 349 350 349 352 351 352 352 350 346 348 351 348 349 349 348
321 322 332 343 346 346 350 356 360 353 353 353 352 351 349 348 347 347 347 347 347 348 351 352 349 348 348 345 348 351 350 350 349 350 350 349 350 350 351 352 354 352 350 347 348 350 350 348 349
322 327 325 333 337 333 358 355 351 352 354 350 349 352 349 347 346 346 345 345 348 347 349 351 351 349 348 345 348 351 349 349 349 349 348 348 350 345 351 350 352 351 352 347 352 352 350 350 350
324 325 330 325 334 336 359 359 357 358 357 353 353 347 348 347 345 343 343 345 346 348 347 350 352 349 348 348 345 349 347 350 347 349 352 351 351 349 350 350 350 349 353 353 351 351 349 349 350
326 328 326 325 327 334 356 358 353 351 349 350 349 347 347 346 348 349 344 346 347 346 347 350 350 351 352 350 347 347 346 349 349 347 351 351 351 350 350 348 350 349 351 353 353 351 350 350 351
327 328 326 328 330 336 352 360 347 346 346 346 347 345 344 343 344 347 346 346 346 345 347 347 349 349 350 351 350 350 346 348 349 348 351 354 353 352 350 349 348 350 351 351 353 352 351 350 349

GFSSGP_925_thetae_093.txt.gz
Theta_e
350 341 342 344 357 354 362 361 356 356 349 340 337 340 342 345 348 348 341 346 344 345 346 348 349 350 349 348 348 346 350 350 348 349 351 351 351 351 351 351 352 352 351 351 350 348 349 349 349
343 339 344 349 359 361 361 358 360 356 349 337 344 347 351 354 348 344 346 348 344 345 348 348 346 347 348 348 344 347 348 348 349 346 350 351 351 352 352 352 352 353 350 351 351 350 349 348 348
337 344 348 357 361 364 363 359 357 352 345 342 354 351 353 354 348 348 348 347 345 346 349 344 345 348 347 349 351 348 349 346 349 348 351 351 352 352 353 352 353 352 352 352 351 351 349 348 346
345 348 352 361 362 359 360 358 355 352 350 350 352 354 350 348 348 349 348 346 346 348 341 346 348 351 350 349 350 349 349 350 348 348 348 352 352 352 352 353 353 353 351 351 351 350 347 347 347
346 352 360 365 361 360 358 355 352 351 351 351 350 354 352 348 349 349 347 346 347 344 347 350 349 351 349 349 349 350 350 349 349 348 350 352 353 353 352 352 352 352 350 349 350 348 343 346 345
354 354 358 366 362 360 358 356 357 354 353 351 352 351 349 349 349 348 346 347 340 347 346 347 348 348 349 350 350 351 351 350 350 351 351 351 351 353 353 353 352 352 351 350 344 341 346 343 344
354 358 365 361 363 363 360 355 356 354 350 350 347 352 348 347 345 346 346 341 346 348 347 347 347 350 349 349 350 350 349 350 350 350 351 351 353 353 353 352 351 351 350 348 344 341 344 344 345
354 359 361 360 365 362 357 356 350 351 352 345 344 351 351 344 345 345 341 340 349 350 348 348 349 349 348 349 349 350 350 350 351 351 352 352 352 353 353 349 351 350 349 347 344 342 343 344 344
353 364 364 364 363 360 357 352 352 348 350 347 348 347 345 346 347 345 343 346 349 349 347 349 350 349 349 348 349 350 350 350 350 351 348 346 347 349 349 349 351 350 348 341 339 341 341 342 344
357 364 361 358 357 359 356 352 349 351 351 351 349 345 345 346 346 346 346 347 349 349 349 349 348 346 347 348 349 345 348 349 348 350 348 345 346 346 349 349 352 348 344 337 337 338 340 341 342
357 364 356 354 354 355 357 357 348 349 354 351 350 349 346 346 345 346 347 347 346 346 348 347 346 344 342 344 342 343 343 345 345 345 345 346 345 345 344 344 341 343 344 340 339 339 341 343 343
360 356 356 356 354 357 358 356 349 351 351 349 348 348 347 347 346 347 347 346 346 347 346 347 345 342 340 341 342 343 344 345 346 347 347 344 342 343 342 342 343 342 341 343 345 345 346 346 347
359 358 358 357 357 356 355 358 355 357 348 348 347 349 348 347 347 347 347 346 348 348 348 346 343 343 339 342 343 345 346 346 344 345 343 343 341 340 343 342 344 343 343 338 343 344 344 341 340
356 356 358 356 356 355 358 357 354 352 348 348 348 348 347 346 346 347 347 348 348 349 348 347 346 346 341 341 343 345 347 347 346 343 340 344 344 344 345 343 344 345 344 341 344 344 345 341 340
356 361 358 356 354 356 354 359 357 351 348 350 349 348 346 344 344 346 348 348 349 348 347 346 348 349 347 344 343 345 346 344 343 341 344 346 345 346 344 345 346 345 345 345 346 346 346 343 342
357 359 362 358 356 354 352 362 356 351 349 350 348 347 345 342 344 347 348 348 348 348 347 347 348 347 348 344 344 345 345 344 346 345 347 346 345 343 343 345 346 346 346 344 345 345 344 344 344
341 364 361 362 356 355 353 357 356 352 351 350 349 347 344 344 347 347 348 348 347 348 347 348 349 349 349 348 346 346 342 346 347 345 346 346 345 344 345 345 344 345 346 345 345 345 345 344 344
335 349 358 360 359 356 358 352 355 353 352 352 347 347 344 345 347 348 348 348 349 348 349 348 349 348 349 349 349 347 345 345 347 347 347 347 347 346 349 346 346 347 345 346 347 344 343 347 346
328 329 345 361 355 355 355 356 356 354 354 354 347 342 343 346 348 348 348 348 348 347 346 350 348 347 347 347 348 347 347 347 348 348 346 348 347 347 347 348 346 346 346 346 347 347 346 346 345
329 330 361 356 354 356 356 356 352 354 354 354 349 343 346 346 348 348 347 348 347 346 347 349 345 347 346 346 347 347 346 346 345 345 348 349 347 348 348 348 345 346 346 347 346 348 344 345 346
326 329 352 358 352 351 352 353 350 351 354 353 350 349 343 343 349 347 346 347 347 346 347 347 346 345 347 346 346 346 347 348 348 348 349 349 348 347 347 348 346 348 347 347 346 347 348 346 348
327 326 329 355 353 358 350 357 352 350 356 356 352 350 341 342 346 347 346 347 347 345 346 344 343 344 344 347 347 348 348 348 348 348 349 349 349 348 348 349 348 347 347 346 345 347 347 348 347
326 328 325 351 347 350 353 358 353 356 360 358 356 352 349 341 344 347 346 346 346 345 345 343 342 344 344 346 348 349 348 348 348 346 346 348 348 349 348 348 348 348 347 343 344 348 348 349 348
325 324 335 344 346 349 349 355 358 359 359 358 354 352 349 343 342 347 346 346 346 346 346 345 343 343 345 344 344 347 348 349 349 348 348 349 347 347 348 350 350 348 348 346 345 348 348 348 346
320 321 328 347 349 349 345 352 351 352 354 356 354 353 349 348 346 347 345 346 344 347 348 348 346 345 346 347 345 344 348 350 349 348 349 349 349 348 348 351 350 349 349 347 350 349 347 348 348
318 318 327 344 345 345 346 349 348 351 348 352 351 350 348 347 348 347 346 344 346 347 349 348 348 347 346 345 346 347 349 349 347 347 348 349 348 347 350 351 350 350 351 347 346 350 348 348 347
321 320 320 330 332 336 349 352 350 354 352 351 351 351 349 348 346 347 346 347 347 347 350 348 348 347 346 345 346 348 350 350 349 348 349 349 349 349 349 350 350 349 348 350 348 348 349 350 349
319 320 326 324 340 340 348 356 354 357 356 352 350 349 347 345 345 346 346 347 347 346 348 351 349 347 346 346 346 346 350 349 349 349 349 348 348 350 349 347 350 350 351 350 347 349 350 350 348
323 326 323 322 327 336 347 350 351 352 351 352 347 348 345 346 346 344 346 346 345 346 346 349 351 350 349 348 348 345 348 349 348 348 348 350 351 350 349 349 349 351 349 351 353 351 350 350 350
321 322 323 326 329 339 343 349 345 347 346 346 346 345 345 345 347 345 345 346 345 345 347 349 350 350 350 349 349 348 346 348 347 347 348 345 350 350 350 350 348 349 349 350 351 352 352 351 349

GFSSGP_925_thetae_096.txt.gz
Theta_e
348 340 342 344 354 352 359 359 355 342 339 338 331 337 338 346 348 342 339 345 342 343 346 347 348 350 348 342 346 349 347 347 347 350 347 350 348 350 351 349 352 348 348 347 346 347 348 347 348
343 341 343 349 358 359 358 357 357 351 341 332 336 345 351 353 347 339 343 346 342 346 348 348 349 346 345 343 342 349 350 345 344 349 350 350 350 352 347 350 350 351 351 348 350 350 350 349 348
338 344 347 353 360 363 361 359 355 347 335 335 353 350 352 351 342 344 347 346 344 346 348 346 340 343 341 346 348 344 349 350 345 347 349 351 351 352 351 351 350 349 350 351 349 349 348 348 349
342 347 350 359 359 357 359 356 350 342 339 351 351 355 349 346 346 348 348 345 344 347 344 346 346 349 350 350 349 350 345 349 349 350 351 350 351 352 353 352 350 351 351 351 347 347 348 348 348
346 350 360 362 358 359 356 354 353 351 351 352 350 353 351 349 348 348 347 345 346 345 340 347 350 350 346 349 350 350 349 348 350 347 348 351 351 352 351 353 350 349 350 350 349 348 348 349 349
354 352 358 366 361 359 357 355 355 354 352 351 349 350 350 350 349 349 346 346 341 340 349 350 347 347 347 347 346 348 349 349 346 349 351 351 350 348 352 352 352 349 350 348 347 348 347 347 346
354 358 364 362 363 362 358 355 356 352 351 351 347 352 349 347 347 347 347 342 346 346 348 348 347 349 347 346 347 348 350 350 349 351 349 348 348 349 352 352 351 350 350 347 343 345 343 344 344
353 357 361 361 364 363 356 354 350 349 349 345 345 351 351 344 346 347 346 346 348 347 349 347 347 347 346 346 345 348 346 346 344 347 348 348 348 352 348 348 350 350 349 345 342 343 344 343 342
352 363 364 362 362 358 355 353 350 346 346 347 346 346 344 345 345 344 344 349 350 349 348 348 346 346 346 346 348 345 346 347 346 349 347 348 348 350 348 349 350 348 345 341 341 342 342 343 344
357 361 362 358 357 358 353 352 350 348 350 349 348 346 347 345 343 343 346 348 349 349 348 348 348 346 345 345 347 347 349 346 349 348 347 347 346 347 348 351 350 349 343 339 338 339 340 341 343
356 361 356 356 353 354 352 351 348 350 353 346 349 348 346 345 344 342 343 345 347 347 348 349 346 344 345 346 345 345 347 344 346 344 344 344 343 345 346 344 343 342 340 339 338 338 339 342 342
358 356 357 355 352 353 355 354 351 350 351 345 346 345 345 345 345 343 344 344 345 346 347 347 345 342 343 342 343 343 345 345 344 344 344 342 341 342 341 342 343 343 342 343 344 344 345 345 344
358 357 358 357 354 355 355 353 351 353 348 345 346 345 345 345 345 344 344 344 344 345 346 344 342 340 341 342 344 345 345 345 344 344 342 340 340 340 341 343 342 343 343 341 343 344 344 339 339
355 356 359 359 356 355 357 354 351 352 348 348 348 347 345 345 345 346 346 345 346 346 346 343 339 339 341 343 344 345 346 345 343 343 341 342 341 344 344 343 344 344 342 342 344 345 344 340 340
356 359 358 358 357 357 355 357 355 351 349 349 350 348 347 346 346 346 346 346 347 346 346 344 342 341 339 341 344 345 345 344 343 341 342 344 344 344 344 344 345 346 346 345 344 345 344 342 342
357 356 362 358 357 355 356 365 357 351 350 351 350 349 348 344 345 346 346 347 348 347 346 346 347 348 345 343 343 344 344 344 343 344 345 345 345 345 343 344 344 345 346 344 345 344 344 343 343
338 361 360 362 355 356 354 361 355 351 350 351 349 348 347 342 343 346 347 347 348 347 346 346 347 347 345 345 344 345 343 344 346 345 346 345 343 343 343 344 344 346 345 345 345 343 344 344 342
336 350 357 360 359 356 355 355 353 351 351 351 349 347 345 344 344 346 347 347 347 347 345 346 347 348 348 347 346 346 343 346 346 345 346 345 346 347 346 346 346 346 345 346 346 345 346 346 346
329 334 353 359 357 357 357 356 356 352 351 352 349 346 344 345 345 346 347 347 347 347 346 346 348 349 349 348 348 348 346 343 347 346 347 347 347 345 346 346 346 345 345 345 345 346 344 343 344
327 350 361 357 355 354 355 357 353 354 352 351 351 344 345 343 346 347 348 347 347 347 347 348 348 347 348 346 347 347 346 346 347 346 346 347 348 348 345 346 345 345 346 346 347 346 345 345 345
326 332 358 358 352 351 351 353 353 351 352 352 351 349 344 345 348 348 346 347 347 347 347 347 348 346 346 346 347 347 346 346 346 346 346 348 347 346 344 347 345 346 346 346 346 347 344 347 347
326 330 348 354 351 350 349 352 351 349 356 354 351 349 347 346 347 347 346 346 347 346 345 348 347 347 345 345 347 346 346 347 347 347 347 347 348 348 347 348 346 347 346 346 345 347 346 347 347
327 329 344 352 347 348 350 354 351 349 352 356 354 351 347 342 347 347 346 347 346 345 345 346 347 346 347 345 346 347 347 347 347 347 347 348 346 346 347 347 348 347 347 343 344 347 347 347 346
324 327 338 342 341 350 347 350 351 357 350 353 354 351 348 341 347 346 346 347 346 345 345 346 346 345 346 347 347 346 347 346 347 348 346 347 346 348 347 348 348 348 347 345 345 348 347 347 345
321 326 334 351 351 348 342 352 349 352 352 352 354 352 349 343 344 347 346 346 346 345 345 345 344 343 344 346 346 347 346 347 347 348 347 347 348 347 347 347 349 348 348 346 345 346 347 347 347
317 322 330 346 349 346 346 352 346 351 350 351 352 351 349 343 345 347 345 344 345 345 346 345 344 343 344 345 344 344 344 346 348 348 347 348 348 348 347 348 350 349 349 348 347 349 349 346 346
318 318 319 327 330 343 346 345 347 352 352 352 352 349 349 347 347 347 346 345 345 345 347 347 346 344 343 345 347 345 345 346 347 347 348 348 348 348 348 348 349 349 349 349 348 345 348 349 348
319 318 323 321 335 342 338 350 345 358 355 352 353 350 348 347 345 345 344 344 345 345 346 347 347 346 345 346 346 346 348 348 348 348 348 348 347 348 348 348 347 350 349 349 350 347 348 350 349
322 322 320 321 328 335 339 342 348 350 353 353 350 347 346 347 347 346 347 346 346 345 347 350 348 347 347 346 345 345 346 349 349 348 348 349 349 349 348 348 348 348 349 350 350 350 350 349 350
323 321 320 324 327 331 334 338 345 348 350 347 347 347 345 344 344 345 346 346 346 346 347 348 348 347 347 347 346 347 346 346 349 348 347 348 348 345 348 348 349 349 349 349 349 350 350 348 349

GFSSGP_925_thetae_099.txt.gz
Theta_e
340 336 343 346 357 357 363 362 354 338 336 334 332 334 342 350 348 341 340 344 346 347 350 350 347 347 349 348 346 339 344 345 350 350 348 350 351 349 352 351 348 346 345 349 349 348 349 350 350
337 343 345 352 361 364 363 357 346 337 337 333 336 339 350 355 344 341 345 347 346 348 349 350 347 346 339 341 348 346 347 348 348 346 348 346 350 346 350 352 352 346 348 351 351 351 349 348 347
342 345 353 356 360 365 363 358 348 345 336 335 348 350 352 351 341 345 346 347 348 350 350 351 341 341 339 340 343 349 346 348 346 350 350 347 347 348 351 352 351 351 349 347 350 347 345 348 350
344 349 353 358 359 356 359 357 349 338 342 351 349 355 348 345 345 347 347 348 349 350 347 344 341 343 348 348 348 347 346 349 345 346 348 348 348 352 352 351 351 351 351 348 349 349 349 350 350
347 351 361 358 357 358 356 353 343 340 347 353 351 352 349 349 349 347 348 348 349 346 346 349 349 348 349 347 347 346 347 348 348 347 348 350 351 346 349 351 351 351 351 348 348 349 348 349 351
355 353 360 363 357 358 356 355 347 348 352 351 351 349 351 349 348 348 348 348 346 344 348 351 349 349 349 347 346 348 347 347 347 349 349 347 349 352 349 350 349 351 349 348 349 348 347 348 347
355 359 359 362 360 360 358 354 353 353 353 351 346 349 351 347 349 348 348 347 345 350 350 349 350 350 349 349 345 346 347 348 349 350 346 348 348 350 348 350 350 351 348 347 345 343 344 344 343
352 358 362 360 362 360 356 354 350 350 352 345 344 351 351 346 348 349 347 346 346 349 350 351 350 350 350 349 349 350 348 350 350 347 348 346 351 348 347 347 349 350 347 343 342 343 343 342 343
351 364 365 363 358 358 354 353 350 346 348 348 347 346 346 347 348 348 346 348 347 350 350 350 349 349 348 349 350 350 348 349 349 348 346 348 350 349 347 348 349 348 343 341 342 342 342 344 344
357 363 363 357 357 356 354 352 348 349 350 351 350 347 346 347 347 344 345 349 348 349 349 349 348 348 348 349 348 348 349 349 350 348 346 348 349 348 349 347 348 341 339 339 339 340 340 342 347
357 361 357 355 353 353 353 352 346 350 351 350 351 350 347 346 343 339 342 347 347 348 348 349 348 349 348 347 346 347 346 349 348 345 345 347 349 349 347 344 345 344 339 341 340 342 343 344 345
359 356 355 351 352 353 353 349 349 348 349 345 347 347 346 343 337 337 340 345 347 348 348 348 347 348 349 345 346 346 345 346 346 346 341 343 347 347 345 346 343 342 342 343 344 345 344 344 344
355 356 354 352 352 354 350 351 349 353 346 346 346 346 344 342 340 338 340 343 346 348 348 347 347 347 342 346 346 347 347 346 347 346 340 342 345 342 344 343 344 344 341 343 344 345 344 339 340
354 355 358 356 355 355 354 351 348 351 346 347 347 347 346 346 344 340 342 344 345 347 347 346 346 344 344 345 345 346 348 347 346 344 341 339 341 344 344 344 346 343 343 344 344 345 344 342 344
354 359 357 356 356 356 351 352 356 351 347 349 349 348 347 346 344 342 343 345 347 347 346 346 346 344 343 344 345 346 348 343 346 343 344 344 343 344 344 345 346 346 345 344 344 344 343 346 345
358 356 363 359 357 355 354 360 354 351 349 351 350 349 349 348 346 345 346 346 347 346 347 347 344 345 342 343 344 346 344 344 344 342 344 345 345 344 344 344 345 345 344 344 346 345 348 347 347
353 363 360 364 357 358 350 356 355 352 351 352 352 351 350 349 348 348 347 348 347 348 348 348 348 348 345 344 344 344 343 345 344 344 345 344 344 342 343 344 345 345 344 346 348 345 345 349 349
349 357 358 363 360 354 352 353 355 353 353 352 351 351 351 349 349 348 348 349 349 349 349 349 349 349 347 345 345 345 343 346 346 346 346 345 344 346 346 345 346 345 349 349 349 347 346 347 346
333 342 358 362 356 358 357 358 358 353 353 352 351 351 351 349 347 347 348 349 349 349 348 349 349 349 348 348 349 349 348 348 347 346 346 345 347 345 345 346 345 345 348 346 345 346 346 349 347
340 353 360 359 356 356 358 359 356 355 354 352 352 350 349 347 348 347 348 349 349 349 348 349 348 348 348 350 348 349 348 347 349 346 346 346 347 347 345 346 345 344 348 346 346 345 349 350 347
329 337 356 359 354 350 353 356 355 355 353 352 351 350 348 346 349 349 348 348 349 349 349 349 349 347 348 350 348 347 346 347 350 348 348 347 346 345 344 346 344 345 345 349 345 347 348 350 350
329 330 353 355 352 354 351 359 356 356 356 354 351 351 349 348 348 348 348 349 349 349 349 349 348 348 347 347 349 346 349 348 350 347 346 346 348 347 344 345 346 346 346 346 345 348 349 352 351
329 331 350 352 353 353 352 357 354 355 358 357 354 351 350 348 346 348 348 348 348 349 348 349 347 348 347 346 349 347 349 351 348 347 346 347 346 346 345 346 348 346 347 344 344 348 346 351 350
328 343 346 346 350 353 345 347 357 357 356 353 353 352 351 349 347 347 348 348 349 349 347 348 347 348 346 345 346 347 348 348 350 350 351 350 348 349 345 347 346 348 347 346 344 348 347 347 347
326 334 346 348 347 345 346 352 347 352 351 348 354 353 351 349 347 349 349 348 349 348 347 347 348 349 346 347 348 348 346 346 345 347 351 350 346 346 347 346 347 348 347 347 345 346 347 348 351
326 328 339 348 348 345 350 353 350 350 352 349 348 352 351 350 347 349 349 347 349 348 348 348 348 349 347 348 349 347 347 349 347 347 351 351 351 350 348 347 347 349 348 347 346 349 352 347 350
323 326 330 338 339 346 351 349 346 353 354 353 350 353 352 351 347 348 349 349 349 346 348 349 349 348 347 347 349 347 345 345 347 346 347 349 348 350 348 347 349 347 348 349 348 348 349 350 350
323 324 326 328 341 345 346 352 347 360 358 356 355 353 351 350 348 349 347 347 346 347 346 348 349 348 348 347 349 348 348 345 346 347 347 347 348 348 348 348 348 349 348 347 347 351 349 349 352
325 325 327 327 332 337 340 345 350 355 356 357 357 354 352 350 350 350 347 346 345 346 344 347 348 348 348 346 346 347 348 349 347 348 348 348 348 348 348 348 347 347 347 349 349 349 351 346 349
327 326 327 329 332 333 335 339 349 351 353 353 354 352 351 350 349 350 348 347 345 344 344 348 350 348 348 349 347 347 345 345 349 348 347 347 347 345 346 347 347 348 348 350 351 352 352 348 348

GFSSGP_925_thetae_102.txt.gz
Theta_e
341 344 347 350 362 356 358 360 342 341 340 338 335 337 345 351 346 348 338 343 344 346 347 349 347 347 348 347 347 346 346 349 347 347 351 349 348 350 351 350 347 352 351 351 351 350 350 350 346
343 346 349 355 362 355 360 352 343 340 337 336 336 341 349 353 341 340 342 344 345 346 347 348 346 347 346 347 344 347 349 347 348 350 348 350 349 352 352 350 349 349 350 347 349 350 348 350 349
346 348 357 358 361 357 361 350 341 338 336 338 344 345 352 346 340 341 343 345 346 347 350 350 345 339 340 345 346 343 348 345 351 351 347 347 350 353 352 352 351 349 347 348 346 347 351 350 350
347 352 355 359 361 360 357 349 344 338 335 347 349 354 345 339 344 344 345 347 348 349 348 342 339 343 347 340 345 346 351 345 347 349 347 351 350 352 352 352 351 350 349 350 351 350 350 350 351
351 353 362 361 361 359 355 352 341 338 351 352 351 355 344 346 345 346 348 348 347 344 342 346 350 349 348 349 348 349 349 350 348 347 347 351 352 351 352 349 351 351 350 350 350 350 351 351 350
356 355 362 363 361 359 357 349 343 345 354 353 352 347 350 347 347 348 346 344 341 342 347 349 348 349 348 349 350 349 351 346 345 346 346 346 352 352 350 352 352 349 350 350 349 348 349 349 345
357 358 361 361 362 363 359 348 347 350 353 353 348 348 351 347 348 347 346 342 340 344 348 349 350 349 346 346 346 346 348 347 346 348 346 346 351 351 351 352 351 349 350 349 345 343 343 344 343
354 360 360 361 364 363 357 354 353 353 354 347 346 350 354 349 348 348 345 341 346 346 347 348 348 349 347 348 349 350 351 351 351 351 351 347 350 349 345 345 350 349 348 343 343 343 343 343 344
351 366 367 362 361 362 355 356 352 349 351 348 347 345 347 348 348 346 342 343 345 347 348 347 347 349 349 348 348 348 349 349 345 345 344 348 346 345 347 344 349 343 342 342 341 341 343 346 346
358 366 364 359 356 359 355 354 352 352 353 351 348 346 347 348 347 342 342 344 345 347 346 346 347 347 347 346 349 348 348 349 349 349 346 344 346 348 346 343 339 338 340 340 340 340 343 346 346
358 364 359 356 354 355 355 353 350 351 354 353 352 350 347 346 343 340 342 344 345 346 346 345 346 345 345 346 345 345 347 347 350 347 345 345 346 346 344 346 346 345 345 346 346 347 346 349 348
360 358 355 354 354 354 355 350 350 347 348 348 348 346 345 344 340 339 342 345 345 346 345 344 344 346 345 344 343 343 346 346 345 345 348 348 347 347 346 347 347 347 346 348 348 346 349 348 348
357 358 353 352 354 353 351 350 350 350 347 346 345 344 343 342 338 338 341 345 345 345 344 343 345 348 348 346 343 343 345 347 345 345 349 348 347 349 348 349 349 349 347 347 348 349 347 346 345
353 356 354 353 355 355 353 351 349 349 347 347 344 343 342 340 338 339 342 344 347 344 344 344 346 348 348 347 347 346 346 347 345 346 348 349 348 350 348 349 348 349 348 348 349 350 346 345 344
353 361 358 356 358 355 352 355 353 348 346 346 345 344 343 343 341 342 343 344 346 344 344 346 347 349 348 349 348 346 346 346 345 346 349 350 350 351 350 349 349 350 351 352 351 348 347 344 344
359 360 366 358 358 354 353 362 356 348 346 349 347 346 346 345 344 344 344 344 345 343 345 346 345 347 347 347 349 347 346 346 346 347 348 350 351 352 350 348 348 350 350 349 347 346 344 346 345
361 366 363 364 356 354 350 360 353 351 347 349 350 348 348 348 346 346 346 346 345 345 346 346 346 345 348 351 349 349 350 349 348 348 349 352 351 350 350 349 351 351 349 349 346 346 346 345 345
356 360 362 363 357 349 350 355 353 354 349 349 350 349 348 348 349 348 347 347 346 347 347 347 346 348 349 350 350 349 349 350 349 349 349 351 349 351 350 350 351 351 349 349 349 352 348 345 345
346 354 363 361 353 350 351 354 355 353 355 353 351 350 350 349 347 348 349 348 347 348 349 348 349 351 350 349 348 349 348 349 350 350 352 352 351 351 351 350 351 351 350 353 352 349 349 345 346
349 356 364 360 356 358 358 358 355 352 353 352 350 350 349 348 348 348 349 349 348 349 349 350 350 352 352 350 349 349 348 348 348 349 351 352 352 350 351 353 351 352 350 354 355 353 347 347 350
340 346 357 362 356 354 351 355 359 353 352 352 351 349 349 349 348 349 349 349 349 348 349 350 351 351 353 352 352 353 352 351 351 351 350 352 352 351 351 352 352 353 350 350 353 352 354 347 351
338 340 347 357 356 356 352 361 354 358 358 352 348 351 350 350 349 348 348 350 350 350 349 350 352 351 353 355 351 352 350 350 351 351 350 350 350 351 350 352 352 354 351 352 352 352 353 354 348
333 334 340 345 346 349 354 353 352 355 361 359 351 350 350 348 349 349 348 348 349 350 350 350 352 351 350 354 352 350 349 349 350 351 351 350 350 351 352 352 354 354 351 352 353 353 352 352 350
338 344 343 340 342 348 346 348 360 358 357 358 355 354 350 349 348 348 348 348 349 350 351 350 353 354 352 353 353 352 350 351 351 351 351 349 349 349 350 350 351 352 353 354 350 351 351 352 353
334 338 347 352 348 349 347 349 349 355 353 355 356 354 351 349 349 348 349 350 350 350 351 350 352 354 353 353 352 352 350 349 350 351 348 352 351 350 350 351 351 351 352 354 351 350 351 352 353
334 334 342 349 352 344 348 350 351 350 350 350 353 353 351 350 350 349 349 350 351 351 351 350 351 353 353 352 353 353 350 348 347 348 352 349 351 350 353 351 352 352 351 353 354 352 349 351 350
331 336 335 338 341 343 346 345 348 349 353 352 350 350 353 351 350 349 349 351 351 351 351 351 351 352 352 351 352 351 349 349 350 351 349 351 350 353 352 353 352 353 352 353 354 351 353 354 353
326 327 334 336 341 343 344 345 346 356 355 354 351 353 353 351 349 349 349 350 350 350 352 351 351 352 351 351 351 350 350 349 347 349 348 350 349 351 354 355 354 352 352 352 353 352 352 354 351
326 326 327 329 333 335 340 342 351 353 355 356 352 352 353 352 351 350 349 350 351 351 351 349 352 353 352 351 349 349 350 349 350 350 348 351 350 349 353 351 355 354 352 353 355 354 353 353 351
328 326 327 328 331 333 336 343 352 354 356 356 355 353 352 350 351 352 349 349 351 351 348 349 348 351 352 351 351 350 347 349 348 350 349 351 350 352 352 352 350 353 352 352 354 353 351 352 351

GFSSGP_925_thetae_105.txt.gz
Theta_e
340 346 348 352 367 361 356 350 344 343 343 340 338 342 349 349 348 351 342 344 345 346 346 350 349 349 348 351 349 350 352 350 350 352 352 352 352 351 349 351 351 351 351 351 350 349 347 345 349
347 347 351 357 371 357 354 345 343 342 339 337 340 346 349 347 341 343 345 345 345 345 346 349 346 349 351 346 351 352 352 351 351 352 352 352 353 352 350 349 350 348 350 351 349 350 351 350 348
349 349 359 359 366 356 353 346 343 339 338 341 343 348 344 343 341 343 344 344 348 349 351 350 346 341 347 350 351 352 351 352 352 348 347 352 353 352 352 349 350 349 347 348 351 351 350 350 348
348 353 355 362 361 354 349 345 341 339 341 347 350 346 341 342 342 344 344 347 349 349 349 345 345 348 347 351 351 352 349 348 349 346 348 349 350 352 352 351 351 351 351 350 351 351 351 352 348
350 352 364 361 356 350 347 344 340 342 350 351 347 344 346 343 343 344 347 347 348 345 341 345 351 351 351 350 351 351 351 347 350 351 350 352 352 353 352 352 351 351 351 350 350 351 350 350 347
356 355 360 363 358 353 352 344 341 349 352 353 347 348 348 344 345 346 346 346 341 342 346 349 349 350 351 350 352 349 348 347 348 352 350 349 353 353 353 352 351 351 350 350 350 350 349 346 343
356 360 362 360 361 359 352 344 346 353 353 351 345 350 347 346 345 343 342 339 342 347 347 348 350 349 351 352 351 352 352 349 346 349 352 352 352 351 352 351 351 351 350 350 349 347 347 346 345
355 360 364 359 362 362 351 347 346 351 352 348 346 351 351 347 343 343 339 340 345 346 349 348 348 348 349 349 352 352 352 351 347 349 344 344 350 348 348 342 350 350 349 348 344 343 343 343 341
351 366 367 360 360 361 353 356 352 350 352 349 348 347 347 345 344 342 340 346 345 346 347 347 347 348 348 349 349 347 345 343 343 343 344 350 349 347 350 342 345 343 343 342 341 342 346 347 345
361 368 364 358 356 359 356 354 354 352 352 351 349 347 346 345 343 341 342 343 344 346 347 346 346 346 347 345 350 347 350 351 348 348 350 350 348 345 343 343 340 340 341 342 344 345 346 347 352
359 366 362 358 357 352 353 354 349 350 351 350 353 351 348 345 343 341 342 343 344 344 344 346 345 346 345 344 344 345 348 348 347 346 344 345 345 346 344 347 347 347 348 347 347 349 348 343 346
360 359 357 357 355 353 353 352 350 347 349 349 349 347 346 345 341 341 342 344 344 343 343 343 343 344 343 343 343 345 345 347 344 346 348 347 344 346 347 344 344 347 345 347 346 344 347 346 345
358 358 354 352 355 354 351 351 351 349 348 348 347 346 345 342 339 341 343 343 343 343 343 343 344 346 348 344 341 345 345 346 344 348 349 348 348 346 348 349 348 346 345 344 346 344 345 345 345
355 357 357 356 357 354 352 351 348 347 348 348 347 344 342 341 340 341 343 343 343 343 343 344 348 347 347 345 345 344 347 344 346 347 347 350 347 349 347 349 345 346 347 346 346 348 343 343 342
356 359 356 356 357 356 355 353 350 347 347 347 344 341 342 340 340 341 343 344 345 343 343 346 347 346 345 345 345 346 344 345 345 348 349 349 349 351 348 346 348 347 347 351 347 345 345 342 342
360 358 364 357 359 356 358 360 350 347 347 344 342 342 342 342 342 342 342 343 344 344 344 344 346 345 345 346 347 345 346 345 345 346 348 351 352 351 349 348 346 346 348 346 344 344 342 343 343
361 368 363 365 356 356 356 361 351 345 345 345 345 344 344 345 344 343 343 344 344 345 345 345 345 345 347 347 348 346 348 346 346 347 349 351 351 352 351 350 348 352 347 345 344 341 345 343 344
360 364 364 365 354 354 355 359 356 346 345 346 345 346 345 346 346 345 344 344 344 346 346 346 345 346 348 350 347 347 350 347 346 348 350 351 351 351 353 349 349 354 349 347 347 349 344 343 344
358 365 365 361 351 353 356 358 355 354 352 351 348 346 347 347 345 345 345 344 345 346 346 345 347 347 349 347 347 348 349 348 349 352 351 351 352 352 353 351 351 351 350 352 351 351 348 343 343
344 359 362 358 351 352 355 357 353 352 354 353 349 348 348 347 347 347 347 346 344 346 346 346 349 349 351 347 348 349 348 348 348 350 351 352 351 353 351 354 352 352 350 353 354 353 350 343 343
344 358 358 358 356 353 354 354 354 351 350 353 353 351 348 348 347 349 348 347 346 346 347 348 349 351 352 349 351 352 351 351 348 349 350 351 352 351 354 353 356 351 352 351 354 350 351 345 344
342 353 356 352 358 357 352 359 354 354 354 352 350 351 350 346 346 348 348 348 346 347 347 350 351 353 353 354 350 351 351 348 350 350 349 351 352 351 352 353 354 354 353 353 352 351 356 350 344
338 339 356 356 353 347 356 356 354 357 358 354 349 349 351 348 346 345 347 346 346 348 348 349 352 353 352 352 351 353 350 351 351 350 352 353 352 351 351 353 354 354 353 352 355 352 354 352 351
337 342 344 346 347 349 353 352 354 356 361 355 347 346 347 349 348 347 346 347 346 348 347 349 352 353 352 354 354 354 353 351 352 352 352 352 350 352 352 352 353 353 353 353 351 354 353 355 355
341 346 350 350 347 346 348 349 355 352 352 356 354 347 346 348 349 348 348 348 349 350 350 348 352 353 353 354 352 353 353 353 353 352 350 351 351 349 352 353 353 352 353 355 352 354 356 352 354
338 341 349 355 351 347 349 348 357 352 351 354 354 349 344 347 350 348 348 349 349 350 350 348 352 353 353 353 353 353 353 350 349 350 352 353 353 350 354 353 352 352 354 353 354 352 349 350 351
334 339 339 345 348 352 350 351 353 351 351 352 354 354 351 351 346 348 347 349 350 349 350 350 352 353 353 353 353 353 352 352 350 347 352 354 353 352 355 352 352 352 352 353 354 352 354 355 354
330 332 336 338 344 350 345 350 355 353 352 351 352 354 355 352 349 349 348 348 347 349 350 351 351 352 351 351 350 351 351 351 351 352 352 349 352 353 354 354 354 354 354 354 354 351 352 353 352
327 329 330 334 335 337 341 346 351 355 353 354 353 351 354 353 351 350 351 350 349 350 350 351 351 353 352 351 350 349 348 348 349 348 350 351 352 352 354 355 354 353 355 355 355 356 353 354 353
327 326 328 330 334 333 335 354 351 350 350 352 352 351 353 353 351 349 348 350 354 352 352 353 356 352 351 351 351 351 350 349 347 348 349 352 353 353 354 355 354 352 354 354 355 356 351 352 352

GFSSGP_925_thetae_108.txt.gz
Theta_e
342 344 349 351 365 367 351 349 343 342 342 340 346 348 347 345 348 354 343 346 348 347 349 350 349 349 351 347 350 352 350 352 352 351 350 351 349 351 349 351 352 351 350 348 348 345 347 351 347
349 349 350 359 371 357 351 344 344 342 339 345 349 345 345 347 344 345 345 344 346 346 349 350 349 349 351 351 352 351 352 352 352 349 350 351 349 348 351 350 351 350 348 349 352 351 349 348 346
347 350 361 363 366 361 351 343 342 339 338 348 349 345 344 347 344 345 346 345 346 348 350 350 350 351 351 351 352 350 352 352 352 348 352 350 351 349 347 346 349 349 351 351 351 351 349 348 344
349 352 357 362 363 349 347 343 340 341 346 344 342 344 341 342 343 345 347 348 350 351 350 346 347 349 352 348 352 350 352 352 352 352 352 352 352 352 352 351 352 352 351 351 352 352 350 348 338
349 352 358 365 358 347 345 341 340 348 352 344 343 347 346 343 346 348 348 349 348 345 343 348 350 349 351 352 351 352 352 352 351 351 352 353 353 353 352 352 351 351 351 351 350 351 347 346 335
355 354 361 366 354 347 343 340 346 351 354 350 346 347 346 345 346 345 346 346 342 343 349 351 350 352 351 352 352 351 351 351 351 346 347 348 352 353 351 351 351 351 351 351 350 348 341 334 330
356 359 358 362 359 358 347 342 351 352 350 346 345 347 346 345 343 346 347 346 346 347 348 351 351 352 352 352 352 351 348 347 346 349 349 350 353 353 351 351 352 351 351 350 346 342 339 332 331
356 358 365 362 363 355 344 348 351 352 350 345 345 348 351 345 345 342 346 346 345 348 349 349 350 351 349 351 352 347 347 345 344 344 345 347 351 353 349 346 349 350 347 342 340 340 337 333 337
351 365 371 362 357 351 346 355 350 350 351 347 347 346 345 343 342 339 346 346 348 348 348 348 350 350 349 351 350 349 345 342 344 343 345 348 347 348 351 345 342 342 341 341 343 344 341 342 341
361 367 365 360 353 351 351 354 353 352 349 350 347 345 344 342 340 341 344 346 346 348 347 349 348 348 347 347 348 350 349 350 349 351 347 352 349 346 344 340 341 340 341 342 343 345 346 347 351
357 367 360 360 355 352 353 354 350 350 353 350 350 345 343 342 340 341 346 346 346 345 346 347 348 346 345 346 349 349 350 347 346 348 349 347 341 341 341 340 341 346 345 345 348 348 349 343 350
357 361 355 359 354 355 350 347 348 347 349 348 348 344 343 343 340 342 344 345 345 346 346 345 344 346 345 346 347 350 349 344 345 345 346 345 347 346 348 346 349 349 348 341 344 343 341 345 342
358 358 356 355 355 352 348 347 352 350 350 348 348 345 343 342 340 342 344 344 342 345 345 346 346 344 344 344 347 347 345 347 345 347 348 349 344 346 349 332 344 349 346 347 347 347 345 345 344
355 356 356 354 355 356 351 351 347 350 348 348 347 345 343 341 340 343 344 343 343 344 346 346 345 345 348 344 347 346 346 346 349 344 347 348 348 349 347 347 348 344 350 345 343 347 346 342 343
356 362 357 360 359 361 354 353 347 346 347 347 346 343 342 340 341 342 343 343 343 344 347 346 345 346 346 347 348 344 345 348 349 349 348 348 348 348 351 348 347 345 338 344 345 345 343 344 344
360 359 364 356 358 359 356 361 348 346 347 346 344 341 342 341 341 342 343 344 342 344 346 347 346 346 344 344 345 346 346 346 346 348 349 351 350 350 348 350 347 344 350 351 345 347 347 344 346
361 364 365 362 356 357 358 360 349 346 346 345 342 341 341 342 342 341 343 344 345 344 344 348 344 343 346 347 348 347 348 345 347 347 350 350 351 352 349 351 345 348 352 347 348 343 344 344 345
362 358 355 364 358 356 358 357 348 346 345 343 342 342 342 344 344 342 342 344 346 346 344 345 346 346 344 348 348 349 345 347 350 348 350 350 351 351 353 352 348 354 352 347 349 343 342 347 345
351 355 361 358 353 356 358 358 356 351 347 347 344 343 345 345 345 343 344 344 346 347 346 344 347 347 348 348 347 349 345 349 347 348 352 353 352 352 354 352 350 339 350 350 352 353 353 345 344
355 359 361 354 354 355 357 359 354 353 354 349 351 347 346 347 347 344 344 345 345 347 347 348 346 348 348 347 348 349 347 349 351 352 350 352 350 352 353 354 353 349 353 351 354 351 354 347 343
355 357 357 356 353 353 355 355 356 351 350 350 352 352 349 349 347 347 346 344 345 347 349 347 350 342 350 352 347 350 347 349 349 350 351 352 351 351 353 354 352 352 352 353 354 353 356 353 344
359 352 351 354 358 360 352 362 352 350 351 350 352 352 350 348 348 348 346 346 346 348 348 351 351 343 350 353 349 347 351 351 351 350 350 351 350 351 351 352 353 353 350 352 354 354 353 356 354
349 349 350 355 357 352 356 357 360 353 352 351 351 351 349 348 347 348 344 348 347 348 349 351 353 350 350 347 352 353 351 349 348 348 351 353 351 352 352 351 351 354 354 352 355 353 352 355 356
343 349 348 349 356 366 357 357 353 355 352 350 346 345 348 350 348 348 345 347 349 347 349 353 354 352 351 351 350 350 351 345 348 349 350 353 353 350 352 352 354 354 353 353 351 354 352 353 353
339 350 356 362 368 361 349 358 355 353 351 348 345 345 346 348 348 348 348 349 349 347 349 353 354 351 352 354 353 353 350 351 349 349 351 350 349 353 352 353 352 353 350 354 351 354 352 352 352
335 339 344 350 352 359 354 354 355 348 348 348 347 345 345 345 346 351 347 347 349 349 347 353 356 354 352 353 354 353 353 353 352 352 351 346 340 349 353 352 353 353 354 354 354 353 349 351 351
335 338 338 346 346 347 356 352 352 348 350 351 352 349 347 348 344 347 347 347 347 352 351 350 356 356 355 354 352 353 353 353 352 349 344 346 338 349 352 353 353 352 353 354 354 352 353 353 351
332 333 336 336 351 354 352 350 363 357 356 358 356 353 350 346 347 350 349 347 345 351 348 348 355 354 355 354 353 352 353 352 353 350 348 348 344 351 349 353 352 353 353 351 352 352 353 351 352
327 330 332 333 336 341 357 356 356 352 355 354 358 353 351 347 346 352 351 351 348 346 348 351 355 355 354 354 354 354 351 352 350 351 350 352 349 353 348 352 355 354 354 354 355 353 350 354 353
327 327 330 332 337 336 339 352 347 352 353 352 351 354 351 350 352 351 350 353 352 351 353 348 354 354 353 350 351 351 349 349 350 349 350 348 353 354 352 353 354 353 354 354 355 354 353 353 351

GFSSGP_925_thetae_111.txt.gz
Theta_e
340 336 345 351 364 365 349 346 347 350 351 346 344 345 347 346 348 352 345 347 346 346 344 344 349 350 350 348 350 350 351 349 349 350 344 351 351 351 351 351 351 350 349 345 347 351 350 350 350
342 347 346 358 366 360 348 343 342 351 347 342 344 345 346 348 344 345 347 347 347 345 348 347 342 347 351 348 350 351 351 351 350 350 348 350 352 352 351 350 348 347 351 352 350 347 340 345 345
340 349 356 362 362 358 348 341 339 347 346 344 345 344 347 348 344 346 347 346 348 349 346 348 346 345 351 349 350 350 350 350 350 351 351 349 350 350 350 350 351 351 351 351 350 347 337 342 343
344 351 352 357 363 357 344 340 339 346 343 342 342 346 346 345 347 348 348 348 349 349 346 346 349 350 348 349 351 351 351 348 352 351 352 352 351 351 351 351 351 351 351 351 351 344 332 337 341
341 349 356 359 361 345 341 341 345 344 345 344 345 350 351 346 346 345 341 350 349 346 341 343 347 350 351 351 351 351 352 351 351 351 351 352 352 351 352 351 352 351 351 351 351 335 330 333 342
348 349 360 363 354 345 340 346 348 346 346 346 346 351 350 348 349 349 349 345 343 347 347 348 347 351 350 351 351 349 352 351 351 351 352 353 352 352 351 351 350 350 350 349 341 329 328 336 342
356 350 357 360 356 346 349 350 352 346 346 347 345 352 347 344 347 347 345 344 348 347 348 349 349 349 348 350 348 351 348 346 346 351 351 352 352 352 351 351 351 351 350 347 339 330 326 333 340
353 353 362 362 360 350 349 352 346 345 346 343 343 350 346 346 346 346 346 348 348 350 349 346 346 347 348 350 352 345 344 346 352 353 352 351 352 351 348 346 345 341 341 339 337 333 335 336 337
351 360 364 361 359 350 352 355 354 347 345 344 345 344 343 345 346 344 342 348 349 350 349 350 350 350 346 350 351 345 345 347 347 345 342 340 343 346 347 342 341 341 344 342 341 339 337 338 338
358 362 363 358 359 355 353 354 349 350 350 349 346 343 344 346 347 348 348 348 348 348 350 349 350 347 342 342 340 341 344 345 344 345 347 348 348 342 343 341 341 343 342 342 344 345 345 345 344
359 361 352 353 356 351 353 353 349 352 353 349 347 344 339 341 343 345 345 347 347 348 348 350 350 348 347 347 349 349 350 350 345 338 348 349 345 345 342 342 344 345 344 345 346 331 343 346 349
359 356 353 350 352 351 355 353 350 350 349 345 343 342 340 337 344 345 344 345 347 346 347 349 347 345 348 349 350 348 344 346 347 347 347 345 339 334 336 344 342 347 332 340 345 346 344 345 345
358 352 348 347 351 353 353 352 351 351 347 343 342 341 340 336 344 346 346 345 344 346 346 347 346 345 345 347 349 348 344 346 347 348 347 345 345 344 339 339 339 338 345 346 346 345 346 344 344
356 355 354 354 357 357 353 350 352 351 348 345 344 340 340 338 344 343 344 346 345 347 344 344 342 346 348 348 348 346 347 343 339 345 346 346 346 347 345 345 344 345 346 346 345 344 345 345 343
354 361 359 359 359 357 357 352 353 349 348 347 345 341 340 339 343 344 344 344 347 347 345 343 341 346 348 346 345 346 347 348 347 340 344 347 350 348 347 347 346 347 349 349 347 348 348 342 341
363 358 362 358 359 354 358 358 350 347 347 346 344 342 340 339 343 343 343 345 346 344 343 343 341 344 346 347 345 344 347 349 348 347 348 348 350 352 347 347 346 350 349 347 347 346 349 344 344
355 361 353 356 356 352 357 355 350 346 346 345 342 341 339 341 342 343 343 346 345 342 345 344 345 343 343 345 345 347 346 345 347 349 351 349 349 352 347 349 351 352 349 344 347 346 345 344 345
361 357 354 355 357 356 359 355 352 346 345 344 338 339 339 341 340 344 345 344 343 345 346 345 345 344 346 348 348 347 349 346 349 349 350 351 349 352 350 353 351 348 350 350 351 348 347 349 346
352 355 361 357 356 357 358 358 356 352 347 343 338 338 341 341 340 342 346 344 342 345 346 345 344 346 344 347 347 348 347 348 349 348 348 351 350 351 352 352 338 347 349 353 352 350 352 350 343
355 357 355 355 353 354 356 357 354 353 352 352 351 341 341 343 341 342 346 346 344 346 345 346 344 343 344 347 347 347 346 348 349 351 351 348 350 349 352 353 350 349 351 352 352 352 355 353 345
353 356 355 355 352 350 355 355 353 352 350 349 347 351 345 344 344 343 346 346 346 346 345 347 345 344 346 351 349 350 347 350 351 352 349 350 349 347 351 353 350 351 350 352 354 354 354 355 354
357 352 352 353 353 357 352 359 351 351 351 349 348 349 348 347 344 344 346 345 347 346 349 346 344 342 348 350 349 349 347 349 349 349 350 349 348 350 349 352 353 352 350 351 353 353 351 353 354
352 347 353 351 352 356 354 359 354 348 351 349 346 348 349 347 344 344 344 345 347 348 346 349 346 341 348 348 349 349 349 349 348 347 350 350 350 350 349 350 350 352 352 350 353 354 350 352 353
350 354 352 350 353 359 354 358 352 356 351 348 345 345 348 347 347 347 346 346 347 348 348 350 349 345 344 350 349 350 351 349 346 348 347 350 350 351 350 350 351 350 351 352 349 353 350 350 350
349 351 355 359 359 360 352 358 356 348 348 347 344 343 346 348 348 348 347 347 348 348 350 352 349 349 345 348 348 349 350 347 343 345 342 349 349 350 351 351 352 353 350 351 352 352 348 350 350
346 346 350 355 358 359 356 363 357 346 345 343 344 340 344 349 348 347 346 347 348 349 352 354 353 350 346 350 351 348 350 350 349 347 343 347 346 349 350 351 352 350 353 351 354 350 352 350 350
334 341 336 348 348 344 356 354 356 350 347 347 344 342 343 347 346 348 347 348 348 348 353 355 354 350 350 352 353 351 352 351 348 348 348 347 340 345 350 351 351 352 352 353 353 352 350 351 351
333 331 333 336 353 356 354 350 359 352 352 349 346 341 342 344 343 346 346 348 349 348 352 356 353 350 349 353 353 351 351 352 351 347 344 342 337 338 346 350 353 352 351 349 352 352 351 353 352
326 327 329 329 333 347 359 354 349 346 349 350 351 347 344 343 342 341 344 347 348 350 351 353 355 353 352 355 352 351 352 351 352 347 347 347 340 347 347 347 353 353 353 352 353 352 349 352 350
324 324 326 329 330 332 339 349 342 343 348 348 345 348 348 344 342 341 346 347 346 347 349 353 352 350 355 351 354 352 348 349 351 351 350 350 342 351 346 346 351 352 352 354 352 352 353 352 351

GFSSGP_925_thetae_114.txt.gz
Theta_e
340 339 345 349 359 359 350 354 349 350 348 345 344 345 343 345 344 348 342 340 340 342 343 347 349 350 350 348 347 348 349 347 350 348 350 350 351 351 350 351 351 349 348 352 351 349 351 350 349
338 347 346 354 359 348 351 350 352 347 345 343 344 345 346 350 346 345 344 344 343 344 345 347 347 348 348 349 349 350 351 349 349 350 348 349 351 351 351 350 348 350 350 348 349 350 350 350 349
338 349 355 355 358 356 345 352 347 346 345 345 347 345 346 350 346 346 346 346 344 344 343 346 346 347 350 350 350 350 350 349 350 351 349 350 351 352 352 351 351 350 349 347 347 349 348 344 343
343 349 348 357 361 357 342 347 344 345 345 346 347 351 346 345 346 347 347 345 346 346 347 345 349 351 350 350 350 350 351 351 350 351 351 351 350 350 350 351 351 351 351 351 343 342 342 342 344
338 347 355 357 360 346 344 343 342 344 348 350 348 351 350 348 347 346 347 348 346 346 348 350 348 350 350 351 350 351 350 351 351 351 352 352 352 353 353 351 351 351 352 349 333 334 341 341 345
351 346 357 358 350 345 345 343 344 348 350 351 350 350 350 347 348 348 348 348 344 340 343 348 348 349 349 351 351 351 351 351 351 351 352 349 351 352 352 351 351 350 349 339 332 330 338 343 343
351 351 357 358 357 353 347 344 345 348 349 350 347 353 348 345 347 349 348 341 335 339 341 346 350 351 351 351 351 350 349 350 348 352 352 352 352 352 351 351 351 350 349 339 329 328 337 342 341
351 350 357 359 359 356 353 348 344 346 348 346 346 352 349 347 349 344 343 346 346 346 348 345 348 349 346 349 351 348 351 352 351 352 352 352 352 352 350 348 351 351 350 344 337 332 333 339 340
350 359 362 360 360 356 349 347 347 344 347 346 346 346 346 346 345 344 348 348 348 347 342 341 346 345 345 348 351 349 351 352 350 351 348 342 341 342 343 345 345 343 346 341 337 336 336 337 338
356 360 360 356 355 357 347 351 347 345 345 347 345 345 346 344 344 346 347 347 349 349 347 346 346 343 342 348 349 346 343 341 339 339 342 343 343 345 342 344 348 348 343 343 343 342 340 339 339
355 359 350 349 350 353 351 345 347 347 349 345 348 348 345 344 343 346 347 348 349 349 349 348 346 342 342 344 344 344 343 341 344 346 348 344 341 343 341 341 342 345 344 344 345 340 344 345 344
357 350 348 348 347 351 354 351 351 350 348 343 344 346 345 346 347 347 346 347 348 349 349 348 347 344 345 344 347 349 348 346 340 345 347 343 342 342 340 340 342 341 336 335 342 337 343 345 345
353 353 348 350 349 350 351 357 352 351 345 343 344 345 346 345 345 345 345 347 347 348 348 349 349 347 347 348 346 348 348 347 347 345 342 341 334 336 337 340 339 341 344 344 345 344 344 345 344
353 353 350 349 352 357 357 353 350 349 344 343 341 339 341 343 343 344 345 345 346 348 347 347 346 346 348 347 348 346 347 347 345 346 345 343 344 341 338 341 336 342 345 347 347 346 346 346 344
352 357 354 356 356 359 355 354 353 346 343 343 341 339 339 345 345 345 344 344 346 347 346 344 347 346 346 347 347 347 346 341 343 345 346 347 343 346 344 345 345 345 348 347 348 348 349 345 343
353 358 366 357 356 354 356 360 351 345 345 345 340 340 345 345 344 344 344 345 345 344 343 344 346 347 347 347 348 347 346 346 342 344 346 346 347 349 347 348 346 345 346 348 346 346 346 343 342
354 362 357 356 355 354 356 357 353 347 345 345 340 340 344 344 342 342 345 346 346 344 343 343 345 346 346 345 344 345 347 348 346 347 346 346 349 347 349 348 347 346 348 347 351 349 347 346 344
359 357 354 355 357 356 357 356 354 347 347 344 341 339 339 344 341 345 346 346 344 344 343 340 342 343 344 345 347 347 347 347 347 348 348 350 349 351 350 349 346 347 348 351 351 352 353 349 347
353 355 359 356 355 357 357 355 354 352 350 343 337 339 340 342 341 345 346 345 343 344 343 344 344 343 343 348 348 347 348 346 349 350 349 350 347 349 351 343 343 346 349 351 352 353 351 347 343
354 355 354 354 355 355 356 357 352 351 352 348 350 339 339 337 343 344 343 344 345 345 344 345 343 345 345 347 348 347 347 346 348 349 350 350 350 350 350 350 348 347 348 351 353 352 352 353 350
353 354 353 356 351 351 354 357 353 349 350 348 346 346 340 339 344 343 342 345 346 346 344 344 343 344 343 346 347 348 348 347 348 349 350 349 349 348 350 349 348 349 349 351 352 351 352 352 352
356 350 352 352 351 353 352 359 352 348 348 349 346 345 345 340 344 344 343 343 344 345 345 345 343 342 345 348 349 349 349 350 349 348 349 350 350 346 349 351 347 351 350 350 353 351 351 351 353
347 350 350 349 353 352 353 354 351 349 350 351 345 345 346 342 345 344 344 344 345 345 345 345 343 343 346 349 349 348 347 347 348 348 348 349 350 351 349 350 351 351 350 348 352 352 351 351 351
344 352 351 349 352 356 351 357 355 349 349 347 346 344 345 345 344 345 345 345 345 347 346 346 345 345 347 348 349 348 348 349 348 347 349 348 348 350 352 349 351 349 348 350 349 350 350 351 349
348 347 357 357 356 357 351 356 353 348 345 343 343 345 344 346 344 345 343 345 346 348 348 346 345 345 346 346 349 349 349 349 347 346 349 347 347 349 349 351 348 351 351 350 352 351 348 350 351
347 343 354 359 359 357 355 359 355 348 343 343 342 344 342 345 345 344 344 346 346 347 349 348 346 346 347 346 348 348 348 349 347 346 340 345 348 348 347 349 348 352 350 349 353 351 351 350 350
346 345 341 344 346 349 354 350 350 348 345 343 343 343 342 343 346 345 345 345 346 347 350 349 348 348 346 346 346 346 350 349 349 346 347 343 347 346 349 349 348 351 351 352 352 352 351 351 351
336 334 334 334 351 351 355 351 355 352 351 345 343 343 341 345 346 345 346 347 346 347 349 349 347 348 348 346 348 347 349 348 349 347 347 347 347 342 350 350 348 350 352 352 352 351 351 350 350
323 324 324 327 339 344 353 351 348 348 349 351 346 342 340 345 346 345 346 347 347 348 350 351 351 350 349 347 351 350 350 351 351 350 347 344 343 337 338 346 350 351 352 351 351 352 349 349 352
321 323 321 324 327 328 340 335 342 345 344 348 350 349 340 343 344 343 346 347 348 350 352 353 352 351 349 349 352 352 350 351 350 351 347 346 343 344 347 346 350 351 353 352 351 351 352 347 349

GFSSGP_925_thetae_117.txt.gz
Theta_e
346 342 345 349 355 349 353 353 348 344 344 341 341 344 345 346 341 342 338 338 339 341 341 346 347 347 348 349 349 350 351 348 350 350 350 350 350 350 351 351 351 352 350 349 350 350 350 350 350
343 346 346 353 352 353 355 350 351 345 344 342 344 342 347 349 345 340 339 339 338 340 344 347 348 348 349 349 350 351 351 348 350 350 346 350 351 351 350 348 345 347 350 349 351 351 351 351 350
340 350 353 351 355 347 356 349 348 345 344 345 347 344 347 349 342 340 338 340 340 342 344 346 346 349 350 350 351 351 350 350 348 350 350 350 350 348 348 352 351 349 348 349 350 348 349 349 349
343 349 348 354 358 351 349 348 347 347 347 346 346 350 345 344 344 345 342 340 341 343 347 347 348 347 350 349 350 350 347 351 351 351 350 351 351 352 351 351 351 351 349 347 347 348 347 346 345
339 346 355 356 356 348 346 345 345 349 350 349 346 351 351 347 346 346 344 343 342 343 345 346 349 350 350 349 351 351 350 350 348 350 351 350 351 351 351 351 351 351 351 347 346 345 342 345 346
347 345 356 358 349 347 344 343 348 350 350 349 349 350 349 346 347 347 345 344 344 347 347 347 348 350 349 351 351 349 350 350 350 351 351 352 352 353 352 351 350 350 351 347 342 340 341 343 345
347 353 357 356 352 350 347 346 351 351 351 350 346 352 348 346 347 347 346 346 346 346 349 349 349 351 350 349 350 351 351 350 349 351 351 352 352 351 351 350 350 350 348 346 340 336 340 341 343
348 352 358 356 355 354 347 346 348 348 350 346 345 352 351 344 348 348 348 345 341 341 348 350 349 350 350 350 351 351 351 350 351 351 352 352 351 351 351 349 351 349 343 336 330 334 341 340 342
349 356 360 357 357 356 348 348 346 345 348 346 346 346 345 347 346 345 344 346 346 346 343 348 349 348 346 349 351 351 352 352 351 351 345 347 349 348 346 348 350 348 344 342 338 336 337 338 339
355 355 359 355 355 356 346 347 347 348 347 349 347 346 346 346 342 347 348 349 349 350 347 347 346 345 346 348 348 346 349 348 349 346 343 343 344 343 343 343 342 342 343 343 343 340 341 340 339
355 355 351 351 351 351 355 348 345 347 350 348 350 348 346 342 345 347 347 347 345 343 345 346 343 343 345 343 342 344 341 342 340 341 344 344 343 341 341 341 342 343 343 343 343 340 343 344 345
356 352 351 350 349 351 353 351 345 345 347 346 346 345 344 343 345 346 347 347 347 347 347 346 344 341 343 342 342 342 342 343 344 346 344 342 341 340 340 340 342 336 342 338 342 339 342 344 345
355 352 348 349 350 349 349 353 350 348 345 345 345 344 344 343 346 346 346 347 348 348 347 346 342 342 341 345 347 347 346 343 343 345 342 342 340 340 337 340 336 338 341 344 346 346 345 345 345
352 352 351 349 350 351 356 355 354 349 344 346 346 345 343 344 345 345 345 346 348 348 347 346 345 346 346 346 346 347 346 347 346 343 342 342 341 336 339 341 341 343 344 346 345 347 346 346 345
353 356 352 353 353 353 353 357 353 346 345 348 347 346 345 345 343 344 346 346 347 347 348 348 347 347 347 346 346 346 346 345 345 345 344 345 345 344 344 345 345 344 345 345 346 346 347 344 342
353 355 359 354 352 352 353 358 352 345 344 347 345 346 344 343 343 345 345 346 347 347 347 347 345 346 346 346 347 346 343 343 345 345 346 344 345 347 345 343 342 343 347 346 349 348 345 342 341
353 360 355 356 348 355 355 357 351 345 343 343 340 339 341 344 343 344 344 345 346 346 346 346 347 347 347 347 347 347 344 343 341 344 345 348 346 347 345 346 345 345 348 351 350 352 345 343 343
357 359 354 357 352 355 355 357 353 347 344 342 339 343 344 344 341 343 344 344 346 345 344 346 346 345 346 346 346 345 347 347 346 347 346 347 349 348 350 347 345 345 350 349 352 351 349 346 345
352 356 358 354 351 357 356 356 355 351 349 344 338 340 343 343 341 343 345 345 345 344 343 344 345 345 345 347 347 346 346 346 347 348 348 349 348 349 349 340 344 348 349 349 352 352 352 349 344
352 355 355 353 353 355 355 356 355 351 351 347 347 337 342 339 342 345 345 345 344 344 343 343 343 343 343 347 347 346 346 346 346 347 349 350 349 348 348 349 347 347 348 350 350 351 350 350 347
351 354 354 355 351 350 354 357 356 351 349 348 346 345 342 342 344 345 344 344 344 343 342 343 342 341 343 347 348 347 347 347 349 349 349 349 349 348 348 348 347 348 348 350 350 351 350 350 347
354 349 350 353 351 353 352 358 354 354 349 347 346 345 340 343 344 344 343 343 344 344 344 344 343 345 345 346 348 346 347 349 348 348 349 349 347 347 349 348 346 348 349 350 351 350 350 350 348
344 348 349 349 353 351 352 355 351 352 355 350 345 344 341 342 342 342 342 343 344 344 344 343 343 344 343 346 347 348 348 346 346 347 348 348 350 350 350 351 350 349 349 348 351 350 349 350 346
347 347 348 349 347 352 349 356 353 353 353 349 343 345 343 341 343 341 342 343 343 345 344 344 344 344 346 347 349 348 347 348 348 348 348 347 349 350 352 349 350 350 348 350 348 349 349 348 350
348 347 352 355 356 354 352 354 350 346 344 345 343 345 344 341 344 343 342 342 343 345 345 345 344 344 347 347 348 348 348 347 348 347 347 348 347 347 348 350 349 350 350 349 350 351 348 349 349
345 343 350 356 358 354 355 357 351 345 342 341 343 344 343 345 344 343 343 342 343 345 345 345 345 344 345 347 347 348 347 347 347 347 346 348 347 347 347 348 350 347 351 349 349 349 350 349 349
346 344 338 345 344 350 355 352 345 346 345 342 340 342 344 344 344 344 343 344 344 346 346 345 345 345 346 346 346 347 347 347 347 347 344 344 344 347 348 348 349 348 351 351 351 352 350 349 350
340 336 342 339 348 350 351 352 351 351 347 343 343 342 343 343 345 343 343 344 345 345 347 346 345 345 344 345 346 347 347 347 348 348 345 346 344 346 346 348 349 347 350 351 352 352 351 350 350
324 326 324 330 335 341 349 346 344 345 347 344 343 342 343 343 346 344 343 344 345 346 347 347 347 346 345 346 345 346 346 347 348 348 345 347 346 345 343 347 349 347 349 351 351 351 351 349 350
324 322 319 324 327 328 333 326 339 346 345 348 347 347 341 342 343 344 344 345 345 345 346 348 348 347 345 346 346 346 347 347 349 348 348 347 344 344 338 338 345 350 350 351 351 351 350 351 348

GFSSGP_925_thetae_120.txt.gz
Theta_e
347 342 345 349 348 345 353 350 345 342 343 339 340 341 345 347 342 341 337 338 339 340 342 344 345 348 347 348 350 351 350 350 350 350 350 350 350 351 351 350 346 350 348 350 350 350 349 349 351
345 344 346 350 347 351 354 350 344 342 342 338 341 344 347 348 343 337 338 338 339 340 343 345 346 348 348 349 350 351 349 351 350 350 350 350 350 350 350 346 349 349 349 349 349 348 345 344 344
340 348 352 348 349 352 354 348 347 345 343 345 346 345 347 348 339 338 337 338 340 341 344 348 345 348 349 347 348 350 350 350 350 350 350 350 351 349 351 351 350 348 350 351 349 347 345 343 344
344 349 346 349 354 346 349 347 345 348 346 346 346 349 345 340 342 340 337 338 339 342 344 347 347 347 348 348 348 350 351 350 349 350 350 350 350 351 351 350 350 348 348 347 345 345 345 344 350
339 345 354 355 351 348 346 346 346 350 349 347 346 350 348 346 345 339 338 339 340 343 345 347 349 348 349 349 350 350 350 351 351 351 350 351 350 350 350 350 348 347 348 347 347 344 346 346 349
344 344 355 353 350 346 344 345 349 351 349 348 348 349 349 347 345 341 340 340 341 338 341 347 348 348 348 350 350 349 350 351 349 350 347 348 347 349 349 349 350 350 346 346 344 342 343 344 346
345 352 356 353 350 347 346 346 351 350 348 349 346 351 348 346 346 344 342 341 341 343 344 345 348 346 346 347 350 350 350 350 348 349 348 347 349 350 350 350 349 348 346 343 338 340 342 341 344
345 352 357 354 351 350 347 347 349 348 350 345 345 350 350 345 347 345 344 344 348 349 349 343 349 348 348 346 351 348 348 351 350 347 347 349 350 351 349 348 350 348 347 340 333 339 341 340 343
348 353 359 357 354 352 346 350 347 346 347 346 346 345 345 347 347 347 347 347 346 346 348 345 347 347 345 346 350 350 351 350 349 347 347 349 349 346 345 348 350 350 349 339 337 338 338 338 339
351 354 357 354 354 355 346 348 348 348 348 349 347 345 346 344 346 346 345 345 343 344 348 347 346 344 345 346 349 349 349 349 347 345 343 344 343 342 344 346 343 343 342 343 340 338 338 338 340
354 354 353 352 351 351 355 347 345 348 351 348 348 348 346 343 345 345 344 345 346 345 345 347 346 346 346 344 345 347 345 345 344 340 341 343 343 341 341 341 342 341 342 338 339 341 342 343 344
355 354 352 352 349 350 353 350 345 346 347 345 346 346 345 341 345 346 347 347 346 346 344 347 344 344 345 343 342 341 337 337 340 340 341 341 341 340 340 340 338 339 341 343 343 342 343 344 345
355 353 350 350 349 350 350 353 347 346 347 345 345 346 344 341 345 346 346 345 345 344 345 344 343 343 343 343 342 340 341 343 344 343 341 340 341 340 337 338 338 342 344 345 344 344 344 345 344
352 352 349 350 351 350 352 354 349 347 346 346 346 345 342 342 345 345 346 346 346 346 346 343 341 340 342 344 345 345 345 343 342 341 339 338 339 336 341 343 343 343 344 344 345 346 346 345 344
350 354 353 353 353 352 351 356 357 347 347 347 346 344 343 342 345 345 345 346 345 345 345 342 345 345 344 345 345 346 345 344 344 343 342 344 344 344 344 344 342 344 345 345 345 345 346 343 342
355 354 359 354 351 352 353 357 353 347 347 348 346 344 343 343 344 345 345 345 345 346 345 345 345 346 346 345 343 345 344 345 345 344 345 343 346 345 343 342 342 345 347 349 349 349 344 341 341
351 357 356 355 349 352 354 356 350 346 347 348 347 346 345 344 342 344 345 345 346 345 346 347 347 346 346 345 346 345 345 343 344 344 344 345 346 344 344 344 344 346 348 351 351 348 344 342 342
355 354 351 353 351 354 354 356 350 346 348 348 346 346 344 343 343 344 345 345 346 346 346 347 345 346 346 346 346 346 343 344 340 344 345 345 347 347 349 346 344 348 348 351 349 347 345 345 345
351 354 353 354 351 355 355 356 353 348 346 344 338 339 340 343 343 343 344 345 345 345 346 345 346 346 346 347 346 345 346 346 346 347 347 348 349 349 345 341 346 347 348 349 350 350 347 346 344
352 355 356 354 352 354 355 356 354 352 350 344 339 341 342 343 339 342 343 344 344 345 345 345 345 345 345 345 345 344 346 346 345 347 348 348 347 349 349 346 346 347 348 349 350 349 349 347 348
352 353 353 355 353 351 354 355 356 352 350 347 344 338 342 340 341 343 344 344 344 344 344 344 345 345 345 346 346 345 345 346 346 348 349 348 349 350 349 347 347 347 347 348 349 349 350 346 345
352 347 351 352 349 358 352 360 354 354 352 347 344 343 339 340 342 343 343 343 344 344 343 343 343 344 344 346 347 345 345 346 347 347 347 347 348 348 349 348 347 348 348 349 349 349 349 349 345
348 348 348 348 350 349 354 356 348 352 356 352 345 343 341 340 342 343 344 343 343 344 343 343 342 342 342 346 347 346 346 346 347 347 347 348 346 346 347 350 349 349 348 349 350 348 348 347 347
344 345 346 346 345 350 350 353 352 354 353 352 347 342 342 338 341 343 343 343 343 343 343 342 343 342 345 346 346 347 346 346 346 346 346 347 348 348 348 349 349 349 348 349 348 349 349 348 348
343 341 346 349 353 355 350 353 346 343 346 349 348 342 343 339 341 342 341 342 342 343 343 343 343 343 344 345 346 346 347 346 347 347 347 347 346 348 347 349 348 349 349 349 349 348 349 349 348
343 339 345 354 357 353 354 357 347 342 344 346 346 343 343 340 341 341 341 341 342 343 344 344 343 343 344 347 348 347 347 347 346 346 347 346 347 347 347 348 348 348 347 350 349 349 349 347 349
344 343 337 342 343 347 349 350 342 345 342 342 344 343 344 343 342 342 341 341 341 342 344 344 343 344 343 346 348 347 347 347 347 347 347 346 346 347 347 346 347 349 348 350 350 349 350 349 349
339 338 340 338 350 350 345 351 349 346 346 342 340 342 343 344 342 342 341 341 341 343 344 344 344 344 343 343 345 347 347 347 347 346 347 346 344 342 346 347 348 349 348 350 350 351 351 350 350
332 337 326 332 336 342 343 335 345 349 344 343 342 341 340 344 343 343 342 342 342 343 344 344 344 344 344 343 344 346 346 347 347 347 347 347 345 344 345 345 345 348 348 349 350 351 351 351 349
324 323 320 329 327 328 329 326 347 349 350 345 346 341 339 343 344 343 342 342 343 344 345 345 345 345 344 343 344 344 344 346 346 346 347 347 345 346 342 343 345 345 349 349 350 349 350 351 350

GFSSGP_925_thetae_123.txt.gz
Theta_e
346 342 347 351 355 352 351 347 345 345 345 341 341 342 345 347 344 349 339 340 340 342 343 341 342 343 344 345 348 350 349 349 351 349 351 350 350 350 350 348 349 350 351 350 348 349 345 351 351
348 346 349 355 354 351 352 347 346 344 342 341 342 345 347 347 341 340 340 341 341 345 346 346 344 345 346 347 348 351 350 351 350 350 350 351 350 349 350 350 351 351 344 345 344 345 345 343 345
347 349 354 356 355 354 353 349 344 344 341 344 347 346 346 344 339 339 340 341 343 346 348 347 343 345 348 348 349 351 351 350 350 350 350 349 349 350 351 348 349 351 351 348 343 344 344 349 348
346 351 349 355 354 350 351 348 346 347 345 346 345 347 342 339 339 341 341 343 344 347 350 346 346 348 350 348 350 351 350 350 350 349 350 348 351 350 350 350 348 350 349 346 346 345 350 351 350
340 348 357 355 352 350 349 346 346 349 348 347 345 347 345 347 343 341 343 343 345 347 348 350 346 349 348 348 349 350 350 350 350 349 351 351 350 350 350 348 350 348 348 349 347 347 345 350 347
349 348 353 355 352 349 347 347 349 350 349 346 344 345 348 348 343 343 343 344 346 346 347 349 347 347 349 349 349 350 351 348 348 348 349 348 350 350 350 351 349 347 347 346 342 343 344 347 344
350 355 356 351 352 350 348 348 350 348 348 347 342 348 348 348 345 345 345 345 344 343 346 349 348 349 346 349 348 350 349 348 347 350 350 350 350 349 349 348 347 346 345 343 341 342 341 343 344
349 355 355 351 352 351 348 350 347 347 350 344 342 348 350 348 347 346 345 345 346 347 346 349 350 349 350 350 348 349 350 349 349 350 351 349 351 349 343 345 347 347 344 338 339 341 341 343 344
348 358 358 352 350 350 348 351 348 346 346 345 347 344 345 348 347 345 345 347 348 347 348 349 350 345 345 350 350 349 350 348 350 350 345 345 348 347 347 349 350 349 343 342 339 338 339 339 338
352 358 358 354 354 349 347 349 349 347 347 350 350 347 347 347 346 345 346 346 346 345 348 350 350 348 347 347 348 351 352 351 349 347 345 345 345 348 349 345 342 342 341 339 338 339 339 339 345
352 356 353 353 351 350 348 348 346 347 348 349 349 350 347 346 345 348 346 343 341 342 347 348 349 343 346 347 349 351 350 349 348 340 341 342 342 341 342 344 339 341 338 340 341 341 342 343 345
357 353 352 351 349 352 351 349 348 347 347 345 346 347 346 347 347 347 342 342 343 345 346 348 348 348 347 348 348 347 346 346 345 342 341 341 342 340 339 339 336 341 343 343 342 343 344 344 344
356 353 352 350 350 351 351 352 347 347 347 345 346 347 347 347 346 343 343 344 345 345 346 347 347 346 345 342 341 343 340 344 344 341 340 340 340 338 337 337 341 343 345 344 345 345 347 345 347
352 352 351 350 351 350 353 353 348 348 347 347 348 347 346 346 345 346 346 345 345 345 346 346 346 346 342 343 340 341 342 343 343 342 340 338 337 336 341 343 343 343 344 344 345 345 345 345 345
352 355 352 352 352 352 351 356 353 349 347 349 348 347 346 345 346 346 346 346 346 345 346 345 345 344 342 344 345 345 344 343 344 342 340 343 343 343 344 343 344 345 345 346 346 345 344 344 343
353 351 360 349 352 350 353 358 355 349 348 349 348 348 347 346 346 347 346 345 346 344 347 347 345 346 344 344 344 345 343 344 344 343 343 343 346 344 343 342 344 347 349 350 350 346 347 345 346
354 356 357 354 348 353 355 356 353 349 348 349 349 348 348 347 345 346 346 346 345 346 346 347 348 348 345 343 344 344 344 344 344 344 344 345 346 344 344 344 346 347 350 351 353 348 346 346 346
352 357 352 354 349 353 355 356 353 350 349 350 349 348 348 347 347 346 346 346 346 346 348 348 348 348 346 345 346 345 345 342 342 343 343 343 345 347 346 344 345 348 352 355 353 348 345 349 349
343 353 352 349 348 352 355 357 354 351 349 350 349 349 349 348 345 345 346 346 346 347 347 348 349 346 345 346 348 349 347 347 342 344 344 345 347 349 346 344 346 346 349 350 350 352 351 350 348
348 355 355 353 349 351 355 355 354 351 350 349 350 349 349 348 346 345 346 346 346 347 348 348 347 346 347 348 347 348 348 349 349 346 347 348 347 348 348 345 347 346 352 349 349 348 353 351 350
350 351 355 355 354 351 354 356 354 353 351 348 346 346 346 347 347 346 346 346 346 347 347 347 345 346 346 347 346 345 345 347 349 346 346 349 348 347 348 347 346 346 348 353 349 352 352 351 348
347 347 350 354 355 359 353 362 355 355 354 352 347 344 345 345 346 345 346 346 347 346 347 347 345 345 346 345 346 346 348 348 346 345 347 348 348 349 349 348 347 348 348 350 350 352 351 350 351
347 347 350 350 351 354 356 359 355 353 357 355 351 347 343 344 344 344 345 346 346 346 346 346 345 344 346 345 347 346 347 346 345 349 346 345 346 348 348 348 348 348 348 349 349 349 349 351 352
347 348 348 348 350 357 351 356 352 356 357 353 351 348 346 343 344 344 344 346 346 345 345 345 346 343 343 343 345 347 348 346 349 349 350 350 349 350 348 348 349 347 349 348 350 349 348 349 351
345 348 353 356 356 355 350 354 350 347 348 351 351 349 347 344 344 345 346 346 346 346 346 346 346 345 343 345 346 347 346 345 346 348 350 349 350 350 350 348 349 347 348 348 348 348 348 349 351
344 337 345 352 356 352 353 356 351 346 343 345 349 348 347 346 344 345 346 346 346 346 346 346 346 346 345 347 348 346 346 349 350 350 350 350 350 350 347 348 347 346 346 349 349 352 352 350 351
345 343 340 344 344 346 347 350 348 346 346 347 347 348 346 346 344 344 345 345 346 346 347 346 346 346 346 347 348 345 346 347 348 347 346 347 346 347 347 346 347 348 350 348 349 352 350 351 352
344 341 347 344 348 346 343 349 353 355 354 348 348 348 346 345 344 343 344 344 345 346 346 346 347 346 346 347 349 349 349 347 347 347 347 346 346 345 344 346 346 349 352 353 350 351 353 352 353
344 345 339 338 341 343 343 342 351 354 353 351 345 346 347 345 346 345 342 343 345 345 345 346 347 347 346 346 348 349 350 347 347 347 347 347 346 346 341 344 347 347 351 352 349 348 350 353 352
335 338 341 341 338 339 339 338 347 349 349 349 347 345 343 344 346 345 343 344 344 345 345 345 346 347 347 347 348 347 348 348 349 347 346 346 347 345 346 345 344 344 348 351 349 350 351 352 352

GFSSGP_925_thetae_126.txt.gz
Theta_e
345 347 351 355 357 348 351 351 346 347 346 344 343 345 347 347 348 356 339 338 341 341 342 341 341 343 341 344 345 349 347 349 351 350 351 350 351 351 351 352 352 352 351 350 347 348 352 352 351
349 349 353 358 353 350 352 348 347 346 344 343 342 345 345 348 344 342 341 340 341 343 344 346 342 343 343 349 345 351 349 346 345 345 351 351 351 351 352 352 351 346 345 349 348 349 350 352 352
351 352 358 354 351 352 353 349 348 345 344 345 347 346 344 345 343 342 341 341 344 346 346 346 343 344 344 350 350 351 346 345 350 351 350 350 351 351 350 351 349 350 349 349 349 351 351 351 352
348 354 353 352 352 353 350 348 347 346 347 345 345 348 343 340 341 341 341 342 345 346 346 344 345 344 349 350 351 350 347 347 351 350 350 351 351 351 349 350 351 350 347 351 351 352 351 350 351
345 351 355 352 354 351 349 347 348 349 349 348 345 344 347 345 341 341 342 343 344 345 344 347 349 346 348 351 351 350 350 350 351 351 352 351 351 350 351 350 349 350 350 350 350 351 350 348 345
353 351 353 353 354 352 350 348 349 350 350 348 346 346 349 343 341 342 343 344 344 343 345 345 345 348 346 350 347 350 350 351 351 351 351 351 350 351 352 350 348 349 349 347 345 347 350 346 345
354 355 353 352 354 354 353 349 349 349 349 348 343 347 349 344 343 343 344 345 343 342 344 344 345 346 346 351 352 348 350 350 351 347 350 351 351 349 349 348 346 347 345 344 343 343 344 346 347
351 356 353 350 352 354 350 350 347 346 348 343 342 348 351 346 345 345 345 344 342 341 343 344 346 348 349 348 350 349 351 351 351 351 351 350 350 345 342 337 346 346 342 341 342 341 342 343 342
348 357 356 351 351 353 349 351 349 346 347 344 346 343 344 346 345 344 345 344 343 343 345 345 347 349 350 350 349 350 350 351 345 344 343 345 343 344 345 340 350 348 345 340 340 340 339 342 344
353 356 360 357 352 351 349 349 349 346 346 349 347 345 346 345 345 344 343 343 341 344 345 346 347 347 348 349 350 348 347 347 345 345 346 344 346 348 345 344 341 339 337 338 339 339 340 345 344
355 358 355 354 352 347 349 348 348 345 346 347 350 347 345 345 345 343 342 342 340 344 346 347 348 348 348 349 348 346 345 344 345 347 346 348 347 348 348 347 345 345 344 343 343 344 345 347 346
357 355 354 352 351 350 350 348 347 346 346 345 346 345 346 346 345 345 343 341 340 344 345 346 347 348 347 346 345 344 345 344 342 346 348 348 345 345 346 344 345 347 347 349 348 347 350 350 349
355 355 353 350 351 351 350 350 347 350 346 344 345 345 344 345 346 344 342 341 341 343 345 346 348 349 348 346 342 342 343 343 344 346 348 347 345 344 344 347 347 349 349 349 350 350 349 349 344
354 354 353 351 352 352 353 351 347 349 345 346 344 345 346 346 345 344 343 343 343 343 345 347 348 349 348 349 349 346 345 345 345 346 347 347 344 345 348 349 348 350 350 350 350 351 348 345 341
353 357 354 353 352 354 353 356 352 350 346 347 345 345 346 346 345 346 346 345 344 344 345 346 347 348 349 349 349 347 346 344 345 345 348 349 350 351 352 349 350 351 353 355 352 350 349 344 341
355 355 359 355 353 351 353 355 354 350 348 348 346 346 346 346 346 345 346 345 343 343 345 345 345 347 349 349 349 346 347 347 346 346 347 350 351 352 352 349 351 354 355 354 351 347 345 345 342
354 355 357 357 353 353 352 356 356 350 349 348 346 347 347 348 347 346 345 345 343 345 348 346 346 348 348 350 348 348 349 348 348 348 348 352 351 351 351 350 351 356 355 354 349 348 345 346 344
349 352 354 356 353 354 355 355 355 353 350 350 347 345 347 348 348 347 345 345 344 346 349 349 349 349 350 350 351 349 347 348 347 346 348 351 351 353 353 349 353 355 353 352 353 352 351 349 347
337 351 355 352 349 351 354 356 356 354 352 351 348 346 347 346 346 346 346 345 346 346 347 350 350 351 351 350 348 347 347 347 346 346 349 350 352 353 353 350 351 354 352 358 356 354 354 351 353
339 349 354 354 350 351 352 359 355 354 354 350 350 347 347 346 347 347 346 346 346 347 347 349 349 349 351 350 349 348 349 348 347 348 350 351 351 353 354 352 353 354 353 356 359 358 351 352 354
339 346 346 350 354 353 352 354 357 355 353 351 351 347 345 346 346 348 347 346 346 347 348 348 350 351 351 351 351 352 351 349 350 351 349 351 352 352 355 354 354 354 354 352 356 357 357 350 353
340 345 345 350 357 359 353 363 355 358 359 355 352 351 347 344 345 346 347 347 346 347 348 348 351 351 350 349 350 349 348 347 348 351 349 351 352 353 354 353 355 355 353 355 354 355 357 357 351
343 345 345 348 351 353 357 360 357 354 359 356 353 351 347 345 344 345 346 347 347 347 348 348 350 350 350 351 351 349 347 348 348 348 351 351 352 353 354 354 354 355 352 356 355 354 357 355 354
344 345 345 348 350 357 354 354 359 359 358 354 353 351 348 346 344 344 344 346 347 347 348 349 350 351 351 352 348 349 349 349 348 350 350 349 348 349 352 353 354 355 353 354 354 355 355 354 355
344 347 342 353 354 354 350 353 352 348 349 352 352 352 349 347 345 345 345 345 347 348 348 348 350 351 350 350 350 349 350 350 349 350 348 350 350 349 350 352 352 351 350 351 353 355 354 355 354
341 339 337 350 352 351 351 354 356 348 346 346 347 349 350 348 347 344 345 346 348 348 349 348 349 351 350 349 349 350 351 349 349 351 348 351 350 350 351 353 353 352 352 353 353 352 352 352 352
337 341 335 341 342 346 347 345 350 349 351 350 346 349 351 349 347 344 344 346 348 349 349 349 349 351 349 347 348 350 351 351 351 351 353 350 353 352 354 354 354 353 353 354 353 353 353 353 353
342 338 338 338 349 350 344 344 347 355 356 351 347 348 350 349 348 345 344 346 348 348 349 349 349 350 349 347 348 349 350 352 352 354 351 353 353 354 352 353 353 353 353 354 354 352 353 354 352
345 345 340 342 347 351 348 343 348 356 355 354 349 349 349 349 348 347 345 345 347 347 348 348 349 349 350 348 348 348 349 349 352 352 353 352 354 354 354 353 352 354 354 354 355 354 352 353 354
339 341 341 342 346 341 345 343 349 353 353 352 349 346 347 348 347 347 344 346 346 347 347 348 349 349 350 348 348 349 349 350 350 352 352 352 353 354 354 353 353 353 353 354 355 354 351 352 352